[[{"header":{"parameterUnit":"m.s-1","parameterCategory":1,"la1":30.6,"la2":28.766,"lo1":-90.7593,"lo2":-88.6598,"dy":0.0162,"dx":0.0183,"nx":116,"ny":114,"refTime":"2023-06-16T06:00:00:Z","depth":0,"parameterNumber":2,"parameterNumberName":"U-component_of_WINDS"},"data":[0.0,0.0,0.0,0.0,0.0,0.0,0.0,0.0,0.0,0.0,0.0,0.0,0.0,0.0,0.0,0.0,0.0,0.0,0.0,0.0,0.0,0.0,0.0,0.0,0.0,0.0,0.0,0.0,0.0,0.0,0.0,0.0,0.0,0.0,0.0,0.0,0.0,0.0,0.0,0.0,0.0,0.0,0.0,0.0,0.0,0.0,0.0,0.0,0.0,0.0,0.0,0.0,0.0,0.0,0.0,0.0,0.0,0.0,0.0,0.0,0.0,0.0,0.0,0.0,0.0,0.0,0.0,0.0,0.0,0.0,0.0,0.0,0.0,0.0,0.0,0.0,0.0,0.0,0.0,0.0,0.0,0.0,0.0,0.0,0.0,0.0,0.0,0.0,0.0,0.0,0.0,0.0,0.0,0.0,0.0,0.0,0.0,0.0,0.0,0.0,0.0,0.0,0.0,0.0,0.0,0.0,0.0,0.0,0.0,0.0,0.0,0.0,0.0,0.0,0.0,0.0,0.0,0.0,0.0,0.0,0.0,0.0,0.0,0.0,0.0,0.0,0.0,0.0,0.0,0.0,0.0,0.0,0.0,0.0,0.0,0.0,0.0,0.0,0.0,0.0,0.0,0.0,0.0,0.0,0.0,0.0,0.0,0.0,0.0,0.0,0.0,0.0,0.0,0.0,0.0,0.0,0.0,0.0,0.0,0.0,0.0,0.0,0.0,0.0,0.0,0.0,0.0,0.0,0.0,0.0,0.0,0.0,0.0,0.0,0.0,0.0,0.0,0.0,0.0,0.0,0.0,0.0,0.0,0.0,0.0,0.0,0.0,0.0,0.0,0.0,0.0,0.0,0.0,0.0,0.0,0.0,0.0,0.0,0.0,0.0,0.0,0.0,0.0,0.0,0.0,0.0,0.0,0.0,0.0,0.0,0.0,0.0,0.0,0.0,0.0,0.0,0.0,0.0,0.0,0.0,0.0,0.0,0.0,0.0,0.0,0.0,0.0,0.0,0.0,0.0,0.0,0.0,0.0,0.0,0.0,0.0,0.0,0.0,0.0,0.0,0.0,0.0,0.0,0.0,0.0,0.0,0.0,0.0,0.0,0.0,0.0,0.0,0.0,0.0,0.0,0.0,0.0,0.0,0.0,0.0,0.0,0.0,0.0,0.0,0.0,0.0,0.0,0.0,0.0,0.0,0.0,0.0,0.0,0.0,0.0,0.0,0.0,0.0,0.0,0.0,0.0,0.0,0.0,0.0,0.0,0.0,0.0,0.0,0.0,0.0,0.0,0.0,0.0,0.0,0.0,0.0,0.0,0.0,0.0,0.0,0.0,0.0,0.0,0.0,0.0,0.0,0.0,0.0,0.0,0.0,0.0,0.0,0.0,0.0,0.0,0.0,0.0,0.0,0.0,0.0,0.0,0.0,0.0,0.0,0.0,0.0,0.0,0.0,0.0,0.0,0.0,0.0,0.0,0.0,0.0,0.0,0.0,0.0,0.0,0.0,0.0,0.0,0.0,0.0,0.0,0.0,0.0,0.0,0.0,0.0,0.0,0.0,0.0,0.0,0.0,0.0,0.0,0.0,0.0,0.0,0.0,0.0,0.0,0.0,0.0,0.0,0.0,0.0,0.0,0.0,0.0,0.0,0.0,0.0,0.0,0.0,0.0,0.0,0.0,0.0,0.0,0.0,0.0,0.0,0.0,0.0,0.0,0.0,0.0,0.0,0.0,0.0,0.0,0.0,0.0,0.0,0.0,0.0,0.0,0.0,0.0,0.0,0.0,0.0,0.0,0.0,0.0,0.0,0.0,0.0,0.0,0.0,0.0,0.0,0.0,0.0,0.0,0.0,0.0,0.0,0.0,0.0,0.0,0.0,0.0,0.0,0.0,0.0,0.0,0.0,0.0,0.0,0.0,0.0,0.0,0.0,0.0,0.0,0.0,0.0,0.0,0.0,0.0,0.0,0.0,0.0,0.0,0.0,0.0,0.0,0.0,0.0,0.0,0.0,0.0,0.0,0.0,0.0,0.0,0.0,0.0,0.0,0.0,0.0,0.0,0.0,0.0,0.0,0.0,0.0,0.0,0.0,0.0,0.0,0.0,0.0,0.0,0.0,0.0,0.0,0.0,0.0,0.0,0.0,0.0,0.0,0.0,0.0,0.0,0.0,0.0,0.0,0.0,0.0,0.0,0.0,0.0,0.0,0.0,0.0,0.0,0.0,0.0,0.0,0.0,0.0,0.0,0.0,0.0,0.0,0.0,0.0,0.0,0.0,0.0,0.0,0.0,0.0,0.0,0.0,0.0,0.0,0.0,0.0,0.0,0.0,0.0,0.0,0.0,0.0,0.0,0.0,0.0,0.0,0.0,0.0,0.0,0.0,0.0,0.0,0.0,0.0,0.0,0.0,0.0,0.0,0.0,0.0,0.0,0.0,0.0,0.0,0.0,0.0,0.0,0.0,0.0,0.0,0.0,0.0,0.0,0.0,0.0,0.0,0.0,0.0,0.0,0.0,0.0,0.0,0.0,0.0,0.0,0.0,0.0,0.0,0.0,0.0,0.0,0.0,0.0,0.0,0.0,0.0,0.0,0.0,0.0,0.0,0.0,0.0,0.0,0.0,0.0,0.0,0.0,0.0,0.0,0.0,0.0,0.0,0.0,0.0,0.0,0.0,0.0,0.0,0.0,0.0,0.0,0.0,0.0,0.0,0.0,0.0,0.0,0.0,0.0,0.0,0.0,0.0,0.0,0.0,0.0,0.0,0.0,0.0,0.0,0.0,0.0,0.0,0.0,0.0,0.0,0.0,0.0,0.0,0.0,0.0,0.0,0.0,0.0,0.0,0.0,0.0,0.0,0.0,0.0,0.0,0.0,0.0,0.0,0.0,0.0,0.0,0.0,0.0,0.0,0.0,0.0,0.0,0.0,0.0,0.0,0.0,0.0,0.0,0.0,0.0,0.0,0.0,0.0,0.0,0.0,0.0,0.0,0.0,0.0,0.0,0.0,0.0,0.0,0.0,0.0,0.0,0.0,0.0,0.0,0.0,0.0,0.0,0.0,0.0,0.0,0.0,0.0,0.0,0.0,0.0,0.0,0.0,0.0,0.0,0.0,0.0,0.0,0.0,0.0,0.0,0.0,0.0,0.0,0.0,0.0,0.0,0.0,0.0,0.0,0.0,0.0,0.0,0.0,0.0,0.0,0.0,0.0,0.0,0.0,0.0,0.0,0.0,0.0,0.0,0.0,0.0,0.0,0.0,0.0,0.0,0.0,0.0,0.0,0.0,0.0,0.0,0.0,0.0,0.0,0.0,0.0,0.0,0.0,0.0,0.0,0.0,0.0,0.0,0.0,0.0,0.0,0.0,0.0,0.0,0.0,0.0,0.0,0.0,0.0,0.0,0.0,0.0,0.0,0.0,0.0,0.0,0.0,0.0,0.0,0.0,0.0,0.0,0.0,0.0,0.0,0.0,0.0,0.0,0.0,0.0,0.0,0.0,0.0,0.0,0.0,0.0,0.0,0.0,0.0,0.0,0.0,0.0,0.0,0.0,0.0,0.0,0.0,0.0,0.0,0.0,0.0,0.0,0.0,0.0,0.0,0.0,0.0,0.0,0.0,0.0,0.0,0.0,0.0,0.0,0.0,0.0,0.0,0.0,0.0,0.0,0.0,0.0,0.0,0.0,0.0,0.0,0.0,0.0,0.0,0.0,0.0,0.0,0.0,0.0,0.0,0.0,0.0,0.0,0.0,0.0,0.0,0.0,0.0,0.0,0.0,0.0,0.0,0.0,0.0,0.0,0.0,0.0,0.0,0.0,0.0,0.0,0.0,0.0,0.0,0.0,0.0,0.0,0.0,0.0,0.0,0.0,0.0,0.0,0.0,0.0,0.0,0.0,0.0,0.0,0.0,0.0,0.0,0.0,0.0,0.0,0.0,0.0,0.0,0.0,0.0,0.0,0.0,0.0,0.0,0.0,0.0,0.0,0.0,0.0,0.0,0.0,0.0,0.0,0.0,0.0,0.0,0.0,0.0,0.0,0.0,0.0,0.0,0.0,0.0,0.0,0.0,0.0,0.0,0.0,0.0,0.0,0.0,0.0,0.0,0.0,0.0,0.0,0.0,0.0,0.0,0.0,0.0,0.0,0.0,0.0,0.0,0.0,0.0,0.0,0.0,0.0,0.0,0.0,0.0,0.0,0.0,0.0,0.0,0.0,0.0,0.0,0.0,0.0,0.0,0.0,0.0,0.0,0.0,0.0,0.0,0.0,0.0,0.0,0.0,0.0,0.0,0.0,0.0,0.0,0.0,0.0,0.0,0.0,0.0,0.0,0.0,0.0,0.0,0.0,0.0,0.0,0.0,0.0,0.0,0.0,0.0,0.0,0.0,0.0,0.0,0.0,0.0,0.0,0.0,0.0,0.0,0.0,0.0,0.0,0.0,0.0,0.0,0.0,0.0,0.0,0.0,0.0,0.0,0.0,0.0,0.0,0.0,0.0,0.0,0.0,0.0,0.0,0.0,0.0,0.0,0.0,0.0,0.0,0.0,0.0,0.0,0.0,0.0,0.0,0.0,0.0,0.0,0.0,0.0,0.0,0.0,0.0,0.0,0.0,0.0,0.0,0.0,0.0,0.0,0.0,0.0,0.0,0.0,0.0,0.0,0.0,0.0,0.0,0.0,0.0,0.0,0.0,0.0,0.0,0.0,0.0,0.0,0.0,0.0,0.0,0.0,0.0,0.0,0.0,0.0,0.0,0.0,0.0,0.0,0.0,0.0,0.0,0.0,0.0,0.0,0.0,0.0,0.0,0.0,0.0,0.0,0.0,0.0,0.0,0.0,0.0,0.0,0.0,0.0,0.0,0.0,0.0,0.0,0.0,0.0,0.0,0.0,0.0,0.0,0.0,0.0,0.0,0.0,0.0,0.0,0.0,0.0,0.0,0.0,0.0,0.0,0.0,0.0,0.0,0.0,0.0,0.0,0.0,0.0,0.0,0.0,0.0,0.0,0.0,0.0,0.0,0.0,0.0,0.0,0.0,0.0,0.0,0.0,0.0,0.0,0.0,0.0,0.0,0.0,0.0,0.0,0.0,0.0,0.0,0.0,0.0,0.0,0.0,0.0,0.0,0.0,0.0,0.0,0.0,0.0,0.0,0.0,0.0,0.0,0.0,0.0,0.0,0.0,0.0,0.0,0.0,0.0,0.0,0.0,0.0,0.0,0.0,0.0,0.0,0.0,0.0,0.0,0.0,0.0,0.0,0.0,0.0,0.0,0.0,0.0,0.0,0.0,0.0,0.0,0.0,0.0,0.0,0.0,0.0,0.0,0.0,0.0,0.0,0.0,0.0,0.0,0.0,0.0,0.0,0.0,0.0,0.0,0.0,0.0,0.0,0.0,0.0,0.0,0.0,0.0,0.0,0.0,0.0,0.0,0.0,0.0,0.0,0.0,0.0,0.0,0.0,0.0,0.0,0.0,0.0,0.0,0.0,0.0,0.0,0.0,0.0,0.0,0.0,0.0,0.0,0.0,0.0,0.0,0.0,0.0,0.0,0.0,0.0,0.0,0.0,0.0,0.0,0.0,0.0,0.0,0.0,0.0,0.0,0.0,0.0,0.0,0.0,0.0,0.0,0.0,0.0,0.0,0.0,0.0,0.0,0.0,0.0,0.0,0.0,0.0,0.0,0.0,0.0,0.0,0.0,0.0,0.0,0.0,0.0,0.0,0.0,0.0,0.0,0.0,0.0,0.0,0.0,0.0,0.0,0.0,0.0,0.0,0.0,0.0,0.0,0.0,0.0,0.0,0.0,0.0,0.0,0.0,0.0,0.0,0.0,0.0,0.0,0.0,0.0,0.0,0.0,0.0,0.0,0.0,0.0,0.0,0.0,0.0,0.0,0.0,0.0,0.0,0.0,0.0,0.0,0.0,0.0,0.0,0.0,0.0,0.0,0.0,0.0,0.0,0.0,0.0,0.0,0.0,0.0,0.0,0.0,0.0,0.0,0.0,0.0,0.0,0.0,0.0,0.0,0.0,0.0,0.0,0.0,0.0,0.0,0.0,0.0,0.0,0.0,0.0,0.0,0.0,0.0,0.0,0.0,0.0,0.0,-1.8873,-1.8046,0.0,0.0,0.0,0.0,0.0,0.0,0.0,0.0,0.0,0.0,0.0,0.0,0.0,0.0,0.0,0.0,0.0,0.0,0.0,0.0,0.0,0.0,0.0,0.0,0.0,0.0,0.0,0.0,0.0,0.0,0.0,0.0,0.0,0.0,0.0,0.0,0.0,0.0,0.0,0.0,0.0,0.0,0.0,0.0,0.0,0.0,0.0,0.0,0.0,0.0,0.0,0.0,0.0,0.0,0.0,0.0,0.0,0.0,0.0,0.0,0.0,0.0,0.0,0.0,0.0,0.0,0.0,0.0,0.0,0.0,0.0,0.0,0.0,0.0,0.0,0.0,0.0,0.0,0.0,0.0,0.0,0.0,0.0,0.0,0.0,0.0,0.0,0.0,0.0,0.0,0.0,0.0,0.0,0.0,0.0,0.0,0.0,0.0,0.0,0.0,0.0,0.0,0.0,0.0,0.0,0.0,0.0,0.0,0.0,0.0,0.0,0.0,0.0,0.0,-2.0634,-1.9177,0.0,0.0,0.0,0.0,0.0,0.0,0.0,0.0,0.0,0.0,0.0,0.0,0.0,0.0,0.0,0.0,0.0,0.0,0.0,0.0,0.0,0.0,0.0,0.0,0.0,0.0,0.0,0.0,0.0,0.0,0.0,0.0,0.0,0.0,0.0,0.0,0.0,0.0,0.0,0.0,0.0,0.0,0.0,0.0,0.0,0.0,0.0,0.0,0.0,0.0,0.0,0.0,0.0,0.0,0.0,0.0,0.0,0.0,0.0,0.0,0.0,0.0,0.0,0.0,0.0,0.0,0.0,0.0,0.0,0.0,0.0,0.0,0.0,0.0,0.0,0.0,0.0,0.0,0.0,0.0,0.0,0.0,0.0,0.0,0.0,0.0,0.0,0.0,0.0,0.0,0.0,0.0,0.0,0.0,0.0,0.0,0.0,0.0,0.0,0.0,0.0,0.0,0.0,0.0,0.0,0.0,0.0,0.0,-2.1105,-2.2007,-2.3824,-2.2962,-2.3428,-2.491,-2.2398,-2.0497,-1.9247,-1.9581,0.0,0.0,0.0,0.0,0.0,0.0,0.0,0.0,0.0,0.0,0.0,0.0,0.0,0.0,0.0,0.0,0.0,0.0,0.0,0.0,0.0,0.0,0.0,0.0,0.0,0.0,0.0,0.0,0.0,0.0,0.0,0.0,0.0,0.0,0.0,0.0,0.0,0.0,0.0,0.0,0.0,-1.6602,0.0,0.0,0.0,0.0,0.0,0.0,0.0,0.0,0.0,0.0,0.0,0.0,0.0,0.0,0.0,0.0,0.0,0.0,0.0,0.0,0.0,0.0,0.0,0.0,0.0,0.0,0.0,0.0,0.0,0.0,0.0,0.0,0.0,0.0,0.0,0.0,0.0,0.0,0.0,0.0,0.0,0.0,0.0,0.0,-1.1501,-1.1915,0.0,0.0,0.0,0.0,0.0,0.0,0.0,0.0,0.0,0.0,0.0,0.0,0.0,-1.6625,-1.8159,-1.9289,-2.0616,-2.224,-2.2975,-2.4485,-2.6475,-2.4848,-2.4952,-2.635,-2.6015,0.0,-2.1334,-2.0457,0.0,0.0,0.0,0.0,0.0,0.0,0.0,0.0,0.0,0.0,0.0,0.0,0.0,0.0,0.0,0.0,0.0,0.0,0.0,0.0,0.0,0.0,0.0,0.0,0.0,0.0,0.0,0.0,0.0,0.0,0.0,0.0,0.0,0.0,0.0,0.0,0.0,0.0,0.0,0.0,0.0,0.0,-1.6814,-1.6323,-1.6024,-1.5691,0.0,0.0,0.0,0.0,0.0,0.0,0.0,0.0,0.0,0.0,0.0,0.0,0.0,0.0,0.0,0.0,0.0,0.0,0.0,0.0,0.0,0.0,0.0,0.0,0.0,0.0,0.0,0.0,0.0,0.0,0.0,0.0,0.0,0.0,0.0,0.0,0.0,0.0,0.0,-1.1305,-1.2163,-1.2459,-1.3029,-1.3434,0.0,0.0,0.0,0.0,0.0,0.0,0.0,0.0,0.0,-1.4129,-1.6397,-1.8315,-1.9636,-2.1268,-2.2917,-2.4714,-2.5412,-2.6487,-2.7683,-2.7282,-2.724,-2.76,-2.7629,-2.6702,-2.4976,-2.2586,-2.0456,-1.8571,0.0,0.0,0.0,0.0,-1.8295,-1.8249,0.0,0.0,0.0,0.0,0.0,0.0,0.0,0.0,0.0,0.0,0.0,0.0,0.0,0.0,0.0,-1.5712,0.0,0.0,0.0,0.0,0.0,0.0,0.0,0.0,0.0,0.0,0.0,0.0,0.0,0.0,0.0,0.0,0.0,0.0,0.0,0.0,-1.6763,-1.6169,-1.5828,0.0,0.0,0.0,0.0,0.0,0.0,0.0,0.0,0.0,0.0,0.0,0.0,0.0,0.0,0.0,0.0,0.0,0.0,0.0,0.0,0.0,0.0,0.0,0.0,0.0,0.0,0.0,0.0,0.0,0.0,0.0,0.0,0.0,0.0,0.0,0.0,0.0,0.0,-1.1354,-1.2104,-1.2456,-1.2663,-1.2816,0.0,0.0,0.0,0.0,0.0,0.0,-1.3275,-1.4087,-1.4564,-1.4755,-1.7739,-1.986,-2.123,-2.274,-2.4764,-2.689,-2.7506,-2.818,-2.876,-2.9183,-2.9055,-2.8633,-2.873,-2.8141,-2.6825,-2.4098,-2.1714,-1.9683,-1.8344,-1.7839,-1.7936,-1.824,-1.8406,-1.8503,0.0,0.0,0.0,0.0,0.0,0.0,0.0,0.0,0.0,0.0,0.0,0.0,0.0,0.0,-1.5657,-1.6433,-1.6374,-1.6581,0.0,0.0,0.0,0.0,0.0,0.0,0.0,0.0,0.0,0.0,0.0,0.0,0.0,0.0,0.0,0.0,0.0,0.0,0.0,-1.6924,-1.6427,-1.5714,0.0,0.0,0.0,0.0,0.0,0.0,0.0,0.0,0.0,0.0,0.0,0.0,0.0,0.0,0.0,0.0,0.0,0.0,0.0,0.0,0.0,0.0,0.0,0.0,0.0,0.0,0.0,0.0,0.0,0.0,0.0,0.0,0.0,0.0,0.0,0.0,0.0,0.0,0.0,-1.1299,-1.0889,0.0,0.0,0.0,0.0,-1.1222,-1.1732,-1.2194,-1.2832,-1.4328,-1.5364,-1.5801,-1.871,-2.1028,-2.2739,-2.3542,-2.5361,-2.8218,-2.8828,-2.9361,-2.9944,-2.9662,-2.9512,-2.9531,-2.9922,-2.8302,-2.5343,-2.3966,-2.3029,-2.2322,-2.043,-1.9305,-1.8851,-1.926,-1.9031,-1.837,0.0,0.0,0.0,0.0,0.0,0.0,0.0,0.0,0.0,0.0,0.0,0.0,0.0,-1.6024,-1.6196,-1.6501,-1.6522,-1.677,-1.7124,0.0,0.0,0.0,0.0,0.0,0.0,0.0,0.0,0.0,0.0,0.0,0.0,0.0,0.0,0.0,0.0,0.0,0.0,0.0,-1.7136,-1.6469,-1.6049,-1.5573,0.0,0.0,0.0,0.0,0.0,0.0,0.0,0.0,0.0,0.0,0.0,0.0,0.0,0.0,0.0,0.0,0.0,0.0,0.0,0.0,0.0,0.0,0.0,0.0,0.0,0.0,0.0,0.0,0.0,0.0,0.0,0.0,0.0,0.0,0.0,0.0,0.0,-1.1,-1.1007,0.0,-1.1392,-1.1363,-1.1468,-1.1811,-1.1422,-1.1791,-1.3317,-1.4187,-1.5841,-1.8538,-2.1496,-2.3883,-2.5722,-2.6756,-2.8104,-2.9463,-2.9614,-2.998,-3.0564,-3.043,-3.043,-3.0449,-3.0859,-2.9699,-2.747,-2.6335,-2.3803,-2.0802,-1.9932,-1.9158,-1.8651,-1.8771,-1.8664,-1.849,0.0,0.0,0.0,0.0,0.0,0.0,0.0,0.0,0.0,0.0,0.0,-1.5666,-1.5893,-1.6176,-1.6374,-1.658,-1.6589,-1.681,-1.74,0.0,0.0,0.0,0.0,0.0,0.0,0.0,0.0,0.0,0.0,0.0,0.0,0.0,0.0,0.0,0.0,0.0,0.0,0.0,0.0,-1.7209,-1.6511,-1.6104,-1.5821,0.0,0.0,0.0,0.0,0.0,0.0,0.0,0.0,0.0,0.0,0.0,0.0,0.0,0.0,0.0,0.0,0.0,0.0,0.0,0.0,0.0,0.0,0.0,0.0,0.0,0.0,0.0,0.0,0.0,0.0,0.0,0.0,0.0,0.0,-1.0299,-1.0651,-1.0547,-1.0578,-1.0678,-1.0983,-1.0898,-1.0957,-1.127,-1.1293,-1.2205,-1.4229,-1.5751,-1.7909,-2.1033,-2.4001,-2.6249,-2.7549,-2.8786,-2.9695,-3.043,-3.041,-3.0451,-3.0898,-3.0898,-3.0645,-3.0039,-3.0458,-2.9386,-2.7199,-2.6566,-2.4007,-2.0521,-2.0321,-1.9893,-1.9372,-1.9372,-1.8892,-1.8148,0.0,0.0,0.0,0.0,0.0,0.0,0.0,0.0,0.0,0.0,0.0,-1.5163,-1.5445,-1.5683,-1.6072,-1.666,-1.6433,-1.6883,-1.8163,-1.7419,0.0,0.0,0.0,0.0,0.0,0.0,0.0,0.0,0.0,0.0,0.0,0.0,0.0,0.0,0.0,0.0,0.0,0.0,0.0,0.0,-1.7035,-1.6732,-1.6649,0.0,0.0,0.0,0.0,0.0,0.0,0.0,0.0,0.0,0.0,0.0,0.0,0.0,0.0,0.0,0.0,0.0,0.0,0.0,0.0,0.0,0.0,0.0,0.0,0.0,0.0,0.0,0.0,0.0,0.0,0.0,0.0,0.0,-0.9823,-0.9476,-0.9556,-1.0075,-0.9428,-0.9028,-0.9171,-0.9191,-0.9259,-0.9408,-1.1336,-1.3368,-1.5515,-1.8791,-2.1544,-2.3202,-2.6185,-2.7867,-2.8101,-2.9068,-3.0007,-3.0898,-3.0762,-3.0762,-3.0898,-3.0762,-2.9903,-2.8444,-2.872,-2.7041,-2.4112,-2.4639,-2.3808,-2.2004,-2.1991,-2.1643,-2.1009,-2.0996,-1.9587,-1.72,0.0,0.0,0.0,0.0,0.0,0.0,0.0,0.0,0.0,0.0,-1.4571,-1.5402,-1.5581,-1.5994,-1.6299,-1.6673,-1.6433,-1.6508,-1.7079,0.0,0.0,0.0,0.0,0.0,0.0,0.0,0.0,0.0,0.0,0.0,0.0,0.0,0.0,0.0,0.0,0.0,0.0,0.0,0.0,0.0,0.0,-1.7576,-1.6594,0.0,0.0,0.0,0.0,0.0,0.0,0.0,0.0,0.0,0.0,0.0,0.0,0.0,0.0,0.0,0.0,0.0,0.0,0.0,0.0,0.0,0.0,0.0,0.0,0.0,0.0,0.0,0.0,0.0,0.0,0.0,-0.9585,-0.9477,-0.9429,-0.9719,-0.9898,-0.993,-0.9765,-0.9802,-0.9958,-1.0066,-1.0188,-1.0337,-1.2075,-1.4373,-1.7558,-1.9764,-2.2828,-2.6799,-2.7771,-2.8873,-3.0102,-3.0432,-3.0626,-3.0879,-2.8446,-2.8582,-3.0762,-2.8426,-2.7692,-2.8325,-2.7608,-2.6048,-2.4112,-2.4755,-2.3937,-2.2298,-2.2231,-2.1211,-1.9698,-1.9334,-1.7691,-1.5474,0.0,0.0,0.0,0.0,0.0,0.0,0.0,0.0,0.0,0.0,-1.4642,-1.5492,-1.5535,-1.6021,-1.6339,-1.6513,-1.6562,-1.6662,-1.687,0.0,0.0,0.0,0.0,0.0,0.0,0.0,0.0,0.0,0.0,0.0,0.0,0.0,0.0,0.0,0.0,0.0,0.0,0.0,0.0,0.0,0.0,0.0,-1.7874,-1.7599,-1.7204,-1.6722,-1.6892,-1.6465,-1.5824,-1.6068,0.0,0.0,0.0,0.0,0.0,0.0,0.0,0.0,0.0,0.0,0.0,0.0,0.0,0.0,0.0,0.0,0.0,0.0,0.0,0.0,0.0,0.0,0.0,0.0,-0.9997,-1.0107,-0.9838,-0.9954,-1.0073,-1.0046,-1.0236,-1.0412,-1.0629,-1.0724,-1.1206,-1.1963,-1.3686,-1.6176,-1.9548,-2.1977,-2.4857,-2.8307,-2.9039,-2.9903,-3.0898,-3.0898,-3.0528,-2.9903,-2.8628,-2.8372,-2.8801,-2.728,-2.6554,-2.6382,-2.5923,-2.4604,-2.2794,-2.3679,-2.3189,-2.2084,0.0,0.0,0.0,0.0,-1.5455,-1.3961,0.0,0.0,0.0,0.0,0.0,0.0,0.0,0.0,0.0,0.0,0.0,-1.548,-1.5362,-1.5818,-1.6192,-1.6219,-1.658,-1.6952,0.0,0.0,0.0,0.0,0.0,0.0,0.0,0.0,0.0,0.0,0.0,0.0,0.0,0.0,0.0,0.0,0.0,0.0,0.0,0.0,0.0,0.0,0.0,0.0,-1.947,-1.8824,-1.8554,-1.8423,-1.8292,-1.713,-1.5965,-1.6868,0.0,0.0,0.0,0.0,0.0,0.0,0.0,0.0,0.0,0.0,0.0,0.0,0.0,0.0,0.0,0.0,0.0,0.0,0.0,0.0,0.0,0.0,0.0,0.0,-1.0753,-1.1283,-1.0925,-1.0513,-1.044,-1.0575,-1.0724,-1.09,-1.1165,-1.1192,-1.2007,-1.3916,-1.5672,-1.7973,-2.1212,-2.4607,0.0,0.0,0.0,-3.0898,-3.0898,-3.0937,-3.0097,-2.8498,-2.9628,-2.8751,-2.605,-2.6655,-2.5659,-2.3604,-2.3961,-2.3021,-2.1229,-2.2071,-2.2005,-2.1503,-2.1932,-2.091,-1.8417,-1.4656,-1.307,-1.2604,0.0,0.0,0.0,0.0,0.0,0.0,0.0,0.0,0.0,-1.3612,-1.4753,-1.5315,-1.471,-1.5217,-1.5658,-1.5899,-1.5994,0.0,0.0,0.0,0.0,0.0,0.0,0.0,0.0,0.0,0.0,0.0,0.0,0.0,0.0,0.0,0.0,0.0,0.0,0.0,0.0,0.0,0.0,0.0,0.0,0.0,-1.9381,-1.9273,-1.8969,-1.8414,-1.8171,-1.809,-1.8127,-1.7647,-1.7346,-1.7158,-1.6441,0.0,0.0,0.0,0.0,0.0,0.0,0.0,0.0,0.0,0.0,0.0,0.0,0.0,0.0,0.0,0.0,0.0,0.0,0.0,0.0,-0.8374,-0.9825,-1.1274,-1.1572,-1.2917,-1.3239,-1.1543,-1.1321,-1.128,-1.1341,-1.1348,-1.2175,-1.3964,-1.5744,-1.8204,-2.1359,-2.4604,-2.6962,-2.8307,-3.002,-3.0898,-3.0898,-3.1368,-3.0672,-2.8774,-2.7102,0.0,-2.6274,-2.3583,-2.2856,-2.3604,-2.261,-2.1951,-2.151,-2.2151,-2.1662,-2.0227,-1.8439,-1.6665,-1.4681,-1.2285,-1.1242,-1.108,0.0,0.0,0.0,0.0,0.0,0.0,0.0,0.0,0.0,0.0,-1.5162,-1.5715,-1.4897,-1.5493,-1.5796,-1.554,0.0,0.0,0.0,0.0,0.0,0.0,0.0,0.0,0.0,0.0,0.0,0.0,0.0,0.0,0.0,0.0,0.0,0.0,0.0,0.0,0.0,0.0,0.0,0.0,0.0,0.0,-2.0241,-2.0241,-1.996,-1.9559,-1.9412,-1.879,-1.811,-1.834,-1.7921,-1.7136,-1.6791,-1.6547,-1.6072,0.0,0.0,0.0,0.0,0.0,0.0,0.0,0.0,0.0,0.0,0.0,0.0,0.0,0.0,-1.0222,0.0,0.0,-0.9001,-0.9908,-1.1358,-1.2712,-1.3885,-1.4879,-1.4708,-1.2074,-1.2437,-1.2649,-1.1743,-1.1545,-1.2343,-1.4148,-1.5961,-1.8402,-2.1437,-2.4802,-2.7165,-2.8307,-3.023,-3.1211,-3.1211,-3.1482,-3.0429,-2.7933,-2.5046,-2.3738,-2.3896,-2.1977,-2.1683,-2.2596,-2.2019,-2.1764,-2.179,-2.2084,-2.1187,-1.9492,-1.7357,-1.5405,-1.3712,-1.161,-1.0853,-1.0711,0.0,0.0,0.0,0.0,0.0,0.0,0.0,0.0,0.0,0.0,0.0,-1.5951,-1.5148,-1.5758,-1.6045,0.0,0.0,0.0,0.0,0.0,0.0,0.0,0.0,0.0,0.0,0.0,0.0,0.0,0.0,0.0,0.0,0.0,0.0,0.0,0.0,0.0,0.0,0.0,0.0,0.0,0.0,0.0,-2.2174,-2.2104,-2.1575,-2.0748,-2.0628,-1.9318,-1.7701,-1.901,-1.8186,-1.673,-1.7016,-1.7219,-1.7082,-1.4974,-1.4886,0.0,0.0,0.0,0.0,0.0,0.0,0.0,0.0,0.0,-1.0022,-1.0341,-1.0578,-1.0793,-1.1075,-0.9924,-0.9635,-1.2088,-1.3183,-1.4246,-1.6065,-1.6309,-1.539,-1.2984,-1.3889,-1.4099,-1.201,-1.1742,-1.2352,-1.429,-1.6084,-1.8353,-2.0938,-2.4857,-2.7294,-2.8073,-3.0294,-3.1501,-3.1501,-3.1347,-2.9937,-2.7494,-2.4104,-2.2342,-2.163,-2.1336,-2.1323,-2.1577,-2.1924,-2.2098,-2.2151,-2.2098,-2.1009,-1.9393,-1.7166,-1.5367,-1.3688,-1.1596,-1.0826,-1.0717,0.0,0.0,0.0,0.0,0.0,0.0,0.0,0.0,0.0,0.0,0.0,0.0,0.0,0.0,0.0,0.0,0.0,0.0,0.0,0.0,0.0,0.0,0.0,0.0,0.0,0.0,0.0,0.0,0.0,0.0,0.0,0.0,0.0,0.0,0.0,0.0,0.0,0.0,0.0,0.0,0.0,0.0,-2.5794,-2.5488,-2.3653,-2.0989,-2.0468,-1.9641,-1.8881,-1.9243,-1.8902,-1.8337,-1.8942,-1.8783,-1.8059,-1.6794,0.0,-1.5274,-1.3688,-1.2312,-1.1331,-1.1404,-1.0941,-1.0536,0.0,0.0,-1.0904,-1.0756,-1.1056,-1.1449,-1.1516,-1.2427,-1.326,-1.3739,-1.3798,-1.4376,-1.6295,-1.6299,-1.6048,-1.5596,-1.554,-1.4708,-1.2359,-1.1898,-1.2467,-1.4298,-1.5942,-1.7654,-1.9421,-2.4357,-2.7035,-2.6867,-2.9923,-3.1629,-3.1629,-3.0153,-2.92,-2.8854,-2.6127,-2.3825,-2.1924,-2.163,-2.1523,-2.1577,-2.2138,-2.2525,-2.2739,-2.2485,-2.1416,-1.976,-1.7294,-1.5443,-1.3679,-1.1502,-1.0731,-1.0717,0.0,0.0,0.0,0.0,0.0,0.0,0.0,0.0,0.0,0.0,0.0,0.0,0.0,0.0,0.0,0.0,0.0,0.0,0.0,0.0,0.0,0.0,0.0,0.0,0.0,0.0,0.0,0.0,0.0,0.0,0.0,0.0,0.0,0.0,0.0,0.0,0.0,0.0,0.0,0.0,0.0,0.0,-2.6133,-2.5452,-2.38,-2.1732,-2.1421,-2.006,0.0,0.0,-1.8555,-1.8324,-1.8751,-1.8658,-1.802,-1.6924,-1.6061,0.0,-1.3785,-1.3138,-1.2666,0.0,-1.1973,-1.2214,-1.1076,-1.0998,-1.1256,-1.153,-1.1965,-1.23,-1.2554,-1.3227,-1.3796,0.0,-1.4983,-1.647,-1.8174,-1.9223,-1.9563,-1.887,-1.8694,-1.6934,-1.2515,-1.1769,-1.2251,-1.3999,-1.6656,-1.8898,-2.0555,-2.561,-2.8515,-2.8358,-3.0859,-3.2215,-3.2215,-3.1771,-3.0259,-2.7475,-2.6362,-2.451,-2.2231,-2.1937,-2.1897,-2.2084,-2.2498,-2.2752,-2.2846,-2.2726,-2.1531,-1.9781,-1.7545,-1.5481,-1.3553,-1.1459,-1.0717,-1.0717,0.0,0.0,0.0,0.0,0.0,0.0,0.0,0.0,0.0,0.0,0.0,0.0,0.0,0.0,0.0,0.0,0.0,0.0,0.0,0.0,0.0,0.0,0.0,0.0,0.0,0.0,0.0,0.0,0.0,0.0,0.0,0.0,0.0,0.0,0.0,0.0,0.0,0.0,0.0,0.0,0.0,0.0,-2.7071,-2.6192,-2.44,-2.2358,-2.1814,-1.9804,0.0,0.0,-1.7588,-1.7414,-1.7819,-1.7916,-1.7541,-1.6441,-1.5585,-1.48,-1.4049,-1.3986,0.0,-1.3079,-1.3453,-1.3771,-1.2406,-1.1861,-1.1809,-1.2325,-1.2752,-1.3112,-1.3356,-1.3607,-1.3947,-1.4621,-1.5987,-1.7864,-2.019,-2.0928,-2.1074,-2.0717,-1.9878,-1.7898,-1.3543,-1.2963,-1.3579,-1.5156,-1.7995,-2.0354,-2.2203,-2.664,-2.9421,-2.9723,-3.1751,-3.2805,-3.2805,-3.2682,-3.0876,-2.736,-2.7094,-2.5692,-2.3061,-2.2457,-2.2218,-2.2432,-2.2726,-2.2859,-2.2859,-2.2297,-2.1196,-1.9597,-1.7025,-1.5217,-1.3587,-1.1509,-1.0758,-1.0717,0.0,0.0,0.0,0.0,0.0,0.0,0.0,0.0,0.0,0.0,0.0,0.0,0.0,0.0,0.0,0.0,0.0,0.0,0.0,0.0,0.0,0.0,0.0,0.0,0.0,0.0,0.0,0.0,0.0,0.0,0.0,0.0,0.0,0.0,0.0,0.0,0.0,0.0,0.0,0.0,0.0,0.0,-3.0003,-2.9147,-2.6371,-2.2782,-2.0861,0.0,0.0,0.0,-1.5964,-1.5422,-1.6343,-1.672,0.0,-1.5854,-1.4605,-1.3824,-1.5215,0.0,-1.4981,-1.6876,-1.5763,-1.4388,-1.5377,-1.4235,-1.299,-1.3295,-1.36,-1.3722,-1.3451,-1.3532,-1.4294,-1.6451,-1.6483,-1.7682,-2.1806,-1.9934,-1.8787,-2.0117,-1.8057,-1.6451,-1.5963,-1.6245,-1.7066,-1.8506,-2.0241,-2.1888,-2.3495,-2.6661,-2.8924,-2.9723,-3.2036,-3.3398,-3.3398,-3.1764,-3.052,-2.9819,-2.9108,-2.7366,-2.4892,-2.3195,-2.2405,-2.2432,-2.2726,-2.2859,-2.2722,-2.0894,-2.019,-1.9739,-1.5737,-1.4275,-1.3947,-1.1718,-1.0846,-1.0717,0.0,0.0,0.0,0.0,0.0,0.0,0.0,0.0,0.0,0.0,0.0,0.0,0.0,0.0,0.0,0.0,0.0,0.0,0.0,0.0,0.0,0.0,0.0,0.0,0.0,0.0,0.0,0.0,0.0,0.0,0.0,0.0,0.0,0.0,0.0,0.0,0.0,0.0,0.0,0.0,0.0,0.0,-2.8033,-2.636,-2.3591,-2.05,0.0,0.0,0.0,0.0,0.0,0.0,-1.4961,-1.538,-1.553,-1.4951,-1.4773,-1.5124,-1.618,0.0,-1.8404,-1.887,-1.9133,-1.9064,-1.8749,-1.8032,-1.7512,-1.7736,-1.713,-1.6402,-1.5989,-1.5439,-1.5366,-1.6476,-1.8106,-1.9584,-2.0934,-2.1698,-2.182,-2.0958,-2.0389,-1.9771,-1.8843,-1.8068,-1.8427,-2.0203,-2.2832,-2.503,-2.6706,-2.919,-3.0445,-2.9819,-3.2132,-3.3386,-3.3386,-3.2838,-3.1874,-3.052,-2.9647,-2.7996,-2.5817,-2.514,-2.4088,-2.2712,-2.2819,-2.216,-2.1032,-2.034,-1.855,-1.6044,-1.4727,-1.3319,-1.1891,-1.1118,-1.0853,-1.0717,0.0,0.0,0.0,0.0,0.0,0.0,0.0,0.0,0.0,0.0,0.0,0.0,0.0,0.0,0.0,0.0,0.0,0.0,0.0,0.0,0.0,0.0,0.0,0.0,0.0,0.0,0.0,0.0,0.0,0.0,0.0,0.0,0.0,0.0,0.0,0.0,0.0,0.0,0.0,0.0,0.0,0.0,-2.5321,-2.3665,-2.149,0.0,0.0,0.0,0.0,0.0,0.0,0.0,-1.4178,-1.4389,-1.4666,-1.4867,-1.5267,-1.6114,-1.7628,-1.9496,-2.0965,-2.15,-2.1834,-2.1928,-2.1457,-2.0419,-1.9464,-1.9341,-1.8404,-1.7241,-1.6587,-1.5782,-1.5762,-1.7078,-1.8675,-2.0027,-2.116,-2.246,-2.2766,-2.143,-2.151,-2.1376,-2.0615,-2.0276,-2.0876,-2.2734,-2.5504,-2.7452,-2.8532,-2.919,-2.9545,-2.9648,-3.1322,-3.252,-3.3367,-3.3521,-3.3138,-3.2187,-3.0189,-2.8494,-2.7087,-2.5751,-2.4355,-2.2859,-2.216,-2.1183,-2.0051,-1.8648,-1.6597,-1.4238,-1.3488,-1.2365,-1.1104,-1.1043,-1.0928,-1.0792,0.0,0.0,0.0,0.0,0.0,0.0,0.0,0.0,0.0,0.0,0.0,0.0,0.0,0.0,0.0,0.0,0.0,0.0,0.0,0.0,0.0,0.0,0.0,0.0,0.0,0.0,0.0,0.0,0.0,0.0,0.0,0.0,0.0,0.0,0.0,0.0,0.0,0.0,0.0,0.0,0.0,0.0,-2.2285,-2.1404,0.0,0.0,0.0,0.0,0.0,0.0,0.0,0.0,0.0,-1.4039,-1.4248,-1.57,-1.6198,-1.6856,-1.965,-2.1309,-2.2653,-2.4688,-2.397,-2.304,-2.3363,-2.1446,-1.9115,-1.8279,-1.755,-1.6764,0.0,0.0,-1.5744,-1.8516,-1.8474,-1.9317,-2.2479,-2.2151,-2.1617,0.0,0.0,0.0,0.0,-2.262,-2.4224,-2.5823,-2.7835,-2.9058,-2.913,-2.6885,-2.6771,-2.913,-2.9754,-3.1048,-3.3292,-3.3867,-3.4297,-3.4556,-3.1038,-2.9088,-2.8472,-2.4982,-2.3041,-2.2461,-2.078,-1.9924,-1.9495,-1.5839,-1.429,-1.4131,-1.2158,-1.1396,-1.1369,-1.1226,-1.1077,-1.0928,0.0,0.0,0.0,0.0,0.0,0.0,0.0,0.0,0.0,0.0,0.0,0.0,0.0,0.0,0.0,0.0,0.0,0.0,0.0,0.0,0.0,0.0,0.0,0.0,0.0,0.0,0.0,0.0,0.0,0.0,0.0,0.0,0.0,0.0,0.0,0.0,0.0,0.0,0.0,0.0,0.0,0.0,-2.0506,0.0,0.0,0.0,0.0,0.0,0.0,0.0,0.0,0.0,0.0,-1.5218,-1.553,-1.7137,-1.8211,-1.9385,-2.1359,-2.3047,-2.4499,-2.5545,-2.5528,-2.5192,-2.5335,-2.3819,-2.2435,-2.2019,-2.0168,-1.8449,0.0,0.0,0.0,-1.9136,-1.9903,0.0,-2.2337,-2.2726,0.0,-2.1657,0.0,-2.1911,-2.1483,-2.315,-2.4524,-2.5153,-2.64,-2.8462,-3.1503,-2.9462,-2.8707,-2.9639,-3.1121,-3.1761,-3.1469,-3.3493,-3.3915,-3.2666,-3.2301,-2.9798,-2.5215,-2.4249,-2.2007,-1.891,-1.8343,-1.7258,-1.5839,-1.4849,-1.3587,-1.2323,-1.1715,-1.147,-1.1194,-1.1335,-1.1047,-1.0717,0.0,0.0,0.0,0.0,0.0,0.0,0.0,0.0,0.0,0.0,0.0,0.0,0.0,0.0,0.0,0.0,0.0,0.0,0.0,0.0,0.0,0.0,0.0,0.0,0.0,0.0,0.0,0.0,0.0,0.0,0.0,0.0,0.0,0.0,0.0,0.0,0.0,0.0,0.0,0.0,0.0,0.0,0.0,0.0,0.0,0.0,0.0,0.0,0.0,0.0,0.0,-1.539,-1.6369,-1.6719,-1.7227,-1.9141,0.0,-2.1292,-2.324,-2.4596,-2.5611,-2.6186,-2.6052,-2.5692,-2.5285,-2.4063,-2.2701,-2.1757,-2.0073,0.0,-1.8009,-1.7625,0.0,0.0,0.0,0.0,-2.1832,-2.2338,-2.2392,0.0,-2.2338,0.0,-2.2164,-2.3181,-2.4011,-2.4337,-2.6106,-2.8084,-3.0467,-2.902,-2.8689,-2.9839,-3.0864,-3.1212,-3.0789,-3.1665,-3.1166,-2.9523,-2.9401,-2.7078,-2.2702,-2.1898,-1.9994,-1.7428,-1.6577,-1.5605,-1.429,-1.3444,-1.261,-1.1613,-1.1545,-1.1409,-1.126,-1.1355,-1.1034,-1.0766,0.0,0.0,0.0,0.0,0.0,0.0,0.0,0.0,0.0,0.0,0.0,0.0,0.0,0.0,0.0,0.0,0.0,0.0,0.0,0.0,0.0,0.0,0.0,0.0,0.0,0.0,0.0,0.0,0.0,0.0,0.0,0.0,0.0,0.0,0.0,0.0,0.0,0.0,0.0,0.0,0.0,0.0,0.0,0.0,0.0,0.0,0.0,0.0,0.0,0.0,-1.7014,-1.678,-1.7956,-1.863,-1.9387,-2.1248,-2.2163,-2.2936,-2.498,-2.5838,-2.6226,-2.6653,-2.6106,-2.5113,-2.4261,-2.2802,-2.124,-1.937,0.0,-1.7769,-1.6718,-1.711,-1.7633,-1.8339,0.0,-1.9944,-2.1537,-2.167,-2.1884,-2.2472,-2.2726,-2.2899,-2.2979,-2.3193,-2.3447,-2.3754,-2.6117,-2.7499,-2.7716,-2.7328,-2.793,-2.9837,-2.9707,-2.9725,-3.0001,-2.9393,-2.8011,-2.5982,-2.4966,-2.3041,-2.0452,-1.869,-1.7487,-1.676,-1.5044,-1.4203,-1.3872,-1.2323,-1.1619,-1.1606,-1.147,-1.1321,-1.1199,-1.1341,-1.1104,-1.0758,0.0,0.0,0.0,0.0,0.0,0.0,0.0,0.0,0.0,0.0,-1.7546,-1.8237,0.0,0.0,0.0,0.0,0.0,0.0,0.0,0.0,0.0,0.0,0.0,0.0,0.0,0.0,0.0,0.0,0.0,0.0,0.0,0.0,0.0,0.0,0.0,0.0,0.0,0.0,0.0,0.0,0.0,0.0,0.0,0.0,0.0,0.0,0.0,0.0,0.0,0.0,-1.7835,-1.8317,-1.9479,-2.0504,-2.1593,-2.2726,-2.3678,-2.4714,-2.5665,-2.6453,-2.6947,-2.656,-2.5798,-2.481,-2.3051,-2.1464,0.0,0.0,-1.7241,-1.6634,-1.639,-1.6829,-1.7665,-1.8881,0.0,0.0,0.0,0.0,-2.2485,0.0,-2.2993,-2.306,-2.3567,-2.3434,-2.3447,-2.3754,-2.4227,-2.5,-2.6209,-2.6709,-2.789,-2.9889,-2.9031,-2.754,-2.572,-2.8853,-2.8225,-2.3812,-2.4429,-2.206,-1.7226,-1.6897,-1.5345,-1.3045,-1.2755,-1.2304,-1.2043,-1.1763,-1.1619,-1.1613,-1.1592,-1.1463,-1.1161,-1.1369,-1.1104,-1.0744,0.0,0.0,0.0,0.0,0.0,0.0,0.0,-1.6634,-1.6776,-1.6907,-1.7676,-1.8089,-1.7838,-1.8092,-1.8303,0.0,0.0,0.0,0.0,0.0,0.0,0.0,0.0,0.0,0.0,0.0,0.0,-1.762,0.0,0.0,0.0,-1.8303,0.0,0.0,0.0,0.0,0.0,0.0,0.0,0.0,0.0,0.0,0.0,0.0,0.0,0.0,0.0,0.0,0.0,0.0,-1.8171,-1.9172,-2.0267,-2.139,-2.2298,-2.2726,-2.3915,-2.517,-2.5611,-2.6373,-2.6961,-2.668,-2.5491,-2.3904,-2.2167,0.0,0.0,0.0,-1.6584,-1.633,-1.594,0.0,0.0,0.0,0.0,0.0,0.0,0.0,0.0,-2.3193,-2.3327,-2.3447,-2.3741,-2.3915,-2.3941,-2.3781,-2.3915,-2.479,-2.639,-2.6645,-2.6542,-2.6221,-2.5525,-2.5263,-2.5576,-2.4943,-2.21,-1.7048,-1.7834,-1.619,-1.239,-1.3745,-1.3546,-1.2182,-1.2182,-1.2013,-1.1728,-1.1728,-1.1687,-1.1619,-1.1619,-1.1511,-1.1355,-1.1382,-1.1158,-1.0853,0.0,0.0,0.0,0.0,0.0,0.0,0.0,-1.6701,-1.6946,-1.7338,-1.7726,-1.7828,-1.736,-1.7604,-1.7839,0.0,0.0,0.0,0.0,0.0,0.0,0.0,0.0,0.0,0.0,0.0,0.0,-1.7235,-1.7713,0.0,0.0,0.0,0.0,0.0,-1.833,-1.8219,0.0,0.0,0.0,0.0,0.0,0.0,0.0,0.0,0.0,0.0,0.0,0.0,0.0,0.0,-1.8099,-1.9125,-2.0267,-2.1397,-2.2391,-2.2512,-2.3776,-2.5241,-2.5571,-2.6293,-2.6867,-2.668,-2.5144,-2.3187,-2.1211,-1.9503,0.0,0.0,-1.628,-1.6522,-1.5669,0.0,-1.7469,0.0,0.0,0.0,0.0,0.0,0.0,0.0,-2.3991,0.0,-2.3941,-2.4593,-2.4752,-2.3808,-2.3861,-2.4607,-2.616,-2.5876,-2.4775,-2.2924,-2.2271,-2.2712,-2.444,-1.9866,-1.5172,-1.0744,-1.1811,-1.1323,-0.954,-1.1504,-1.2461,-1.2291,-1.2733,-1.2721,-1.2457,-1.2422,-1.2627,-1.2798,-1.2338,-1.2087,-1.1938,-1.1909,-1.1448,-1.0941,0.0,0.0,0.0,0.0,0.0,0.0,0.0,-1.6645,-1.6711,-1.6918,-1.7432,-1.77,-1.7493,-1.77,-1.7657,0.0,0.0,0.0,0.0,0.0,0.0,0.0,0.0,0.0,0.0,0.0,0.0,-1.7461,-1.7499,0.0,0.0,0.0,0.0,0.0,0.0,-1.7743,-1.757,0.0,0.0,0.0,0.0,0.0,0.0,0.0,0.0,0.0,0.0,0.0,0.0,0.0,0.0,-1.7701,-1.8669,-2.0552,-2.2517,-2.2924,0.0,0.0,-2.6168,-2.676,-2.7028,-2.6239,-2.469,-2.2775,-2.0425,0.0,0.0,-1.6235,-1.6369,-1.6566,-1.601,-1.6821,-1.7529,0.0,0.0,-1.9435,0.0,0.0,0.0,0.0,0.0,0.0,-2.4649,-2.5897,-2.5912,-2.3937,-2.3287,-2.3225,-2.3759,-2.3433,-2.3092,-2.2929,-2.1368,-1.9815,-1.8275,-1.412,-1.0896,-0.8407,-1.1112,-1.2324,-1.2134,-1.2437,-1.2427,-1.2443,-1.4223,-1.5002,-1.4809,-1.4633,-1.5561,-1.6959,-1.4927,-1.4032,-1.3997,-1.383,-1.2573,-1.1063,0.0,0.0,0.0,0.0,0.0,0.0,-1.6889,-1.6845,-1.6901,-1.7344,-1.7485,-1.7569,-1.7649,-1.7367,-1.7153,-1.717,0.0,0.0,0.0,0.0,0.0,0.0,0.0,0.0,0.0,0.0,-1.7324,-1.7469,-1.7469,0.0,0.0,0.0,0.0,0.0,0.0,-1.7796,-1.7876,-1.7553,0.0,0.0,0.0,0.0,0.0,0.0,0.0,0.0,0.0,0.0,0.0,0.0,0.0,0.0,-1.8123,-1.9325,0.0,0.0,-2.2605,-2.4602,-2.4761,-2.6934,-2.8891,-2.762,-2.6056,-2.4173,-2.2082,0.0,0.0,-1.6547,-1.6839,-1.7082,-1.656,-1.6782,-1.6987,-1.6675,0.0,0.0,0.0,0.0,0.0,0.0,-2.5026,0.0,-2.5698,-2.6717,-2.6459,-2.4192,-2.3474,-2.3193,-2.3327,-2.3033,-2.2859,-2.2859,-2.0157,-1.8,-1.6558,-1.3454,-1.0157,-0.6957,-1.0687,-1.2507,-1.2481,-1.246,-1.3148,-1.4228,-1.5126,-1.6064,-1.7054,-1.6844,-1.7126,-1.7561,-1.649,-1.6075,-1.5961,-1.563,-1.5137,-1.4565,0.0,0.0,0.0,0.0,0.0,-1.635,-1.685,-1.6833,-1.6911,-1.7376,-1.7398,-1.7465,-1.7627,-1.7233,-1.6954,-1.6934,-1.705,0.0,0.0,0.0,0.0,0.0,0.0,0.0,0.0,0.0,-1.7099,-1.7533,-1.7533,-1.7533,0.0,0.0,-1.7766,-1.7388,0.0,0.0,0.0,0.0,0.0,0.0,0.0,0.0,0.0,0.0,0.0,0.0,0.0,0.0,0.0,0.0,0.0,0.0,0.0,0.0,0.0,0.0,-2.1246,-2.3426,-2.3676,-2.6503,-2.9396,-2.8223,-2.6647,-2.4838,0.0,0.0,0.0,-1.7049,-1.7245,-1.7483,-1.7041,-1.7029,-1.6842,0.0,0.0,-1.6838,-1.7725,0.0,0.0,0.0,0.0,-2.5468,-2.5842,-2.6328,-2.5852,-2.438,-2.3741,-2.346,-2.346,-2.3247,-2.3086,-2.3006,-1.948,-1.7329,-1.6594,-1.3732,-1.0827,-0.818,-1.1077,-1.2549,-1.2535,-1.312,-1.4176,-1.554,-1.6751,-1.802,-1.9202,-1.8895,-1.9116,-1.9382,-1.8498,-1.8089,-1.8036,-1.7569,-1.7141,-1.6833,0.0,0.0,0.0,0.0,0.0,0.0,-1.6285,-1.6305,-1.6442,-1.6884,-1.7169,-1.74,-1.74,-1.7383,-1.7073,-1.6317,-1.6121,0.0,0.0,0.0,0.0,0.0,0.0,0.0,0.0,0.0,-1.7261,-1.7521,-1.7521,-1.7521,-1.7521,-1.7911,-1.7705,-1.7093,0.0,0.0,0.0,0.0,0.0,0.0,0.0,0.0,0.0,0.0,0.0,0.0,0.0,0.0,0.0,0.0,0.0,0.0,0.0,0.0,0.0,0.0,-2.0574,-2.2009,-2.328,-2.5491,-2.74,-2.7326,-2.5771,-2.4024,0.0,0.0,0.0,-1.7442,-1.7521,-1.7392,-1.7279,-1.7595,-1.749,-1.6099,-1.7073,0.0,-1.8486,0.0,0.0,0.0,0.0,-2.523,-2.4876,-2.4467,-2.4367,-2.4539,-2.4098,-2.3768,-2.3768,-2.3768,-2.3621,-2.3327,-1.9904,-1.808,-1.808,-1.4428,-1.2535,-1.2501,-1.2535,-1.2535,-1.2501,-1.4629,-1.554,-1.5693,-1.9779,-2.1601,-2.1554,-2.1038,-2.1988,-2.3559,-2.0974,-2.0063,-1.9992,-1.961,-1.8215,-1.6813,0.0,0.0,0.0,0.0,0.0,0.0,0.0,-1.5939,-1.5912,-1.6272,-1.6474,-1.6621,-1.6781,-1.6847,-1.675,-1.6397,-1.6268,0.0,0.0,0.0,0.0,0.0,0.0,0.0,0.0,0.0,-1.657,-1.707,-1.7252,-1.739,-1.7527,-1.7751,-1.7501,-1.6994,-1.6944,-1.6891,0.0,0.0,0.0,0.0,0.0,0.0,-1.5423,0.0,0.0,0.0,0.0,0.0,0.0,0.0,0.0,0.0,0.0,0.0,0.0,0.0,0.0,0.0,-2.1495,-2.4161,-2.6408,-2.5533,-2.4452,-2.3311,-2.214,0.0,0.0,0.0,-1.7796,-1.7789,-1.7468,-1.7462,-1.7173,-1.6324,-1.6505,0.0,0.0,0.0,0.0,-2.223,-2.4615,-2.6314,-2.6848,-2.5347,-2.4502,-2.4663,-2.4235,-2.4062,-2.4062,-2.4062,-2.3928,-2.3647,-2.1486,-2.0173,-2.0173,-1.7869,-1.6617,-1.6599,-1.6617,-1.6617,-1.6751,-1.736,-1.8421,-1.9779,-2.0991,-2.225,-2.3413,-2.304,-2.3067,-2.342,-2.2454,-2.1893,-2.1675,-2.1314,-2.0813,-2.0256,0.0,0.0,0.0,0.0,0.0,0.0,0.0,-1.5536,-1.5476,-1.5702,-1.587,-1.6094,-1.6172,-1.6285,-1.6301,-1.6301,-1.6173,0.0,0.0,0.0,0.0,0.0,0.0,0.0,-1.607,-1.6138,-1.6513,-1.7113,-1.7192,-1.7372,-1.7451,-1.759,-1.7456,-1.6957,-1.6884,-1.6905,0.0,0.0,0.0,0.0,0.0,0.0,-1.5673,0.0,0.0,0.0,0.0,0.0,0.0,0.0,0.0,0.0,0.0,0.0,0.0,0.0,-1.8597,0.0,0.0,-2.2777,-2.4842,-2.4347,-2.3487,0.0,0.0,0.0,0.0,0.0,0.0,0.0,0.0,0.0,-1.6961,-1.6217,0.0,0.0,0.0,0.0,0.0,-2.1569,-2.4276,-2.6018,-2.6402,-2.5347,-2.4636,-2.4636,-2.4476,-2.4369,-2.4369,-2.4369,-2.4289,-2.4102,-2.2325,-2.1355,-2.1355,-1.9554,-1.8572,-1.8572,-1.8572,-1.8572,-1.8572,-1.9327,-2.0336,-2.146,-2.2202,-2.3108,0.0,-2.3728,-2.3487,-2.33,-2.2979,-2.2752,-2.2539,-2.2138,-2.1937,-2.1948,0.0,0.0,0.0,0.0,0.0,0.0,0.0,-1.5081,-1.5216,-1.5141,-1.5427,-1.571,-1.565,-1.5666,-1.5731,-1.592,0.0,0.0,0.0,0.0,0.0,0.0,0.0,0.0,-1.6442,-1.6428,-1.6781,-1.735,-1.7383,-1.74,-1.74,-1.7627,-1.7465,-1.7123,-1.6957,-1.699,0.0,0.0,0.0,0.0,0.0,0.0,0.0,0.0,0.0,0.0,0.0,0.0,0.0,0.0,0.0,0.0,0.0,0.0,0.0,0.0,0.0,0.0,0.0,0.0,0.0,0.0,0.0,0.0,0.0,0.0,0.0,0.0,0.0,0.0,0.0,0.0,0.0,0.0,0.0,0.0,0.0,-1.8236,0.0,0.0,-2.3301,-2.451,-2.4164,-2.4404,-2.4636,-2.4636,-2.4636,-2.4636,-2.4636,-2.4636,-2.4636,-2.4636,-2.2794,-2.1739,-2.1751,-1.9919,-1.9005,-1.9005,-1.8984,-1.8974,-1.8974,-2.0934,-2.1562,-2.1483,-2.343,-2.4008,-2.3714,-2.3447,-2.3313,-2.326,-2.2979,-2.2846,-2.2766,-2.2191,-2.2002,-2.193,0.0,0.0,0.0,0.0,0.0,0.0,0.0,0.0,0.0,0.0,-1.5299,-1.5509,-1.53,-1.5691,-1.5944,0.0,0.0,0.0,0.0,0.0,0.0,0.0,0.0,0.0,-1.5713,-1.6092,-1.6492,-1.6954,-1.709,-1.7302,-1.7627,-1.7546,-1.7465,-1.7529,-1.7203,-1.6895,0.0,0.0,0.0,0.0,0.0,0.0,0.0,0.0,0.0,0.0,-1.6237,-1.6407,0.0,0.0,0.0,0.0,0.0,0.0,0.0,0.0,-1.7764,-1.7882,-1.8731,0.0,-1.9255,-1.9335,-1.9,-1.867,0.0,0.0,0.0,0.0,0.0,0.0,0.0,0.0,0.0,0.0,0.0,0.0,-1.8008,0.0,0.0,-2.1809,-2.3338,-2.4188,-2.3827,-2.4286,-2.4636,-2.4636,-2.4636,-2.4636,-2.4636,-2.4636,-2.4636,-2.4636,-2.397,-2.3663,-2.387,-2.3209,-2.2949,-2.2949,-2.2734,-2.2645,-2.2645,-2.3091,-2.3196,-2.3275,-2.3718,-2.3701,-2.342,-2.3354,-2.3193,-2.2966,-2.2886,-2.2726,-2.2485,-2.2124,-2.2002,-2.193,0.0,0.0,0.0,0.0,0.0,0.0,0.0,0.0,0.0,0.0,0.0,0.0,0.0,0.0,0.0,0.0,0.0,0.0,0.0,0.0,0.0,0.0,0.0,-1.5742,-1.5787,-1.6094,-1.6445,-1.6926,-1.7204,-1.7549,-1.796,-1.796,-1.8044,-1.8196,-1.7614,-1.6956,0.0,0.0,0.0,0.0,-1.6252,0.0,0.0,0.0,0.0,0.0,-1.6319,-1.6552,0.0,-1.7017,-1.7383,-1.7799,0.0,0.0,0.0,0.0,-1.7991,-1.8097,-1.8686,-1.8464,-1.8213,-1.8425,-1.8112,-1.7799,0.0,0.0,0.0,0.0,0.0,0.0,0.0,0.0,0.0,0.0,-1.836,0.0,0.0,0.0,-2.1397,-2.1957,-2.3073,-2.3981,-2.4098,-2.4369,-2.4636,-2.4636,-2.4636,-2.4636,-2.4636,-2.4636,-2.4636,-2.4636,-2.4356,-2.4275,-2.4436,-2.4155,-2.4008,-2.3995,-2.3848,-2.3768,-2.3768,-2.3768,-2.3701,-2.3567,-2.3567,-2.3394,-2.3113,-2.3113,-2.302,-2.2859,-2.2859,-2.2766,-2.2579,-2.2298,-2.2124,-2.2109,0.0,0.0,0.0,0.0,0.0,0.0,0.0,0.0,0.0,0.0,0.0,0.0,0.0,0.0,0.0,0.0,0.0,0.0,0.0,0.0,0.0,0.0,-1.5996,-1.603,-1.6206,-1.6349,-1.6702,-1.722,-1.753,-1.7961,-1.8448,-1.8682,-1.8819,-1.8803,-1.7976,-1.7231,0.0,0.0,-1.6319,-1.5891,-1.6484,0.0,0.0,0.0,0.0,0.0,0.0,0.0,0.0,-1.7131,-1.7397,-1.7825,-1.798,0.0,0.0,0.0,0.0,0.0,-1.8923,-1.8813,-1.8548,-1.895,-1.8544,-1.8075,0.0,0.0,0.0,0.0,0.0,0.0,0.0,0.0,0.0,0.0,0.0,0.0,-1.9902,-2.0819,-2.1563,-2.2203,-2.3014,-2.3891,-2.4302,-2.4435,-2.4623,-2.4422,-2.4609,-2.4596,-2.4516,-2.4596,-2.4596,-2.4502,-2.4262,-2.4115,-2.4062,-2.3821,-2.3701,-2.3701,-2.3661,-2.3634,-2.3634,-2.3634,-2.35,-2.326,-2.326,-2.31,-2.2859,-2.2859,-2.2859,-2.2859,-2.2859,-2.2859,-2.2819,-2.2525,-2.2445,-2.2405,0.0,0.0,0.0,0.0,0.0,0.0,0.0,0.0,0.0,0.0,0.0,0.0,0.0,0.0,0.0,0.0,0.0,0.0,0.0,0.0,0.0,-1.6571,-1.6815,-1.6782,-1.646,-1.6992,-1.7401,-1.7846,-1.8062,-1.8515,-1.9093,-1.9349,-1.9193,-1.8665,-1.8112,-1.7481,-1.6648,-1.6648,-1.6566,-1.6319,-1.6812,0.0,0.0,0.0,0.0,0.0,0.0,0.0,0.0,-1.7147,-1.7308,-1.7644,-1.7502,0.0,0.0,0.0,0.0,0.0,-1.914,-1.9361,-1.9284,-1.8819,-1.8753,-1.8844,0.0,0.0,0.0,0.0,0.0,0.0,0.0,0.0,0.0,0.0,0.0,-2.0653,-2.2185,-2.2576,-2.2768,-2.3147,-2.3924,-2.417,-2.3288,-2.4024,-2.4382,-2.3958,-2.4342,-2.4422,-2.3928,-2.4369,-2.4409,-2.3915,-2.3861,-2.3714,-2.346,-2.342,-2.3394,-2.3394,-2.3126,-2.3006,-2.3006,-2.3006,-2.2979,-2.2939,-2.2939,-2.2899,-2.2859,-2.2859,-2.2859,-2.2859,-2.2859,-2.2859,-2.2819,-2.2525,-2.2579,-2.2712,0.0,0.0,0.0,0.0,0.0,0.0,0.0,0.0,0.0,0.0,0.0,0.0,0.0,0.0,0.0,0.0,0.0,0.0,0.0,0.0,-1.6812,-1.673,-1.6976,-1.6976,-1.6814,-1.7253,-1.7763,-1.833,-1.8837,-1.9471,-2.0077,-2.0095,-1.9589,-1.878,-1.8263,-1.7564,-1.673,-1.673,-1.6484,-1.6319,0.0,0.0,0.0,0.0,0.0,0.0,0.0,0.0,0.0,0.0,-1.7332,-1.7794,-1.7675,0.0,0.0,0.0,0.0,0.0,-1.9443,-1.9834,-1.9868,-1.933,-1.9421,-1.9643,-1.9471,0.0,0.0,0.0,0.0,0.0,0.0,0.0,-1.9828,-1.9846,0.0,-2.185,-2.2421,-2.2619,-2.2752,-2.3225,-2.3883,-2.4024,-2.3892,-2.4316,-2.4516,-2.4063,-2.417,-2.4222,-2.3794,-2.4022,-2.4048,-2.3781,-2.3621,-2.346,-2.3327,-2.3153,-2.3073,-2.3073,-2.2926,-2.2859,-2.2859,-2.2859,-2.2859,-2.2859,-2.2699,-2.2712,-2.2846,-2.2686,-2.2712,-2.2859,-2.2859,-2.2859,-2.2846,-2.2712,-2.2645,-2.2565,0.0,0.0,0.0,0.0,0.0,0.0,0.0,0.0,0.0,0.0,0.0,0.0,0.0,0.0,0.0,0.0,0.0,0.0,0.0,0.0,-1.673,-1.673,-1.6976,-1.7172,-1.7335,-1.7613,-1.8145,-1.899,-1.9747,-2.043,-2.1049,-2.0712,-1.9989,-1.9002,-1.8297,-1.7631,-1.6894,-1.6894,-1.673,-1.65,0.0,0.0,0.0,0.0,0.0,0.0,0.0,0.0,0.0,0.0,0.0,0.0,0.0,0.0,0.0,-1.8365,-1.8566,-1.8845,-1.9555,-2.0032,-2.0194,-1.9894,0.0,-1.9998,-2.0074,0.0,0.0,0.0,0.0,0.0,0.0,-1.9843,0.0,-2.1656,-2.2337,-2.2722,-2.2606,-2.2699,-2.3033,-2.3567,-2.3834,-2.4115,-2.4489,-2.4529,-2.4236,-2.3864,-2.4062,-2.3941,-2.3581,-2.3688,-2.3701,-2.3567,-2.3407,-2.326,-2.3113,-2.2873,-2.2752,-2.2752,-2.2832,-2.2792,-2.2659,-2.2726,-2.2726,-2.2645,-2.2418,-2.2445,-2.2645,-2.2485,-2.2552,-2.2766,-2.2832,-2.2859,-2.2859,-2.2859,-2.2672,-2.2392,0.0,0.0,0.0,0.0,0.0,0.0,0.0,0.0,0.0,0.0,0.0,0.0,0.0,0.0,0.0,0.0,0.0,0.0,0.0,0.0,-1.6976,-1.673,-1.7139,-1.7549,-1.7962,-1.8163,-1.887,-2.0172,-2.0764,-2.1338,-2.1879,-2.0962,-2.0043,-1.911,-1.833,-1.7879,-1.761,-1.7465,-1.7465,-1.761,-1.8112,0.0,0.0,0.0,0.0,0.0,0.0,0.0,0.0,0.0,0.0,0.0,0.0,0.0,-1.7962,-1.838,-1.8674,-1.8925,-1.9396,-1.9735,-2.0054,-2.0197,-1.9983,0.0,-1.9773,-1.9528,0.0,-2.0415,0.0,0.0,0.0,-1.885,-1.9829,-2.209,-2.2517,-2.2779,-2.3888,-2.4062,-2.4195,-2.4502,-2.4556,-2.4476,-2.409,-2.4063,-2.3681,-2.3113,-2.3492,-2.3541,-2.2966,-2.346,-2.3514,-2.2939,-2.3193,-2.306,-2.2485,-2.2458,-2.2458,-2.2458,-2.2726,-2.2579,-2.2058,-2.2325,-2.2298,-2.2044,-2.2031,-2.2031,-2.2071,-2.2311,-2.2432,-2.2472,-2.2752,-2.2859,-2.2859,-2.2859,-2.2672,-2.2418,0.0,0.0,0.0,0.0,0.0,0.0,0.0,0.0,0.0,0.0,0.0,0.0,0.0,0.0,0.0,0.0,0.0,0.0,0.0,-1.709,-1.7122,-1.6814,-1.7187,-1.7531,-1.7828,-1.8381,-1.9195,-2.0394,-2.0998,-2.1374,-2.159,-2.0447,-1.9643,-1.9144,-1.8362,-1.7924,-1.7708,-1.8026,-1.8074,-1.7968,-1.8551,-1.8661,0.0,0.0,0.0,0.0,0.0,0.0,0.0,0.0,-1.804,-1.793,0.0,0.0,-1.8394,-1.8796,-1.8643,-1.8613,-1.9492,-1.9465,-1.9184,-1.9346,0.0,0.0,0.0,0.0,0.0,-2.1408,-2.1625,0.0,0.0,0.0,-2.0738,-2.2032,-2.2768,-2.3541,-2.4356,-2.4476,-2.4449,-2.4382,-2.4369,-2.4249,-2.3955,-2.3928,-2.3532,-2.2935,-2.314,-2.2939,-2.2352,-2.2539,-2.2552,-2.2325,-2.2432,-2.2378,-2.2151,-2.2151,-2.2058,-2.1884,-2.2178,-2.2205,-2.1991,-2.2098,-2.2084,-2.1977,-2.179,-2.1817,-2.1977,-2.1911,-2.2098,-2.2445,-2.2752,-2.2859,-2.2859,-2.2859,-2.2792,-2.2645,0.0,0.0,0.0,0.0,0.0,0.0,0.0,0.0,0.0,0.0,0.0,0.0,0.0,0.0,0.0,0.0,0.0,0.0,-1.7004,-1.7332,-1.7349,-1.702,-1.7332,-1.7677,-1.7876,-1.8465,-1.9299,-2.0448,-2.0891,-2.1141,-2.1016,-1.9868,-1.916,-1.8888,-1.836,-1.8138,-1.8155,-1.8614,-1.8714,-1.8754,-1.9099,-1.9141,0.0,0.0,0.0,0.0,0.0,0.0,0.0,0.0,0.0,0.0,0.0,0.0,0.0,0.0,-1.897,-1.8783,-1.9346,-1.9155,-1.8795,0.0,0.0,0.0,0.0,0.0,0.0,-2.2184,-2.2011,-2.1718,-2.1334,0.0,-2.1276,-2.2376,-2.3252,-2.3968,-2.4556,-2.4556,-2.4422,-2.4222,-2.4115,-2.3941,-2.3661,-2.3386,-2.3121,-2.2766,-2.2632,-2.2405,-2.2004,-2.1991,-2.1991,-2.1991,-2.1991,-2.1937,-2.1844,-2.1844,-2.1697,-2.1416,-2.1617,-2.171,-2.171,-2.1804,-2.1804,-2.1697,-2.1496,-2.1523,-2.1697,-2.1058,-2.0819,-2.0786,-2.0972,-2.1383,-2.2009,-2.1919,-2.2167,-2.2781,0.0,0.0,0.0,0.0,0.0,0.0,0.0,0.0,0.0,0.0,0.0,0.0,0.0,0.0,0.0,0.0,0.0,0.0,-1.7383,-1.761,-1.761,-1.7383,-1.7789,-1.8121,-1.8263,-1.8513,-1.9144,-2.0275,-2.0546,-2.0445,-2.0079,-1.9312,-1.878,-1.828,-1.828,-1.853,-1.8981,-1.9177,-1.9589,-2.0201,-1.9947,-1.9698,-1.9624,0.0,0.0,0.0,0.0,0.0,0.0,0.0,0.0,0.0,0.0,0.0,0.0,0.0,-1.9776,-1.9665,-1.8799,-1.8925,0.0,0.0,0.0,0.0,0.0,0.0,0.0,-2.265,-2.156,-2.0753,-2.2271,-2.1327,-2.1064,-2.3509,-2.3787,-2.3968,-2.4543,-2.4382,-2.4195,-2.4195,-2.3771,-2.3479,-2.334,-2.2717,-2.2277,-2.2432,-2.2151,-2.1977,-2.1977,-2.1977,-2.1977,-2.1977,-2.1977,-2.1844,-2.155,-2.155,-2.1403,-2.1109,-2.1109,-2.1109,-2.1122,-2.1416,-2.139,-2.1109,-2.1109,-2.1109,-2.0996,-1.9573,-1.825,-1.7042,-1.7052,-1.8291,-2.0016,-1.9769,-2.0761,-2.2633,0.0,0.0,0.0,0.0,0.0,0.0,0.0,0.0,0.0,0.0,0.0,0.0,0.0,0.0,0.0,0.0,0.0,0.0,-1.7063,-1.7501,-1.7596,-1.7244,-1.7657,-1.7864,-1.7985,-1.865,-1.9225,-1.9748,-1.9835,-1.9783,-1.9661,-1.9005,-1.8901,-1.9143,-1.8772,-1.9088,-1.9853,-1.9924,-2.0098,-2.0437,-2.0352,-2.0196,-2.0021,0.0,0.0,0.0,0.0,0.0,0.0,0.0,0.0,0.0,0.0,0.0,0.0,-1.9928,-1.9434,-1.8706,-1.9034,-1.832,0.0,0.0,0.0,0.0,0.0,0.0,0.0,0.0,-2.1888,-2.1061,-2.1823,-2.1747,-2.1773,-2.2416,-2.3063,-2.3594,-2.3981,-2.3955,-2.3821,-2.3762,-2.3514,-2.3107,-2.2589,-2.2457,-2.2191,-2.1844,-2.1724,-2.159,-2.1376,-2.1363,-2.1363,-2.1363,-2.1363,-2.1323,-2.1243,-2.1243,-2.1203,-2.1109,-2.1109,-2.1109,-2.1109,-2.1203,-2.1189,-2.1109,-2.1109,-2.1109,-2.0996,-1.9573,-1.8049,-1.6748,-1.8292,-1.9186,-1.9792,-2.1141,-2.2525,-2.3869,0.0,0.0,0.0,0.0,0.0,0.0,0.0,0.0,0.0,0.0,0.0,0.0,0.0,0.0,0.0,0.0,0.0,0.0,0.0,-1.7501,-1.7768,-1.76,-1.7751,-1.7865,-1.8022,-1.8458,-1.8806,-1.9051,-1.9106,-1.9022,-1.8866,-1.8714,-1.8884,-1.9277,-1.9371,-1.9728,-2.0183,-2.0177,-2.0352,-2.0759,-2.0332,-2.0332,-2.0436,0.0,0.0,0.0,0.0,0.0,0.0,0.0,0.0,0.0,0.0,0.0,0.0,-2.0514,-1.969,-1.8719,-1.9,0.0,0.0,0.0,0.0,0.0,0.0,0.0,0.0,0.0,-2.2263,-2.1652,-2.2024,-2.1948,-2.1924,-2.2271,-2.2899,-2.3434,-2.3728,-2.3567,-2.3354,-2.3319,-2.2939,-2.2645,-2.2271,-2.2138,-2.1924,-2.1577,-2.1443,-2.1296,-2.1122,-2.1109,-2.1056,-2.0935,-2.1042,-2.1056,-2.0935,-2.1056,-2.1109,-2.1109,-2.1109,-2.1109,-2.1109,-2.1109,-2.1109,-2.1109,-2.1109,-2.0716,-1.9954,-1.8418,-1.7217,-1.641,-1.7078,-1.8105,-1.9554,-2.1317,-2.2944,-2.4419,0.0,0.0,0.0,0.0,0.0,0.0,0.0,0.0,0.0,0.0,0.0,0.0,0.0,0.0,0.0,0.0,0.0,0.0,0.0,0.0,-1.7951,-1.8089,-1.7986,-1.8083,-1.8434,-1.8193,-1.8193,-1.8434,-1.8538,-1.8374,-1.8049,-1.8408,-1.878,-1.9116,-1.9989,-2.0303,-2.0189,-2.0061,-2.0394,-2.0902,-2.0079,-2.0184,-2.0694,-2.003,0.0,0.0,0.0,0.0,0.0,0.0,0.0,0.0,0.0,0.0,0.0,-2.1043,-2.045,-1.9486,0.0,0.0,0.0,0.0,0.0,0.0,0.0,-2.2586,-2.3596,-2.3352,0.0,-2.2231,-2.2902,-2.2205,-2.1924,-2.2699,-2.306,-2.3327,-2.3581,-2.3126,-2.2779,-2.2779,-2.2311,-2.2109,-2.2359,-2.197,-2.1795,-2.1767,-2.1484,-2.1195,-2.1069,-2.1042,-2.0909,-2.0641,-2.0922,-2.0922,-2.0641,-2.0949,-2.1096,-2.1069,-2.1096,-2.1109,-2.1109,-2.1109,-2.1109,-2.1109,-2.1109,-2.0068,-1.8372,-1.6818,-1.6165,-1.5962,-1.4539,-1.6111,-1.9314,-2.0851,-2.2553,-2.4592,0.0,0.0,0.0,0.0,0.0,0.0,0.0,0.0,0.0,0.0,0.0,0.0,0.0,0.0,0.0,0.0,0.0,0.0,0.0,0.0,-1.8261,-1.8339,-1.8626,-1.8762,-1.8834,-1.8834,-1.8772,-1.8612,-1.8279,-1.8117,-1.8049,-1.8408,-1.8918,-1.9382,-1.9641,-1.9834,-2.0096,-1.9695,-1.9782,-2.0138,-1.9563,-1.9614,-1.9957,-1.9664,-1.9529,0.0,0.0,0.0,0.0,0.0,0.0,0.0,0.0,-2.0915,-2.1043,-2.1136,-2.064,-1.9957,0.0,0.0,0.0,0.0,0.0,0.0,0.0,-2.2051,-2.2576,-2.2974,-2.2848,-2.2848,-2.3243,-2.2971,-2.2565,-2.2525,-2.2565,-2.2552,-2.2392,-2.2258,-2.2178,-2.2178,-2.2058,-2.2855,-2.4924,-2.4202,-2.3457,-2.3208,-2.2886,-2.2096,-2.0886,-2.0548,-2.0388,-2.0334,-2.0615,-2.0628,-2.0334,-2.0842,-2.0989,-2.0775,-2.1002,-2.1109,-2.1109,-2.1109,-2.1109,-2.1109,-2.1109,-2.0068,-1.8512,-1.8116,-1.7109,-1.6014,-1.7324,-1.8222,-1.9076,-2.2171,-2.436,-2.5839,0.0,0.0,0.0,0.0,0.0,0.0,0.0,0.0,0.0,0.0,0.0,0.0,0.0,0.0,0.0,0.0,0.0,0.0,0.0,0.0,-1.8416,-1.857,-1.8934,-1.9073,-1.8993,-1.8931,-1.8772,-1.8692,-1.8626,-1.8383,-1.8049,-1.8614,-1.9058,-1.935,-1.9887,-1.9974,-1.9868,-1.9488,-1.9574,-1.9894,-1.9255,-1.9411,-1.9928,-1.9822,-1.9792,-1.9761,-2.0199,0.0,0.0,0.0,0.0,0.0,0.0,0.0,-2.1508,-2.1508,-2.1218,-2.0571,0.0,0.0,0.0,0.0,0.0,0.0,0.0,-2.167,-2.2082,-2.2326,-2.2389,-2.258,-2.2714,-2.258,-2.2392,-2.2231,-2.2218,-2.2164,-2.2004,-2.1871,-2.2024,-2.2919,-2.2793,-2.3672,-2.5842,-2.5199,-2.4593,-2.4421,-2.3384,-2.2495,-2.1661,-2.0672,-2.0174,-2.0027,-2.0307,-2.0321,-2.0027,-2.0468,-2.0615,-2.0468,-2.0615,-2.0695,-2.0695,-2.0975,-2.1109,-2.1109,-2.1109,-2.0589,-1.9674,-1.8896,-1.8512,-1.8396,-1.8724,-1.9205,-2.0195,-2.3723,-2.5413,-2.6349,0.0,0.0,0.0,0.0,0.0,0.0,0.0,0.0,0.0,0.0,0.0,0.0,0.0,0.0,0.0,0.0,0.0,0.0,0.0,0.0,0.0,-1.8893,-1.9206,-1.9311,-1.9091,-1.8851,-1.8692,-1.8692,-1.9082,-1.8854,-1.8151,-1.9006,-1.9264,-1.9299,-2.0162,-2.0176,-1.955,-1.9295,-1.9451,-1.9795,-1.9138,-1.9293,-2.0041,-2.0103,-2.009,-2.0131,-2.0534,-2.0962,-2.1302,-2.1392,0.0,0.0,0.0,0.0,-2.1787,-2.1692,-2.159,-2.1123,0.0,0.0,0.0,0.0,0.0,0.0,0.0,-2.1443,-2.171,-2.151,-2.175,-2.1991,-2.1991,-2.1951,-2.1911,-2.1911,-2.1871,-2.1817,-2.1764,-2.1808,-2.2384,-2.3717,-2.3822,-2.4499,-2.6335,-2.6016,-2.5459,-2.5222,-2.3732,-2.2631,-2.2037,-2.0815,-1.9973,-1.9733,-2.0,-2.0013,-1.9733,-2.0067,-2.0214,-2.016,-2.0214,-2.0227,-2.0254,-2.0735,-2.0989,-2.1029,-2.1029,-2.1069,-2.0982,-1.9546,-1.9801,-2.0982,-1.9546,-1.9801,-2.1475,-2.4731,-2.5951,-2.647,0.0,0.0,0.0,0.0,0.0,0.0,0.0,0.0,0.0,0.0,0.0,0.0,0.0,0.0,0.0,0.0,0.0,0.0,-1.8285,0.0,0.0,-1.9709,-1.9608,-1.9566,-1.9487,-1.917,-1.8851,-1.8692,-1.9064,-1.8976,-1.8528,-1.9557,-1.9746,-1.9411,-1.9833,-1.9636,-1.9123,-1.9208,-1.9265,-1.9298,-1.9157,-1.9356,-1.9555,-1.9558,-1.9584,-1.9815,-2.0325,-2.0642,-2.0835,-2.1463,-2.1608,0.0,0.0,0.0,-2.1692,-2.1213,-2.1341,-2.1478,0.0,0.0,0.0,0.0,0.0,0.0,0.0,0.0,-2.0909,-2.1122,-2.1603,-2.1991,-2.1991,-2.1777,-2.1617,-2.1617,-2.139,-2.1136,-2.0882,-2.1906,-2.2896,-2.3549,-2.4095,-2.5612,-2.8436,-2.7604,-2.6371,-2.5094,-2.4532,-2.3068,-2.0328,-1.973,-1.9466,-1.9426,-1.9706,-1.972,-1.9426,-1.996,-2.0107,-1.9867,-2.0107,-2.0227,-2.0241,-2.0307,-2.0494,-2.0735,-2.0735,-2.0882,-2.1109,-2.0856,-2.0856,-2.1109,-2.0843,-2.0856,-2.1461,-2.4833,-2.5973,-2.647,0.0,0.0,0.0,0.0,0.0,0.0,0.0,0.0,0.0,0.0,0.0,0.0,0.0,0.0,0.0,-1.7496,-1.799,-1.8526,-1.8999,-1.9612,-1.9784,-1.9548,-1.9548,-1.9487,-1.925,-1.9073,-1.8931,-1.8692,-1.9295,0.0,0.0,-1.9915,-2.0167,-1.9438,-2.0112,-1.9882,-1.9277,-1.9487,-1.9563,-1.9471,-1.9331,-1.9445,-1.9625,-1.9855,-2.0004,-2.0202,-2.0784,-2.1141,-2.132,-2.1717,-2.1807,-2.1692,-2.1543,0.0,0.0,0.0,-2.1761,0.0,0.0,0.0,0.0,0.0,0.0,0.0,0.0,0.0,-2.0468,-2.0588,-2.0828,-2.1109,-2.143,-2.139,-2.1256,-2.1082,-2.0949,-2.1135,-2.1661,-2.2209,-2.3365,-2.5244,-2.5874,-2.6928,-2.9163,-2.792,-2.6572,-2.5987,-2.404,-2.2253,-2.0902,-2.0658,-2.0587,-2.0587,-2.1343,-2.1329,-2.0587,-2.0571,-2.0308,-1.9559,-1.9693,-1.9746,-1.9746,-1.9746,-2.0,-2.0441,-2.0601,-2.0748,-2.0882,-2.1042,-2.1109,-2.1109,-2.1109,-2.1109,-2.1447,-2.4464,-2.5605,-2.603,0.0,0.0,0.0,0.0,0.0,0.0,0.0,0.0,0.0,0.0,0.0,0.0,0.0,0.0,0.0,0.0,-1.8082,-1.8714,-1.944,-1.9728,-1.9706,-1.939,-1.9469,-1.939,-1.9011,-1.8931,-1.8851,-1.8612,0.0,0.0,-1.8938,-2.0246,-2.0483,0.0,-2.0325,-2.0232,-1.967,-1.986,-1.9895,-1.9787,-1.9676,-1.9754,-2.0052,-2.0343,-2.0598,-2.0926,-2.1391,-2.168,-2.1717,-2.2005,-2.1999,-2.1919,-2.183,-2.1969,0.0,0.0,0.0,-2.2527,0.0,0.0,0.0,0.0,0.0,0.0,0.0,0.0,-1.992,-2.0,-2.0013,-2.0174,-2.0681,-2.0842,-2.0815,-2.0601,-2.0931,-2.1418,-2.2275,-2.2966,-2.4153,-2.6448,-2.6936,-2.7438,-2.8339,-2.7142,-2.602,-2.5336,-2.3022,-2.1472,-2.1031,-2.1284,-2.1451,-2.1451,-2.2466,-2.2512,-2.1332,-2.0735,-2.0061,-1.9372,-1.9372,-1.9372,-1.9372,-1.9372,-1.9599,-2.0027,-2.0321,-2.0494,-2.0588,-2.0882,-2.1002,-2.1002,-2.1082,-2.1069,-2.1339,-2.4217,-2.5255,-2.5662,0.0,0.0,0.0,0.0,0.0,0.0,0.0,0.0,0.0,0.0,0.0,0.0,-1.9222,-1.9203,-1.8958,-1.8415,-1.8397,-1.8583,-1.9012,-1.9559,-1.9784,-1.9566,-1.939,0.0,-1.8993,-1.8772,-1.8612,-1.8434,0.0,0.0,-1.9213,-2.0517,-2.1004,-2.0875,-2.0442,-2.0152,-2.0119,-2.0128,-2.0279,-2.0449,-2.0337,-2.048,-2.0823,-2.084,-2.1233,-2.1795,-2.2114,-2.202,-2.183,-2.2339,-2.2224,-2.1965,-2.1813,-2.1679,-2.166,0.0,0.0,0.0,0.0,0.0,0.0,0.0,0.0,0.0,0.0,0.0,-1.9065,-1.9359,-1.9412,-1.9506,-1.9813,-2.0094,-2.0267,-2.0254,-2.1435,-2.226,-2.2022,-2.4199,-2.5628,-2.5469,-2.6409,-2.6492,-2.5313,-2.5412,-2.4304,-2.1582,-2.1519,-2.1031,-1.9591,-2.0415,-2.09,-2.09,-2.1992,-2.1926,-2.055,-1.9542,-1.9179,-1.9372,-1.9372,-1.9372,-1.9372,-1.9372,-1.9386,-1.9426,-1.972,-2.0,-2.0281,-2.0575,-2.0695,-2.0722,-2.1002,-2.0935,-2.1053,-2.4139,-2.5107,-2.5444,0.0,0.0,0.0,0.0,0.0,0.0,0.0,0.0,0.0,0.0,0.0,0.0,0.0,-1.9089,-1.8788,-1.8119,-1.8339,-1.8822,-1.9385,-1.9552,-1.9566,-1.9231,-1.9407,-1.9344,-1.9011,-1.9003,-1.8965,0.0,0.0,-1.9454,-1.9538,-2.0306,-2.0819,-2.1055,-2.1131,-2.0915,-2.0573,-2.0313,-2.0262,-2.0342,-2.0245,-2.05,-2.0931,-2.1043,-2.1492,-2.1942,-2.1131,-2.1045,-2.1139,-2.0462,-2.0765,-2.1494,-2.1495,-2.2063,-2.2582,-2.249,-2.2436,-2.2434,0.0,0.0,0.0,0.0,0.0,0.0,-2.0399,-1.9835,-1.9332,-1.9611,-1.9018,-1.8597,-1.8905,-1.9653,-2.0174,-1.9987,-2.026,-2.1046,-2.2607,-2.336,-2.4153,-2.5089,-2.5485,-2.5185,-2.3808,-2.3062,-2.2167,-2.1188,-2.0329,-1.9948,-2.0401,-2.1399,-2.25,-2.3359,-2.4485,-2.3876,-2.156,-1.9566,-1.8691,-1.8811,-1.8998,-1.9078,-1.9092,-1.9279,-1.9372,-1.9372,-1.9479,-1.9693,-1.9973,-2.0267,-2.0508,-2.0681,-2.0788,-2.1493,-2.2762,-2.4563,-2.5238,-2.5494,0.0,0.0,0.0,0.0,0.0,0.0,0.0,0.0,0.0,-1.8861,0.0,0.0,0.0,0.0,-1.9052,-1.858,-1.8837,-1.9269,-1.9784,-1.9627,-1.939,-1.9073,-1.9308,-1.9317,-1.8887,-1.9177,-1.9287,0.0,0.0,0.0,0.0,-2.0606,-2.0994,-2.1346,-2.1769,-2.1562,-2.0945,-2.0605,-2.0426,-2.0589,-2.0523,-2.0751,-2.1263,-2.0933,-2.1193,-2.1519,-2.0342,-2.0083,-2.0178,-1.9495,-2.0231,-2.1459,-2.1269,-2.2094,-2.312,-2.2889,-2.2715,-2.2656,-2.2767,0.0,0.0,0.0,0.0,-2.0441,-2.0754,-1.9804,-1.9038,-1.9334,-1.8619,-1.7929,-1.8143,-1.8985,-1.9586,-1.9386,-1.9644,-2.0427,-2.2166,-2.238,-2.2854,-2.3913,-2.3909,-2.3169,-2.195,-2.1217,-2.0545,-2.012,-1.9681,-1.9849,-2.0707,-2.2322,-2.3774,-2.5108,-2.5371,-2.4574,-2.2825,-2.0238,-1.9358,-1.988,-1.9766,-1.9907,-2.0355,-2.0672,-2.0931,-2.0931,-2.0931,-2.0382,-1.9679,-2.0,-2.0537,-2.1422,-2.1437,-2.2624,-2.444,-2.5724,-2.5712,-2.5393,0.0,0.0,0.0,0.0,0.0,0.0,0.0,0.0,-1.8263,-1.8709,0.0,0.0,0.0,0.0,0.0,-1.9863,-1.9724,-1.9822,-2.0274,-1.9706,-1.9311,-1.9311,-1.9291,-1.9029,-1.8648,-1.9245,-1.9436,0.0,0.0,0.0,0.0,0.0,-2.1675,-2.1877,-2.2272,-2.2011,-2.1285,-2.0961,-2.1026,-2.1302,-2.1146,-2.1322,-2.1667,-2.074,-2.0373,-2.0374,-1.9803,-1.9357,-1.9161,-1.9455,-2.0644,-2.1908,-2.1274,-2.1884,-2.2938,-2.2938,-2.2958,-2.2909,0.0,0.0,0.0,0.0,0.0,0.0,-2.0059,-1.8945,-1.8175,-1.8471,-1.7989,-1.7569,-1.7555,-1.8036,-1.8437,-1.845,-1.9633,-2.0584,-2.0693,-2.1394,-2.191,-2.2258,-2.156,-2.0748,-1.9686,-1.9926,-1.9498,-1.8144,-1.9571,-2.0599,-2.0599,-2.2891,-2.4601,-2.5645,-2.4412,-2.3863,-2.402,-2.1458,-2.0894,-2.2487,-2.1682,-2.1962,-2.3184,-2.3657,-2.3822,-2.3822,-2.3822,-2.2153,-1.9502,-1.976,-2.0998,-2.2722,-2.3033,-2.4101,-2.5749,-2.7204,-2.6667,-2.5211,0.0,0.0,0.0,0.0,0.0,-1.7954,-1.8391,-1.8618,-1.8993,0.0,0.0,0.0,-2.0466,-2.0439,-2.0379,-2.0391,-2.0385,-2.0184,-2.0039,-2.0177,-2.0074,-1.9751,-1.997,-2.0003,-1.9937,-2.0075,-2.027,-2.0357,-2.0551,-2.0853,-2.123,-2.1356,-2.1608,0.0,-2.2272,-2.2337,-2.2025,-2.1725,-2.1661,-2.1674,-2.0925,-2.0756,-2.0885,-1.9875,-1.9673,-1.9719,-1.8745,-1.8326,-1.8134,-1.7455,-1.9033,-2.147,-2.3064,-2.3612,-2.3533,-2.3438,-2.3055,-2.2796,-2.2909,0.0,0.0,0.0,0.0,0.0,-2.0453,-2.0347,-2.0104,-1.8274,-1.8086,-1.803,-1.7096,-1.7088,-1.7275,-1.7488,-1.8197,-1.9104,-2.0149,-2.021,-2.042,-2.0766,-2.0327,-1.955,-1.8231,-1.9299,-1.9923,-1.9498,-2.0847,-2.2038,-2.3065,-2.4482,-2.535,-2.5645,-2.4412,-2.3592,-2.3314,-2.1979,-2.1318,-2.1459,-2.2047,-2.2468,-2.2807,-2.3541,-2.3822,-2.3822,-2.3822,-2.3375,-2.2605,-2.2616,-2.3162,-2.3892,-2.4258,-2.5476,-2.7239,-2.7973,-2.7937,-2.7511,0.0,0.0,0.0,0.0,0.0,-1.8504,-1.8907,-1.9266,-1.9696,0.0,0.0,0.0,-2.082,-2.1024,-2.111,-2.0977,-2.107,-2.097,-2.0605,-2.0664,-2.062,-2.0323,-2.0449,-2.0583,-2.0757,-2.0642,-2.0909,-2.1428,-2.1266,-2.1482,-2.2172,-2.1989,-2.2097,-2.2501,0.0,0.0,-2.2723,-2.278,-2.23,-2.1538,-2.1658,-2.149,-2.0969,-2.0066,-1.9704,-1.9497,-1.7738,-1.7175,-1.7105,-1.6319,-1.7598,-2.0195,-2.3748,-2.3894,-2.2878,-2.3569,-2.3246,-2.2796,-2.2796,-2.264,-2.2403,-2.245,0.0,0.0,-2.1862,-2.1844,-2.1242,-1.8964,-1.958,-1.9937,-1.8266,-1.902,-1.955,-1.8499,-1.917,-1.9613,-1.9127,-1.9228,-1.949,-1.976,-1.993,-1.9652,-1.8885,-1.9689,-2.0209,-2.0209,-2.1676,-2.3143,-2.4646,-2.535,-2.5644,-2.5469,-2.4638,-2.4044,-2.3616,-2.2726,-2.242,-2.2699,-2.3201,-2.3757,-2.4473,-2.4916,-2.5218,-2.5486,-2.5432,-2.5395,-2.5445,-2.559,-2.5511,-2.5311,-2.5715,-2.7071,-2.8894,-2.9245,-2.9039,-2.8426,0.0,0.0,-1.7832,-1.8055,-1.8479,-1.8981,-1.9366,-1.9913,-2.0301,0.0,-2.0716,-2.0819,-2.1072,-2.1678,-2.1938,-2.1729,-2.1863,-2.1907,-2.1639,-2.1313,-2.1128,-2.1024,-2.0957,-2.1029,-2.123,-2.1158,-2.1514,-2.2262,-2.1924,-2.2222,-2.3242,-2.2866,-2.2848,-2.3242,0.0,0.0,0.0,-2.4003,-2.3134,-2.1345,-2.2585,-2.2368,-2.1246,-2.0227,-1.9762,-1.9168,-1.6717,-1.6046,-1.6357,-1.6427,-1.705,-1.8542,-2.3614,-2.3438,-2.1651,-2.3262,-2.3374,-2.2972,-2.2793,-2.2847,-2.2957,-2.3199,-2.3069,0.0,-2.3634,-2.3252,-2.2232,-2.0432,-2.1783,-2.2639,-2.0446,-2.2304,-2.331,-2.0849,-2.1459,-2.1227,-1.808,-1.8673,-1.9391,-1.9375,-2.0085,-2.057,-2.0537,-2.057,-2.057,-2.057,-2.2241,-2.3873,-2.547,-2.5586,-2.541,-2.5,-2.5,-2.4785,-2.4355,-2.3502,-2.3802,-2.5,-2.4641,-2.5357,-2.6953,-2.6992,-2.7226,-2.7598,-2.7643,-2.7734,-2.7786,-2.8135,-2.7714,-2.6921,-2.7325,-2.8578,-3.0192,-3.0625,-2.9865,-2.8664,0.0,-1.8834,-1.8975,-1.9624,-1.9516,-1.9643,-2.0228,-2.0356,-2.0624,-2.12,-2.19,-2.237,-2.2457,-2.2717,-2.2906,-2.2892,-2.2932,-2.2669,-2.2068,-2.2514,-2.2553,-2.1955,-2.2071,-2.2255,-2.2644,-2.2026,-2.2059,-2.2735,-2.2492,-2.2398,-2.2659,-2.3224,-2.3317,-2.2978,0.0,0.0,0.0,-2.4368,-2.386,-2.2361,-2.1346,-1.9952,-1.8296,-1.7162,-1.6635,-1.6538,-1.6303,-1.6219,-1.6711,-1.9721,-1.9652,-1.8949,-2.2539,-2.2988,-2.1978,-2.218,-2.2585,-2.3168,-2.3652,-2.3403,-2.3344,-2.4348,-2.4497,0.0,-2.4017,-2.4837,-2.4936,-2.2438,-2.3283,-2.3965,-2.2671,-2.2474,-2.2716,-2.3029,-2.2192,-2.0813,-1.864,-1.9367,-2.0555,-2.1449,-2.0858,-2.0599,-2.1114,-2.163,-2.2037,-2.2037,-2.3336,-2.4291,-2.4668,-2.4668,-2.4629,-2.4551,-2.4551,-2.4336,-2.3906,-2.404,-2.4253,-2.4551,-2.5141,-2.5778,-2.6523,-2.6855,-2.707,-2.7168,-2.75,-2.7676,-2.7688,-2.8144,-2.8194,-2.8057,-2.8391,-2.9056,-2.9726,-3.0156,-3.0335,-3.0392,-1.9326,-1.9297,-1.9432,-1.9952,-2.0061,-2.0243,-2.1034,-2.1291,-2.1581,-2.205,-2.2353,-2.2706,-2.2882,-2.3144,-2.3315,-2.3321,-2.3568,-2.3321,-2.2573,-2.3063,-2.3039,-2.2395,-2.25,-2.2717,-2.3028,-2.241,-2.2519,-2.3426,-2.2871,-2.2961,-2.3547,-2.3625,-2.3721,-2.3758,-2.4361,0.0,0.0,-2.3732,-2.2877,-2.18,-2.1563,-2.069,-1.9376,-1.7754,-1.7162,-1.7148,-1.6522,-1.6366,-1.6914,-1.9578,-1.9808,-1.9371,-2.145,-2.2549,-2.2871,-2.2374,-2.3037,-2.4188,-2.4525,-2.4614,-2.4956,-2.5794,-2.6198,0.0,0.0,-2.6993,-2.7237,-2.4904,-2.6312,-2.7352,-2.5647,-2.6209,-2.6625,-2.5771,-2.5595,-2.4702,-2.2603,-2.1816,-2.1553,-2.1981,-2.2092,-2.2188,-2.2244,-2.25,-2.285,-2.3055,-2.3717,-2.4199,-2.4414,-2.4414,-2.4316,-2.4102,-2.4102,-2.3906,-2.3477,-2.3887,-2.4219,-2.4414,-2.5098,-2.5742,-2.6387,-2.6387,-2.6504,-2.6719,-2.7133,-2.7329,-2.7383,-2.8027,-2.8301,-2.834,-2.875,-2.9062,-2.9316,-2.9961,-3.0351,-3.0586,-1.9561,-1.9604,-1.9734,-2.0145,-2.0356,-2.0747,-2.1624,-2.2026,-2.2337,-2.2702,-2.2674,-2.2732,-2.289,-2.334,-2.3525,-2.3322,-2.3814,-2.3887,-2.316,-2.3527,-2.3473,-2.2977,-2.313,-2.3223,-2.3366,-2.2834,-2.3111,-2.4044,-2.3383,-2.343,-2.443,-2.4035,-2.417,-2.4641,-2.4435,0.0,0.0,-2.2929,-2.1738,-2.0838,-2.1474,-2.1412,-2.0651,-1.8775,-1.8369,-1.8454,-1.7045,-1.6593,-1.7029,-1.854,-1.912,-1.929,-2.0737,-2.2208,-2.3387,-2.3372,-2.4418,-2.5605,-2.5729,-2.6299,-2.6964,-2.7499,-2.818,-2.8726,0.0,0.0,0.0,-2.7795,-2.9361,-3.0558,-2.8684,-2.9949,-3.0704,-2.869,-2.9003,-2.8816,-2.7102,-2.4857,-2.3238,-2.2905,-2.3784,-2.4238,-2.3574,-2.3281,-2.3281,-2.3633,-2.3672,-2.3809,-2.4141,-2.418,-2.4004,-2.3672,-2.3672,-2.3496,-2.3144,-2.3496,-2.3867,-2.4297,-2.4746,-2.5352,-2.6133,-2.5859,-2.5937,-2.6269,-2.6802,-2.7038,-2.709,-2.793,-2.8301,-2.832,-2.8672,-2.8848,-2.9004,-2.9785,-3.0137,-3.0273,-2.0353,-2.0127,-2.0141,-2.1052,-2.0656,-2.058,-2.1717,-2.1933,-2.2245,-2.2866,-2.3281,-2.3242,-2.2318,-2.3221,-2.3521,-2.2592,-2.3409,-2.4074,-2.4212,-2.4433,-2.4564,-2.4584,-2.4584,-2.4618,-2.4808,-2.407,-2.391,-2.4473,-2.398,-2.38,-2.4134,-2.4332,-2.4616,-2.5069,-2.5153,0.0,0.0,-2.2959,-2.2094,-2.0641,-1.9205,-1.8746,-1.8812,-1.6897,-1.7382,-1.8901,-1.7571,-1.7074,-1.7441,-1.8982,-1.8457,-1.764,-2.1209,-2.2336,-2.2639,-2.4893,-2.6406,-2.7418,-2.8061,-2.8246,-2.8646,-2.9886,-3.042,-3.0975,-3.1779,0.0,-3.1391,-3.14,0.0,-3.0953,-3.1126,0.0,0.0,-3.1297,-3.0266,-2.947,-2.9507,-2.7943,-2.6744,-2.6802,-2.6333,-2.5691,-2.498,-2.3809,-2.3164,-2.3203,-2.3203,-2.3242,-2.3281,-2.3281,-2.3262,-2.3223,-2.3203,-2.3184,-2.3144,-2.3184,-2.3437,-2.3867,-2.4277,-2.4746,-2.5234,-2.5586,-2.5762,-2.5859,-2.6641,-2.6992,-2.709,-2.793,-2.8301,-2.8301,-2.834,-2.8594,-2.8984,-2.9453,-2.9883,-3.0273,-1.9986,-2.0024,-2.0223,-2.0819,-2.0833,-2.1112,-2.2171,-2.2611,-2.2868,-2.3112,-2.3199,-2.311,-2.2565,-2.329,-2.3437,-2.246,-2.3009,-2.303,-2.2303,-2.3466,-2.3374,-2.1825,-2.4143,-2.4902,-2.3299,-2.4202,-2.4638,-2.4388,-2.4221,-2.4332,-2.4548,-2.4771,-2.4976,-2.5024,-2.4361,-2.356,-2.2588,-2.0825,-2.0523,-2.1223,-1.942,-1.9462,-2.0258,-1.7035,-1.6508,-1.7502,-1.7909,-1.8196,-1.8615,-2.0025,-2.0695,-2.0964,-2.1563,-2.3475,-2.5377,-2.5575,-2.733,-2.91,-2.8571,-2.902,-2.9766,-3.0315,-3.0957,-3.1838,-3.2832,-3.312,-3.3087,-3.3223,0.0,0.0,0.0,0.0,0.0,0.0,-3.1755,-3.1369,-3.1105,-3.0478,-2.9367,-2.766,-2.7481,-2.6963,-2.5559,-2.5388,-2.4983,-2.404,-2.4166,-2.4166,-2.3982,-2.3466,-2.3144,-2.3144,-2.3144,-2.3144,-2.3144,-2.3144,-2.3359,-2.3789,-2.4219,-2.4648,-2.5078,-2.5527,-2.5742,-2.5781,-2.6387,-2.6777,-2.707,-2.7676,-2.8066,-2.8301,-2.8301,-2.8398,-2.8613,-2.8991,-2.9512,-2.9922,-2.016,0.0,-2.029,-2.0615,-2.0752,-2.1176,-2.2295,-2.2903,-2.3296,-2.3448,-2.3317,-2.3026,-2.2672,-2.3437,-2.3478,-2.2199,-2.2699,-2.2486,-2.1197,-2.2898,-2.2824,-1.9936,-2.3547,-2.4714,-2.2532,-2.4059,-2.4956,-2.5017,-2.4889,-2.5039,-2.5452,-2.5339,-2.547,-2.5665,-2.4561,-2.346,-2.2314,-1.9875,-1.9396,-2.0226,-1.8847,-1.9286,-2.062,-1.8125,-1.7093,-1.719,-1.8754,-1.9583,-2.0062,-2.0933,-2.2047,-2.3049,-2.2316,-2.4416,-2.6822,-2.6275,-2.7993,-2.9757,-2.8455,-2.941,-3.0587,-2.9922,-3.1087,-3.2552,-3.3069,-3.3633,-3.4139,-3.4139,-3.3649,0.0,0.0,0.0,-3.2845,-3.2629,0.0,-3.2827,-3.2055,-3.194,-3.0908,-2.8645,-2.8309,-2.7744,-2.6566,-2.6738,-2.652,-2.5178,-2.5412,-2.5353,-2.4622,-2.3997,-2.3516,-2.3144,-2.3144,-2.3144,-2.3144,-2.3144,-2.3301,-2.3613,-2.4043,-2.4473,-2.4902,-2.5352,-2.5625,-2.5762,-2.6191,-2.6621,-2.7051,-2.748,-2.791,-2.8301,-2.8301,-2.8301,-2.8359,-2.8758,-2.9147,-2.9668,-2.1307,-2.075,-2.0372,-2.1051,-2.0476,-2.0374,-2.1566,-2.2428,-2.3165,-2.3762,-2.3761,-2.3283,-2.2225,-2.3435,-2.3616,-2.1584,-2.2655,-2.3063,-2.214,-2.3905,-2.3648,-2.0925,-2.3181,-2.4356,-2.3845,-2.3943,-2.4863,-2.674,-2.605,-2.605,0.0,-2.605,-2.6277,-2.7075,-2.6639,-2.4651,-2.1607,-2.1418,-1.9475,-1.641,-1.6101,-1.6658,-1.8078,-2.0005,-1.9872,-1.8867,-2.0375,-2.1229,-2.1577,-2.1313,-2.1213,-2.1628,-2.3841,-2.47,-2.5234,-2.725,-2.8388,-2.8933,-2.8052,-2.9563,-3.0996,-2.8887,-3.1092,-3.353,-3.223,-3.3191,-3.4248,-3.4248,-3.4122,-3.3932,-3.3694,-3.3813,-3.3886,-3.343,-3.3368,0.0,0.0,-3.1671,-3.1141,-3.051,-2.9183,-2.8261,-2.8179,-2.7516,-2.689,-2.6506,-2.673,-2.6206,-2.466,-2.485,-2.4434,-2.3184,-2.3144,-2.3144,-2.3144,-2.3144,-2.3144,-2.3164,-2.3594,-2.4023,-2.4453,-2.4883,-2.5332,-2.5762,-2.6191,-2.6621,-2.7051,-2.748,-2.791,-2.8301,-2.8301,-2.8301,-2.834,-2.8769,-2.9199,-2.9629,0.0,-2.1684,-2.1278,-2.1229,-2.1363,-2.1696,-2.2187,-2.2538,-2.2858,-2.3341,-2.3572,-2.3552,-2.3241,-2.4094,-2.4142,-2.2572,-2.3078,-2.2719,-2.0971,-2.2357,-2.2138,-1.9411,-2.2301,-2.3905,-2.3651,-2.4523,-2.5739,-2.7322,-2.7018,-2.6974,0.0,0.0,-2.7125,-2.7375,-2.6316,-2.4668,-2.2622,-2.1744,-2.1146,-2.0635,-2.0506,-2.1167,-2.1948,-2.0522,-1.9621,-1.9442,-2.1028,-2.19,-2.2426,-2.3437,-2.3781,-2.3988,-2.5013,-2.5635,-2.6116,-2.7343,-2.8784,-2.9634,-2.8486,-2.9349,-3.026,-2.8937,-3.0492,-3.2256,-3.2311,-3.3497,-3.4697,-3.4697,-3.4472,-3.4063,-3.3636,-3.3694,-3.3587,-3.2827,-3.2703,-3.2281,0.0,-3.0057,-2.9371,-2.9431,-2.9486,-2.9186,-2.8346,-2.9089,-2.8991,-2.7506,-2.8105,-2.7819,-2.6006,-2.5527,-2.4657,-2.3184,-2.3144,-2.3144,-2.3144,-2.3144,-2.3281,-2.3574,-2.4004,-2.4434,-2.4863,-2.5312,-2.5586,-2.5742,-2.5898,-2.6367,-2.7031,-2.7168,-2.7656,-2.8301,-2.8301,-2.8301,-2.832,-2.8457,-2.8769,-2.9238,-2.2561,-2.2408,-2.2083,-2.1663,-2.2073,-2.2536,-2.2423,-2.2786,-2.3261,-2.364,-2.3893,-2.4223,-2.4218,-2.4876,-2.471,-2.3319,-2.3475,-2.2745,-2.0494,-2.2124,-2.1809,-1.8682,-2.1579,-2.302,-2.2656,-2.4334,-2.6033,-2.7474,-2.792,-2.829,0.0,0.0,0.0,-2.8236,-2.7399,-2.601,-2.4333,-2.3099,-2.2569,-2.2605,-2.3353,-2.3947,-2.4251,-2.2758,-2.1987,-2.1865,-2.2738,-2.328,-2.3654,-2.487,-2.5195,-2.5137,-2.5605,-2.5916,-2.6319,-2.6793,-2.7969,-2.8848,-2.7871,-2.879,-2.9589,-2.8265,-2.9589,-3.1186,-3.085,-3.1948,-3.3254,-3.3254,-3.3272,-3.333,-3.3231,-3.3472,-3.3407,-3.2506,-3.2248,-3.1767,0.0,-2.9272,-2.8672,-2.8996,-2.9414,-2.9381,-2.8809,-2.9766,-2.9961,-2.8739,-2.947,-2.8937,-2.655,-2.633,-2.5243,-2.3203,-2.3144,-2.3144,-2.3144,-2.3144,-2.3359,-2.3789,-2.4062,-2.4492,-2.5078,-2.5371,-2.5586,-2.5742,-2.5898,-2.6367,-2.7031,-2.7187,-2.7656,-2.8301,-2.8301,-2.8301,-2.8301,-2.8301,-2.8652,-2.9238,-2.3144,-2.3164,-2.2979,-2.2371,-2.2601,-2.2675,-2.2218,-2.3268,-2.4285,-2.4562,-2.4891,-2.5141,-2.5421,-2.5513,-2.5194,-2.4031,-2.4115,-2.3287,-2.0975,-2.3018,-2.2596,-1.891,-2.0971,-2.1965,-2.1369,-2.365,-2.5663,-2.7326,-2.9031,-3.0026,0.0,0.0,0.0,0.0,-2.9736,-2.8634,-2.6641,-2.5397,-2.3791,-2.222,-2.4171,-2.4783,-2.4787,-2.6302,-2.6465,-2.5798,-2.5256,-2.5059,-2.5137,-2.5566,-2.543,-2.5176,-2.5605,-2.5762,-2.5762,-2.5762,-2.6367,-2.6953,-2.6562,-2.7949,-2.9023,-2.6953,-2.8652,-3.029,-2.8093,-2.8953,-3.0187,-3.0187,-3.0974,-3.186,-3.2387,-3.3346,-3.3582,-3.2506,-3.2207,-3.1604,-2.9977,-2.9413,-2.9186,-2.9342,-2.8816,-2.8752,-2.9492,-2.9551,-2.9682,-2.9996,-3.0638,-2.9759,-2.6602,-2.712,-2.6249,-2.332,-2.3164,-2.3144,-2.3164,-2.3164,-2.3398,-2.3848,-2.3848,-2.4297,-2.5098,-2.5098,-2.5332,-2.5762,-2.6191,-2.6621,-2.7051,-2.748,-2.791,-2.8301,-2.8301,-2.8301,-2.8301,-2.8301,-2.8828,-2.959,-2.3398,-2.3487,-2.359,-2.3948,-2.3256,-2.2871,-2.3492,-2.41,-2.4902,-2.6084,-2.6247,-2.6405,-2.7012,-2.6735,-2.6162,-2.513,-2.513,-2.4556,-2.3073,-2.3322,-2.2998,-2.1456,-2.2548,-2.3673,-2.4617,-2.6355,-2.8174,-3.0016,-3.0504,-3.0856,-3.1171,0.0,0.0,0.0,0.0,-2.9412,-2.8052,-2.8033,-2.6227,-2.3475,-2.3895,-2.4646,-2.5496,-2.5542,-2.642,-2.7372,-2.5333,-2.4785,-2.5078,-2.5195,-2.5391,-2.5586,-2.5703,-2.5957,-2.623,-2.623,-2.6836,-2.748,-2.7363,-2.7969,-2.8418,-2.7559,-2.8633,-2.9648,-2.876,-2.9865,-3.1122,-3.1122,-3.1171,-3.1511,-3.2194,-3.2248,-3.224,-3.2342,-3.1337,-3.0449,-2.9896,-2.92,-2.8973,-2.9302,-2.876,-2.8524,-2.9043,-2.9616,-2.9786,-2.958,-3.0812,-3.062,-2.8521,-2.8004,-2.6941,-2.4908,-2.3742,-2.3301,-2.3613,-2.3633,-2.4004,-2.4746,-2.4746,-2.5039,-2.5566,-2.5566,-2.5625,-2.5762,-2.6191,-2.6621,-2.7051,-2.748,-2.791,-2.8301,-2.8301,-2.8301,-2.8301,-2.8301,-2.8633,-2.9121,-2.3969,-2.4043,-2.4294,-2.4941,-2.459,-2.429,-2.4523,-2.5221,-2.5835,-2.661,-2.7579,-2.835,-2.8664,-2.926,-2.9286,-2.8458,-2.8384,-2.7777,-2.6468,-2.6468,-2.5899,-2.4804,-2.5119,-2.5437,-2.6052,-2.7086,-2.8381,-3.0225,-3.0644,-3.1329,-3.2237,0.0,0.0,0.0,0.0,-3.0389,-2.983,-2.8956,-2.7638,-2.6088,-2.5487,-2.5772,0.0,-2.6531,-2.6777,-2.6992,-2.5527,-2.5019,-2.5098,-2.5293,-2.5391,-2.5488,-2.5684,-2.5898,-2.6172,-2.6543,-2.6875,-2.7187,-2.7559,-2.7832,-2.7969,-2.7734,-2.7891,-2.8043,-2.8116,-2.8308,-2.8718,-2.929,-2.953,-2.9876,-3.0611,-3.1238,-3.1717,-3.2166,-3.1248,-3.0249,-2.9919,-2.9768,-2.9687,-2.962,-2.9203,-2.9144,-2.951,-2.9282,-2.9194,-2.9662,-3.0559,-3.0214,-2.8188,-2.8221,-2.7478,-2.5622,-2.473,-2.4753,-2.5762,-2.4824,-2.4883,-2.5918,-2.5352,-2.5293,-2.5742,-2.5742,-2.5742,-2.5781,-2.6387,-2.6797,-2.707,-2.7676,-2.8086,-2.8301,-2.8301,-2.8301,-2.832,-2.8496,-2.8848,-2.929,-2.473,-2.4832,-2.5096,-2.5844,-2.6356,-2.65,-2.5898,-2.6902,-2.7572,-2.7689,-2.971,-3.1036,-3.0871,-3.2284,-3.2802,-3.2093,-3.1977,-3.138,-2.9826,-3.031,-2.9755,-2.816,-2.7822,-2.7361,-2.6554,-2.6867,-2.8011,-2.9686,-3.041,-3.1576,0.0,0.0,0.0,0.0,0.0,0.0,0.0,-2.878,-2.8109,-2.8512,-2.7156,-2.6982,-2.7526,-2.7843,-2.7031,-2.5742,-2.5742,-2.5488,-2.5215,-2.5605,-2.5488,-2.5215,-2.5605,-2.5781,-2.5977,-2.6777,-2.6797,-2.6738,-2.7539,-2.7715,-2.7656,-2.7447,-2.6667,-2.6044,-2.6634,-2.5759,-2.5258,-2.6705,-2.7216,-2.7677,-2.8595,-3.0287,-3.1676,-3.1942,-3.1472,-3.0953,-3.0418,-3.055,-3.0559,-3.0318,-3.0107,0.0,-3.057,-2.8878,-2.8514,-2.9949,-3.0364,-2.9474,-2.7319,-2.8285,-2.8066,-2.6211,-2.6032,-2.657,-2.8105,-2.6094,-2.5703,-2.6914,-2.5723,-2.5352,-2.5742,-2.5742,-2.5762,-2.5859,-2.666,-2.7051,-2.7168,-2.7969,-2.8301,-2.8301,-2.8301,-2.834,-2.8437,-2.8789,-2.9238,-2.9682,-2.6184,-2.6385,-2.676,-2.7012,-2.779,-2.8792,-2.9865,-3.0337,-3.1577,-3.3811,-3.4145,-3.4214,-3.4519,-3.389,-3.3199,-3.2624,-3.2276,-3.1712,-3.0766,-3.0833,-3.0352,-2.9005,-2.963,-2.9545,-2.8445,-2.8819,-3.0078,-3.1978,-3.1162,-3.1736,-3.3638,-3.2475,0.0,0.0,0.0,0.0,-2.9998,-2.842,-2.7439,-2.6787,-2.5373,-2.5314,-2.6092,-2.6092,-2.5996,-2.5742,-2.5742,-2.5684,-2.5625,-2.5703,-2.5684,-2.5625,-2.5723,-2.5996,-2.6367,-2.6875,-2.7226,-2.7559,-2.8047,-2.793,-2.7447,-2.6212,-2.5587,-2.5245,-2.5326,-2.5441,-2.5798,-2.6763,-2.7012,-2.7373,-2.8073,-2.9868,-3.1147,-3.0697,-3.1391,-3.2137,-3.2251,-3.0847,-3.0314,-3.1441,-3.1257,-3.0946,-3.086,-2.9481,-2.9213,-3.0308,-3.0489,-3.0419,-3.0319,-2.965,-2.9183,-2.8807,-2.682,-2.619,-2.7226,-2.5801,-2.5547,-2.6484,-2.5898,-2.5664,-2.5742,-2.5742,-2.5937,-2.6309,-2.6797,-2.7226,-2.7578,-2.8086,-2.8301,-2.8301,-2.8301,-2.8447,-2.8836,-2.8926,-2.9414,-3.0152,-2.7814,-2.8237,-2.8646,-2.9278,-3.0211,-3.174,-3.3643,-3.4637,-3.5173,-3.5129,-3.5921,-3.6417,-3.613,-3.6644,-3.6479,-3.5464,-3.5193,-3.474,-3.3943,-3.3707,-3.3146,-3.2132,-3.1801,-3.1415,-3.0607,-2.935,-3.0102,-3.3135,-3.1191,-3.1687,-3.4348,-3.3216,-3.2455,-3.2056,0.0,-3.0565,-2.9985,-2.7891,-2.6982,-2.6691,-2.5275,-2.5156,-2.5742,-2.5742,-2.5742,-2.5742,-2.5742,-2.5742,-2.5742,-2.5742,-2.5742,-2.5742,-2.5742,-2.5879,-2.6133,-2.6562,-2.6836,-2.709,-2.7519,-2.7656,-2.7284,-2.5743,-2.5412,-2.5521,-2.5321,-2.5575,-2.6258,-2.7381,-2.7324,-2.7251,-2.7994,-2.86,-2.9232,-2.9931,-3.0982,-3.1656,-3.1881,-3.1166,-3.0758,-3.1187,-3.1704,-3.1584,-3.0683,-3.0319,-3.0218,-3.046,-3.0238,-3.0028,-2.9899,-2.9675,-2.929,-2.8514,-2.761,-2.7921,-2.9557,-2.7055,-2.6741,-2.868,-2.6682,-2.5742,-2.5742,-2.5742,-2.5977,-2.6406,-2.6836,-2.7266,-2.7695,-2.8125,-2.8301,-2.8301,-2.8301,-2.8583,-2.8925,-2.9172,-2.9653,-3.0156,-2.968,-3.0045,-3.047,-3.1513,-3.2536,-3.3979,-3.6328,-3.774,-3.7874,-3.6312,-3.7473,-3.8223,-3.7559,-3.8848,-3.9297,-3.8164,-3.7969,-3.7539,-3.6601,-3.6211,-3.5586,-3.4609,-3.3437,-3.2598,-3.2187,-2.9297,-2.9589,-3.3095,-3.1216,-3.1653,-3.4247,-3.372,-3.3035,-3.2038,-3.0878,-3.0062,-2.9408,-2.7376,-2.6543,-2.6504,-2.5488,-2.5332,-2.5742,-2.5742,-2.5742,-2.5742,-2.5742,-2.5742,-2.5742,-2.5742,-2.5742,-2.5742,-2.5742,-2.5742,-2.584,-2.6367,-2.6523,-2.6641,-2.7148,-2.7253,-2.6912,-2.5491,-2.529,-2.5379,-2.5502,-2.5738,-2.6334,-2.7709,-2.748,-2.7192,-2.7756,-2.7538,-2.7898,-2.9783,-3.0921,-3.1646,-3.197,-3.1574,-3.1236,-3.1306,-3.147,-3.1308,-3.0719,-3.0843,-3.083,-3.0369,-2.9905,-2.942,-2.868,-2.94,-2.9346,-2.8105,-2.87,-2.9824,-3.1445,-2.8357,-2.7845,-2.9957,-2.7055,-2.584,-2.5996,-2.5918,-2.6152,-2.668,-2.7012,-2.7402,-2.7832,-2.8164,-2.8301,-2.8301,-2.8427,-2.87,-2.9103,-2.9618,-3.0003,-3.0312,-3.1777,-3.1634,-3.1875,-3.3535,-3.3926,-3.4603,-3.6226,-3.7289,-3.8526,-4.0298,-4.0374,-4.0254,-4.0176,-3.9629,-3.9062,-3.8555,-3.8164,-3.7402,-3.6152,-3.6035,-3.5449,-3.418,-3.3281,-3.2598,-3.2187,-2.959,-2.9183,-3.1003,-3.1124,-3.1566,-3.2316,-3.3676,-3.2994,-3.0391,-3.0684,-2.9336,-2.6816,-2.6914,-2.6289,-2.5234,-2.5117,-2.5332,-2.5742,-2.5742,-2.5742,-2.5742,-2.5742,-2.5742,-2.5742,-2.5742,-2.5742,-2.5742,-2.5742,-2.5742,-2.5898,-2.6719,-2.6953,-2.7129,-2.7949,-2.6918,-2.5557,-2.5502,-2.4314,-2.3364,-2.4718,-2.5321,-2.5945,-2.6898,-2.707,-2.6914,-2.6663,-2.8009,-2.9519,-3.0409,-3.2014,-3.363,-3.4721,-3.1981,-3.085,-3.3595,-3.0412,-2.8879,-3.1466,-3.1064,-3.0492,-3.0056,-3.0036,-2.953,-2.8447,-2.9512,-2.9961,-2.9414,-3.0181,-3.03,-2.9858,-2.8601,-2.7772,-2.7305,-2.625,-2.6152,-2.6875,-2.6504,-2.6777,-2.7559,-2.7598,-2.7851,-2.8242,-2.8281,-2.8301,-2.8301,-2.872,-2.9133,-2.9543,-3.0,-3.0505,-3.082,-3.3533,-3.4167,-3.4858,-3.5422,-3.6446,-3.7289,-3.7569,-3.8622,-3.9707,-4.0332,-4.0254,-4.0039,-3.9766,-3.918,-3.8555,-3.7871,-3.7187,-3.6465,-3.5703,-3.5137,-3.4512,-3.3711,-3.2871,-3.2207,-3.1797,-2.9746,-2.9518,-3.1162,-3.1506,-3.1566,-3.1321,-3.2471,-3.1576,-2.9043,-2.8711,-2.7891,-2.6719,-2.6113,-2.5547,-2.5098,-2.5371,-2.5586,-2.5742,-2.5742,-2.5742,-2.5781,-2.6035,-2.5957,-2.5781,-2.6035,-2.5957,-2.5742,-2.5742,-2.5918,-2.6191,-2.6543,-2.7012,-2.748,-2.7832,-2.7526,-2.6849,-2.5843,-2.5843,-2.5949,-2.5481,-2.6287,-2.7313,-2.7707,-2.7578,-2.7266,-2.6836,-2.6996,-2.7712,-2.9581,-2.989,-3.099,-3.4064,-3.1182,-2.9782,-3.2489,-2.9993,-2.8594,-3.0104,-3.0967,-3.142,-3.1287,-3.0378,-2.9711,-2.925,-2.8868,-2.8404,-2.7709,-2.9382,-2.9639,-2.8364,-2.894,-2.884,-2.8088,-2.7016,-2.6562,-2.6641,-2.6719,-2.709,-2.7676,-2.793,-2.8144,-2.8301,-2.8301,-2.8476,-2.8661,-2.8809,-2.9361,-2.9949,-3.0103,-3.0529,-3.0898,-3.5332,-3.6054,-3.6661,-3.7134,-3.8098,-3.8767,-3.8438,-3.923,-3.9805,-3.9375,-3.9316,-3.9277,-3.9199,-3.8711,-3.8047,-3.7187,-3.6445,-3.5723,-3.5059,-3.4414,-3.3828,-3.3262,-3.2559,-3.1953,-3.1523,-3.0059,-2.9721,-3.0616,-3.1357,-3.1117,-3.0115,-3.1017,-3.0194,-2.8086,-2.7734,-2.7226,-2.6582,-2.5801,-2.5391,-2.5293,-2.5605,-2.5742,-2.5742,-2.5742,-2.5742,-2.5781,-2.6094,-2.6074,-2.5977,-2.6289,-2.6269,-2.6094,-2.5957,-2.6133,-2.6445,-2.6699,-2.7187,-2.7695,-2.7812,-2.7728,-2.7435,-2.6579,-2.705,-2.7416,-2.6579,-2.7389,-2.8301,-2.8301,-2.8066,-2.7754,-2.7441,-2.6797,-2.6979,-2.8986,-2.8605,-2.9404,-3.3413,-3.0566,-2.8917,-3.1584,-2.9516,-2.8469,-2.9698,-3.0517,-3.1287,-3.1952,-3.0469,-2.956,-2.9668,-2.9167,-2.8583,-2.8055,-3.0539,-3.0778,-2.8401,-2.9992,-2.9944,-2.8226,-2.7408,-2.6992,-2.6953,-2.7246,-2.7559,-2.7871,-2.8164,-2.8301,-2.8301,-2.8301,-2.8594,-2.8953,-2.9036,-2.9505,-3.0238,-3.0374,-3.0587,-3.0898,-3.7012,-3.6543,-3.6618,-3.8739,-3.8422,-3.8026,-3.8442,-3.8609,-3.8437,-3.8008,-3.7949,-3.8262,-3.9101,-3.8437,-3.7598,-3.6758,-3.6269,-3.5469,-3.418,-3.4082,-3.3691,-3.2851,-3.2402,-3.1953,-3.1523,-3.0644,-2.9766,-2.8945,-3.0557,-3.032,-2.834,-2.9609,-2.9297,-2.7715,-2.8535,-2.7734,-2.5781,-2.6191,-2.6133,-2.5723,-2.5742,-2.5742,-2.5742,-2.5742,-2.5742,-2.5742,-2.5742,-2.6016,-2.6387,-2.6387,-2.666,-2.6934,-2.6523,-2.6387,-2.6562,-2.7402,-2.7656,-2.7754,-2.8164,-2.7276,-2.6481,-2.7941,-2.7168,-2.6481,-2.7941,-2.8281,-2.8301,-2.8301,-2.8281,-2.8281,-2.8281,-2.793,-2.8015,-2.9203,-2.9307,-3.0329,-3.3497,-3.0222,-2.8492,-3.1594,-2.8799,-2.7835,-3.1074,-2.9635,-2.9477,-3.1663,-2.9957,-2.8967,-2.9212,-3.0578,-3.1431,-3.1687,-3.4791,-3.4526,-3.057,-3.2076,-3.0949,-2.7031,-2.7031,-2.7461,-2.8262,-2.8281,-2.8281,-2.8281,-2.8301,-2.8301,-2.8301,-2.8301,-2.8535,-2.8984,-2.9424,-2.9792,-3.0254,-3.0723,-3.0898,-3.0898,-3.7168,-3.7347,-3.7563,-3.8543,-3.8739,-3.8681,-3.8543,-3.8641,-3.8418,-3.7988,-3.7676,-3.7598,-3.7871,-3.7402,-3.6953,-3.6699,-3.5723,-3.4941,-3.4531,-3.3691,-3.2949,-3.2402,-3.1953,-3.1523,-3.1094,-3.0508,-2.9922,-2.9355,-3.1011,-3.1027,-2.947,-2.8486,-2.7578,-2.6816,-2.7383,-2.7246,-2.6602,-2.6445,-2.6309,-2.6152,-2.5859,-2.5918,-2.6191,-2.6191,-2.6367,-2.6641,-2.6953,-2.6953,-2.6855,-2.7168,-2.7148,-2.7051,-2.7207,-2.7266,-2.7305,-2.7578,-2.7871,-2.8125,-2.8262,-2.796,-2.7726,-2.8174,-2.796,-2.7726,-2.8174,-2.8301,-2.8301,-2.8301,-2.8301,-2.8301,-2.8301,-2.7715,-2.7806,-2.9487,-2.8097,-2.8004,-3.1412,-2.9309,-2.7986,-2.96,-2.9044,-2.8781,-2.9211,-2.7516,-2.7235,-2.9229,-2.8281,-2.7917,-2.8601,-2.875,-2.8416,-2.7393,-2.9835,-2.9942,-2.7278,-2.9924,-2.9836,-2.7031,-2.7598,-2.8027,-2.8301,-2.8301,-2.8301,-2.8301,-2.8301,-2.8301,-2.832,-2.8594,-2.8965,-2.9414,-2.9789,-3.0217,-3.0684,-3.084,-3.0898,-3.0898,-3.7246,-3.75,-3.7773,-3.8047,-3.8301,-3.8398,-3.8125,-3.8086,-3.7949,-3.7519,-3.709,-3.6758,-3.6601,-3.6191,-3.5996,-3.6172,-3.5137,-3.4394,-3.4219,-3.332,-3.2598,-3.2187,-3.1758,-3.1328,-3.0898,-3.0605,-3.0234,-2.9805,-3.0522,-3.0379,-2.9391,-2.8094,-2.7266,-2.6894,-2.7305,-2.7402,-2.7246,-2.6973,-2.668,-2.6387,-2.6269,-2.6289,-2.6406,-2.6562,-2.6777,-2.7051,-2.7324,-2.7344,-2.7305,-2.7578,-2.7598,-2.7539,-2.7812,-2.791,-2.791,-2.791,-2.8086,-2.8301,-2.8301,-2.8301,-2.8301,-2.8301,-2.8301,-2.8301,-2.8301,-2.8301,-2.8301,-2.8301,-2.8301,-2.8301,-2.8301,-2.7598,-2.7369,-2.8595,-2.6981,-2.6507,-2.9414,-2.7623,-2.6841,-2.8731,-2.8407,-2.793,-2.7886,-2.6577,-2.6151,-2.744,-2.7762,-2.7752,-2.755,-2.7885,-2.7865,-2.7475,-2.9408,-2.9472,-2.7359,-2.9803,-2.9816,-2.7266,-2.7969,-2.8301,-2.8301,-2.8301,-2.8301,-2.8301,-2.8301,-2.8301,-2.832,-2.875,-2.918,-2.9609,-3.0039,-3.0488,-3.0898,-3.0898,-3.0898,-3.0898,-3.7246,-3.7226,-3.7226,-3.7285,-3.7266,-3.7266,-3.7285,-3.7266,-3.7109,-3.668,-3.625,-3.582,-3.5391,-3.4941,-3.4824,-3.5254,-3.4551,-3.3906,-3.3496,-3.3027,-3.2578,-3.2187,-3.1719,-3.1289,-3.0898,-3.0898,-3.0684,-3.0234,-2.9414,-2.8789,-2.8379,-2.8359,-2.8105,-2.7734,-2.8125,-2.8066,-2.7715,-2.7676,-2.7207,-2.6504,-2.6875,-2.6797,-2.6523,-2.6914,-2.709,-2.7109,-2.7109,-2.7363,-2.7715,-2.7715,-2.7969,-2.8301,-2.8301,-2.8301,-2.8301,-2.8301,-2.8301,-2.8301,-2.8301,-2.8301,-2.8301,-2.8301,-2.8301,-2.8301,-2.8301,-2.8301,-2.8301,-2.8301,-2.8301,-2.8301,-2.8301,-2.7598,-2.7012,-2.6973,-2.5898,-2.5796,-2.7703,-2.569,-2.5198,-2.8594,-2.6939,-2.6013,-2.6951,-2.6431,-2.6068,-2.6229,-2.7925,-2.8247,-2.6565,-2.7859,-2.9226,-3.0574,-3.2121,-3.1906,-2.9823,-3.0942,-3.0207,-2.7715,-2.8105,-2.8301,-2.8301,-2.8301,-2.8301,-2.8301,-2.8301,-2.832,-2.8359,-2.8789,-2.9219,-2.9648,-3.0078,-3.0508,-3.0898,-3.0898,-3.0898,-3.0898,-3.6816,-3.6543,-3.6523,-3.7187,-3.7031,-3.6934,-3.7246,-3.7031,-3.666,-3.623,-3.5801,-3.5371,-3.4922,-3.4473,-3.4258,-3.4375,-3.4199,-3.4023,-3.3926,-3.291,-3.2266,-3.2168,-3.1445,-3.0996,-3.0898,-3.0898,-3.084,-3.0723,-3.0176,-2.9687,-2.9258,-2.8926,-2.8555,-2.8144,-2.8242,-2.8242,-2.8125,-2.7812,-2.7559,-2.7344,-2.7109,-2.7148,-2.7383,-2.748,-2.7715,-2.7988,-2.7988,-2.8047,-2.8144,-2.8144,-2.8203,-2.8301,-2.8301,-2.8301,-2.8301,-2.8301,-2.8301,-2.8301,-2.8301,-2.8301,-2.8301,-2.8301,-2.8301,-2.8301,-2.8301,-2.8301,-2.8301,-2.8301,-2.8301,-2.8301,-2.8301,-2.7598,-2.6914,-2.6582,-2.5703,-2.5602,-2.6983,-2.6287,-2.6108,-2.7262,-2.7061,-2.6344,-2.5139,-2.5169,-2.543,-2.5956,-2.5722,-2.6606,-2.918,-2.7495,-2.6625,-2.6922,-2.7978,-2.8456,-2.818,-2.8483,-2.8542,-2.8144,-2.8242,-2.8301,-2.8301,-2.8301,-2.8301,-2.8301,-2.8301,-2.8476,-2.8809,-2.9238,-2.9668,-3.0098,-3.0547,-3.0801,-3.0898,-3.0898,-3.0898,-3.0898,-3.6367,-3.6172,-3.6172,-3.6621,-3.6523,-3.6445,-3.668,-3.6523,-3.6211,-3.5781,-3.5351,-3.4902,-3.4453,-3.4023,-3.3769,-3.3769,-3.3769,-3.3769,-3.3769,-3.2949,-3.2363,-3.2168,-3.1523,-3.1094,-3.0898,-3.0898,-3.0898,-3.0898,-3.0644,-3.0293,-2.9844,-2.9414,-2.8984,-2.8574,-2.8379,-2.8301,-2.8281,-2.8047,-2.7851,-2.7656,-2.7617,-2.7617,-2.7695,-2.7871,-2.8086,-2.8301,-2.8301,-2.8301,-2.8301,-2.8301,-2.8301,-2.8301,-2.8301,-2.8301,-2.8301,-2.8301,-2.8301,-2.8301,-2.8301,-2.8301,-2.8301,-2.8301,-2.8301,-2.8301,-2.8301,-2.8301,-2.8301,-2.8301,-2.8301,-2.8301,-2.8301,-2.7598,-2.6875,-2.6465,-2.6448,-2.6545,-2.7021,-2.6681,-2.6641,-2.7302,-2.6665,-2.5895,-2.5078,-2.547,-2.5781,-2.5586,-2.6133,-2.6962,-2.8068,-2.7629,-2.7594,-2.7895,-2.7589,-2.7519,-2.7949,-2.7949,-2.8066,-2.8301,-2.8301,-2.8301,-2.8301,-2.8301,-2.8301,-2.8301,-2.8496,-2.8711,-2.8965,-2.959,-3.0,-3.0234,-3.0703,-3.0898,-3.0898,-3.0898,-3.0898,-3.0898,-3.6016,-3.6016,-3.6016,-3.6016,-3.6016,-3.6016,-3.6016,-3.5976,-3.5781,-3.5351,-3.4883,-3.4434,-3.4023,-3.3652,-3.3418,-3.3418,-3.3418,-3.3418,-3.3418,-3.2969,-3.2539,-3.2187,-3.1699,-3.125,-3.0898,-3.0898,-3.0898,-3.0898,-3.0898,-3.0644,-3.0195,-2.9824,-2.9394,-2.8906,-2.8555,-2.8359,-2.8301,-2.8301,-2.8086,-2.7793,-2.8144,-2.8086,-2.7793,-2.8164,-2.8301,-2.8301,-2.8301,-2.8301,-2.8301,-2.8301,-2.8301,-2.8301,-2.8301,-2.8301,-2.8301,-2.8301,-2.8301,-2.8301,-2.8301,-2.8301,-2.8301,-2.8301,-2.834,-2.8379,-2.8301,-2.834,-2.8359,-2.8301,-2.8301,-2.8301,-2.8301,-2.7598,-2.6934,-2.682,-2.7181,-2.7623,-2.776,-2.7411,-2.7411,-2.7925,-2.6408,-2.5449,-2.5879,-2.6582,-2.6562,-2.5449,-2.7377,-2.789,-2.6486,-2.8167,-2.9699,-3.0732,-2.8886,-2.793,-2.8281,-2.8301,-2.8301,-2.8301,-2.8301,-2.8301,-2.8301,-2.8359,-2.8398,-2.8418,-2.8828,-2.9062,-2.916,-2.9902,-3.0234,-3.0351,-3.0742,-3.0898,-3.0898,-3.0898,-3.0898,-3.0898,-3.6016,-3.6016,-3.6016,-3.6016,-3.6016,-3.6016,-3.6016,-3.5723,-3.5332,-3.4863,-3.4434,-3.4004,-3.3574,-3.3457,-3.3418,-3.3418,-3.3418,-3.3418,-3.3418,-3.2695,-3.2246,-3.2168,-3.1406,-3.0957,-3.0898,-3.0898,-3.0898,-3.0898,-3.0898,-3.0644,-3.0195,-3.0137,-2.9668,-2.8926,-2.8848,-2.8633,-2.8301,-2.8301,-2.8262,-2.8203,-2.8262,-2.8262,-2.8203,-2.8262,-2.8301,-2.8301,-2.8301,-2.8301,-2.8301,-2.8301,-2.8301,-2.8301,-2.8301,-2.8301,-2.8301,-2.8301,-2.8301,-2.8301,-2.8301,-2.8301,-2.8301,-2.8301,-2.8555,-2.873,-2.8379,-2.8574,-2.8711,-2.8359,-2.8301,-2.8301,-2.8301,-2.7598,-2.7432,-2.8625,-2.689,-2.6319,-2.9064,-2.9265,-2.8873,-2.8244,-2.7041,-2.6348,-2.6777,-2.6934,-2.6934,-2.6719,-2.7012,-2.8048,-2.9776,-2.8688,-2.9144,-3.162,-2.9372,-2.8223,-2.8301,-2.8301,-2.8301,-2.8301,-2.8301,-2.8301,-2.8301,-2.8652,-2.8828,-2.8848,-2.9277,-2.9668,-3.0019,-3.0137,-3.043,-3.0801,-3.0859,-3.0898,-3.0898,-3.0898,-3.0898,-3.0898,-3.6016,-3.6016,-3.5937,-3.5723,-3.5684,-3.5605,-3.5351,-3.5137,-3.4863,-3.4414,-3.4199,-3.3906,-3.3476,-3.3418,-3.3418,-3.3418,-3.3418,-3.3418,-3.3418,-3.2851,-3.2402,-3.2187,-3.1562,-3.1133,-3.0898,-3.0898,-3.0898,-3.0898,-3.0898,-3.0781,-3.0566,-3.0312,-2.9863,-2.9258,-2.9023,-2.8691,-2.8301,-2.8301,-2.8301,-2.8301,-2.8301,-2.8301,-2.8301,-2.8301,-2.8301,-2.8301,-2.8301,-2.8301,-2.8301,-2.8301,-2.8301,-2.8301,-2.8301,-2.8301,-2.8301,-2.8301,-2.8301,-2.834,-2.8574,-2.8633,-2.8691,-2.8926,-2.9121,-2.9219,-2.9023,-2.9121,-2.9219,-2.9023,-2.8789,-2.8633,-2.8633,-2.7734,-2.757,-2.9419,-2.8073,-2.7796,-3.0405,-2.9787,-2.9024,-2.9112,-2.789,-2.7324,-2.7969,-2.8262,-2.8203,-2.7734,-2.7715,-2.8055,-2.8945,-2.8416,-2.877,-3.0214,-2.9498,-2.875,-2.8301,-2.8516,-2.8516,-2.8301,-2.8301,-2.8418,-2.8633,-2.8828,-2.9043,-2.9297,-2.9726,-3.0019,-3.0215,-3.0469,-3.0703,-3.0898,-3.0898,-3.0898,-3.0898,-3.0898,-3.0898,-3.0898,-3.5742,-3.5801,-3.5742,-3.5312,-3.5234,-3.5117,-3.4746,-3.4707,-3.4551,-3.4121,-3.4082,-3.3906,-3.3476,-3.3418,-3.3418,-3.3418,-3.3418,-3.3418,-3.3418,-3.3027,-3.2598,-3.2187,-3.166,-3.123,-3.0898,-3.0898,-3.0898,-3.0898,-3.0898,-3.0898,-3.0879,-3.0527,-3.0078,-2.9551,-2.9219,-2.8789,-2.8301,-2.8301,-2.8301,-2.8301,-2.8301,-2.8301,-2.8301,-2.8301,-2.8301,-2.8301,-2.8301,-2.8301,-2.8301,-2.8301,-2.8301,-2.8301,-2.8301,-2.8359,-2.8437,-2.8437,-2.8516,-2.8633,-2.8867,-2.8926,-2.9023,-2.9453,-2.9648,-2.9687,-2.959,-2.9648,-2.9687,-2.959,-2.9297,-2.9062,-2.8933,-2.8105,-2.7761,-2.8996,-2.8648,-2.889,-3.0611,-2.9693,-2.886,-2.9327,-2.8641,-2.8359,-2.9004,-2.9375,-2.9258,-2.8496,-2.8437,-2.8301,-2.7969,-2.8262,-2.8633,-2.9062,-2.9394,-2.9199,-2.8437,-2.8769,-2.8711,-2.8301,-2.8301,-2.8516,-2.8926,-2.9023,-2.9316,-2.9746,-3.0176,-3.0351,-3.0391,-3.0742,-3.0898,-3.0898,-3.0898,-3.0898,-3.0898,-3.0898,-3.0898,-3.0898,-3.4883,-3.5137,-3.5293,-3.4824,-3.4746,-3.4746,-3.4707,-3.4707,-3.4551,-3.4121,-3.4082,-3.3906,-3.3476,-3.3418,-3.3418,-3.3418,-3.3418,-3.3418,-3.3418,-3.3027,-3.2598,-3.2187,-3.1387,-3.0918,-3.0898,-3.0898,-3.0898,-3.0898,-3.0898,-3.0898,-3.0898,-3.0859,-3.0391,-2.957,-2.9531,-2.9062,-2.8301,-2.8301,-2.8301,-2.8301,-2.8301,-2.8301,-2.8301,-2.8301,-2.8301,-2.8301,-2.8301,-2.8301,-2.8301,-2.8301,-2.8301,-2.8301,-2.8301,-2.8555,-2.8867,-2.8867,-2.916,-2.9394,-2.9023,-2.8926,-2.9023,-2.9453,-2.9863,-3.0059,-2.9668,-2.9863,-3.0039,-2.9648,-2.9551,-2.9512,-2.9211,-2.8641,-2.7853,-2.7031,-2.6989,-2.7545,-2.8629,-2.9055,-2.8784,-2.7996,-2.8859,-2.9453,-2.9512,-2.9551,-2.9375,-2.8906,-2.8867,-2.8867,-2.8828,-2.8848,-2.9082,-2.9512,-2.9551,-2.9355,-2.8887,-2.8906,-2.8711,-2.8301,-2.8301,-2.8516,-2.8926,-2.9336,-2.9746,-3.0176,-3.0644,-3.084,-3.084,-3.0879,-3.0898,-3.0898,-3.0898,-3.0898,-3.0898,-3.0898,-3.0898,-3.0898,-3.4726,-3.4844,-3.4824,-3.4394,-3.4316,-3.4219,-3.3945,-3.3906,-3.3848,-3.3691,-3.3672,-3.3613,-3.3437,-3.3418,-3.3418,-3.3418,-3.3418,-3.332,-3.3047,-3.2891,-3.248,-3.1797,-3.1211,-3.0898,-3.0898,-3.0898,-3.0898,-3.0898,-3.0898,-3.0898,-3.0898,-3.0898,-3.041,-2.957,-2.957,-2.9101,-2.8301,-2.8301,-2.8301,-2.8301,-2.8301,-2.8301,-2.8301,-2.8301,-2.8301,-2.8301,-2.8301,-2.8457,-2.8672,-2.8672,-2.8672,-2.873,-2.9004,-2.9004,-2.8965,-2.9238,-2.9434,-2.959,-2.9687,-2.9707,-2.9824,-3.0273,-3.0508,-3.0586,-3.043,-3.0508,-3.0586,-3.043,-3.0137,-2.9809,-2.9809,-2.9557,-2.951,-3.0215,-2.8939,-2.8427,-3.0379,-2.9688,-2.8875,-2.8496,-2.9336,-2.9863,-2.959,-3.0078,-3.0098,-2.9375,-2.957,-2.959,-2.9336,-2.957,-2.9922,-3.0371,-3.0391,-2.9922,-2.8926,-2.9453,-2.9355,-2.8691,-2.8965,-2.9297,-2.9707,-2.9883,-3.0195,-3.0644,-3.082,-3.0898,-3.0898,-3.0898,-3.0898,-3.0898,-3.0898,-3.0898,-3.0898,-3.0898,-3.0898,-3.0898,-3.4316,-3.4414,-3.4375,-3.3945,-3.3867,-3.3769,-3.3476,-3.3535,-3.3574,-3.3437,-3.3535,-3.3574,-3.3437,-3.3418,-3.3418,-3.3418,-3.3418,-3.3242,-3.2832,-3.2539,-3.2129,-3.1543,-3.1113,-3.0898,-3.0898,-3.0898,-3.0898,-3.0898,-3.0898,-3.0898,-3.0898,-3.0898,-3.0488,-2.9766,-2.9629,-2.916,-2.8476,-2.834,-2.8301,-2.8301,-2.8301,-2.8301,-2.8301,-2.8437,-2.8496,-2.8516,-2.8652,-2.8887,-2.9121,-2.9121,-2.9121,-2.918,-2.9473,-2.9453,-2.9414,-2.9863,-2.998,-3.0039,-3.0332,-3.041,-3.0488,-3.082,-3.0898,-3.0898,-3.0898,-3.0898,-3.0898,-3.0898,-3.0625,-3.0276,-3.041,-3.028,-3.0518,-3.1416,-2.9984,-2.9301,-3.0777,-3.0043,-2.9316,-2.9316,-2.9961,-3.0293,-3.0019,-3.0527,-3.0586,-2.9824,-3.0039,-3.0078,-2.9785,-3.0176,-3.0566,-3.0879,-3.0898,-3.0391,-2.9336,-2.9902,-2.9844,-2.9121,-2.9434,-2.9785,-3.0195,-3.0195,-3.0449,-3.0898,-3.0898,-3.0898,-3.0898,-3.0898,-3.0898,-3.0898,-3.0898,-3.0898,-3.0898,-3.0898,-3.0898,-3.0898,-3.3496,-3.3769,-3.3926,-3.3496,-3.3418,-3.3418,-3.3418,-3.3789,-3.3906,-3.3476,-3.3809,-3.3906,-3.3476,-3.3418,-3.3418,-3.3418,-3.3418,-3.3242,-3.2812,-3.1992,-3.1504,-3.1504,-3.1113,-3.0898,-3.0898,-3.0898,-3.0898,-3.0898,-3.0898,-3.0898,-3.0898,-3.0898,-3.0644,-3.0176,-2.9766,-2.9336,-2.8887,-2.8476,-2.8301,-2.8301,-2.8301,-2.8301,-2.834,-2.875,-2.8926,-2.8984,-2.9414,-2.957,-2.957,-2.957,-2.957,-2.957,-2.957,-2.9863,-3.0293,-3.0762,-3.0898,-3.0898,-3.0898,-3.0898,-3.0898,-3.0898,-3.0898,-3.0898,-3.0898,-3.0898,-3.0898,-3.0898,-3.0898,-3.0898,-3.0898,-3.0952,-3.0517,-2.9366,-2.9702,-2.9734,-2.9004,-2.9668,-3.0195,-3.0195,-3.0605,-3.0898,-3.0879,-3.0898,-3.0703,-3.0234,-3.0195,-3.0195,-3.0195,-3.0644,-3.0898,-3.0898,-3.0898,-3.0664,-3.0215,-3.0195,-3.0,-2.957,-2.959,-2.9805,-3.0195,-3.0195,-3.0449,-3.0898,-3.0898,-3.0898,-3.0898,-3.0898,-3.0898,-3.0898,-3.0898,-3.0898,-3.0898,-3.0898,-3.0898,-3.0898,-3.3437,-3.3535,-3.3574,-3.3437,-3.3418,-3.3418,-3.3418,-3.3535,-3.3574,-3.3437,-3.3535,-3.3574,-3.3437,-3.3418,-3.3301,-3.3008,-3.2988,-3.2676,-3.1953,-3.1387,-3.1074,-3.1074,-3.0957,-3.0898,-3.0898,-3.0898,-3.0898,-3.0898,-3.0898,-3.0898,-3.0898,-3.0898,-3.0644,-3.0195,-3.0059,-2.9609,-2.8906,-2.8789,-2.8555,-2.8301,-2.8301,-2.8476,-2.8711,-2.8535,-2.8848,-2.9355,-2.918,-2.9492,-3.0,-3.0,-3.0,-3.0,-3.0,-3.0312,-3.0703,-3.0859,-3.0898,-3.0898,-3.0898,-3.0898,-3.0898,-3.0898,-3.0898,-3.0898,-3.0898,-3.0898,-3.0898,-3.0898,-3.0898,-3.0898,-3.0898,-3.0917,-3.0799,-3.0488,-3.0508,-3.0584,-3.0332,-3.0527,-3.0684,-3.0684,-3.0801,-3.0762,-3.043,-3.0703,-3.0703,-3.0234,-3.0508,-3.0684,-3.0684,-3.082,-3.0898,-3.0898,-3.0898,-3.082,-3.0684,-3.0684,-3.0449,-3.0019,-3.0332,-3.0566,-3.0684,-3.0684,-3.0762,-3.0898,-3.0898,-3.0898,-3.0898,-3.0898,-3.0898,-3.0898,-3.0898,-3.0898,-3.0898,-3.0898,-3.0898,-3.0898,-3.3418,-3.3418,-3.3418,-3.3418,-3.3418,-3.3418,-3.3418,-3.3418,-3.3418,-3.3418,-3.3418,-3.3359,-3.3184,-3.332,-3.3184,-3.2598,-3.2383,-3.207,-3.1543,-3.1133,-3.0898,-3.0898,-3.0898,-3.0898,-3.0898,-3.0898,-3.0898,-3.0898,-3.0898,-3.0898,-3.0898,-3.0898,-3.0742,-3.0469,-3.0273,-2.9902,-2.9394,-2.9062,-2.8769,-2.8535,-2.8535,-2.8691,-2.8926,-2.9004,-2.9375,-2.9805,-2.9726,-3.0039,-3.0469,-3.0469,-3.0469,-3.0469,-3.0469,-3.0664,-3.0898,-3.0898,-3.0898,-3.0898,-3.0898,-3.0898,-3.0898,-3.0898,-3.0898,-3.0898,-3.0898,-3.0898,-3.0898,-3.0898,-3.0898,-3.0898,-3.0898,-3.0898,-3.0898,-3.0898,-3.0898,-3.0898,-3.0898,-3.0898,-3.0898,-3.0898,-3.0898,-3.0781,-3.0488,-3.0723,-3.0781,-3.0488,-3.0742,-3.0898,-3.0898,-3.0898,-3.0898,-3.0898,-3.0898,-3.0898,-3.0898,-3.0898,-3.0762,-3.0469,-3.0762,-3.0898,-3.0898,-3.0898,-3.0898,-3.0898,-3.0898,-3.0898,-3.0898,-3.0898,-3.0898,-3.0898,-3.0898,-3.0898,-3.0898,-3.0898,-3.0898,-3.0898,-3.3418,-3.3418,-3.3418,-3.3418,-3.3418,-3.3418,-3.3418,-3.3418,-3.3418,-3.3418,-3.3418,-3.3281,-3.2891,-3.3164,-3.3047,-3.2246,-3.1738,-3.1465,-3.1465,-3.1094,-3.0898,-3.0898,-3.0898,-3.0898,-3.0898,-3.0898,-3.0898,-3.0898,-3.0898,-3.0898,-3.0898,-3.0898,-3.0898,-3.0879,-3.0449,-3.0234,-3.0137,-2.9355,-2.9004,-2.8984,-2.8984,-2.9004,-2.9121,-2.9863,-3.0195,-3.0312,-3.0703,-3.0859,-3.0898,-3.0898,-3.0898,-3.0898,-3.0898,-3.0898,-3.0898,-3.0898,-3.0898,-3.0898,-3.0898,-3.0898,-3.0898,-3.0898,-3.0898,-3.0898,-3.0898,-3.0898,-3.0898,-3.0898,-3.0898,-3.0898,-3.0898,-3.0898,-3.0898,-3.0898,-3.0898,-3.0898,-3.0898,-3.0898,-3.0898,-3.0898,-3.0898,-3.0898,-3.0898,-3.0898,-3.0898,-3.0898,-3.0898,-3.0898,-3.0898,-3.0898,-3.0898,-3.0898,-3.0898,-3.0898,-3.0898,-3.0898,-3.0898,-3.0898,-3.0898,-3.0898,-3.0898,-3.0898,-3.0898,-3.0898,-3.0898,-3.0898,-3.0898,-3.0898,-3.0898,-3.0898,-3.0898,-3.0898,-3.0898,-3.0898,-3.0898,-3.0898,-3.3418,-3.3418,-3.3418,-3.3418,-3.3418,-3.3418,-3.3418,-3.3418,-3.3418,-3.3418,-3.3418,-3.3379,-3.3301,-3.3066,-3.2734,-3.2207,-3.1465,-3.1035,-3.1035,-3.0937,-3.0898,-3.0898,-3.0898,-3.0898,-3.0898,-3.0898,-3.0898,-3.0898,-3.0898,-3.0898,-3.0898,-3.0898,-3.0898,-3.0879,-3.0781,-3.0527,-3.0176,-3.0,-2.9726,-2.9434,-2.9434,-2.9629,-2.9902,-2.9766,-3.0137,-3.0703,-3.0449,-3.0586,-3.0898,-3.0898,-3.0898,-3.0898,-3.0898,-3.0898,-3.0898,-3.0898,-3.0898,-3.0898,-3.0898,-3.0898,-3.0898,-3.0898,-3.0898,-3.0898,-3.0898,-3.0898,-3.0898,-3.0898,-3.0898,-3.0898,-3.0898,-3.0898,-3.0898,-3.0898,-3.0898,-3.0898,-3.0898,-3.0898,-3.0898,-3.0898,-3.0898,-3.0898,-3.0898,-3.0898,-3.0898,-3.0898,-3.0898,-3.0898,-3.0898,-3.0898,-3.0898,-3.0898,-3.0898,-3.0898,-3.0898,-3.0898,-3.0898,-3.0898,-3.0898,-3.0898,-3.0898,-3.0898,-3.0898,-3.0898,-3.0898,-3.0898,-3.0898,-3.0898,-3.0898,-3.0898,-3.0898,-3.0898,-3.0898,-3.0898,-3.0898,-3.0898,-3.327,-3.3281,-3.3301,-3.2891,-3.2988,-3.3066,-3.2851,-3.2832,-3.2832,-3.2832,-3.2832,-3.2754,-3.2539,-3.25,-3.2324,-3.1894,-3.1269,-3.0898,-3.0898,-3.0898,-3.0898,-3.0898,-3.0898,-3.0898,-3.0898,-3.0898,-3.0898,-3.0898,-3.0898,-3.0898,-3.0898,-3.0898,-3.0898,-3.0898,-3.0898,-3.0762,-3.0508,-3.0293,-3.0078,-2.9863,-2.9863,-3.0,-3.0195,-3.0195,-3.0488,-3.0859,-3.0605,-3.0684,-3.0898,-3.0898,-3.0898,-3.0898,-3.0898,-3.0898,-3.0898,-3.0898,-3.0898,-3.0898,-3.0898,-3.0898,-3.0898,-3.0898,-3.0898,-3.0898,-3.0898,-3.0898,-3.0898,-3.0898,-3.0898,-3.0898,-3.0898,-3.0898,-3.0898,-3.0898,-3.0898,-3.0898,-3.0898,-3.0898,-3.0898,-3.0898,-3.0898,-3.0898,-3.0898,-3.0898,-3.0898,-3.0898,-3.0898,-3.0898,-3.0898,-3.0898,-3.0898,-3.0898,-3.0898,-3.0898,-3.0898,-3.0898,-3.0898,-3.0898,-3.0898,-3.0898,-3.0898,-3.0898,-3.0898,-3.0898,-3.0898,-3.0898,-3.0898,-3.0898,-3.0898,-3.0898,-3.0898,-3.0898,-3.0898,-3.0898,-3.0898,-3.0898,-3.3574,-3.3361,-3.3342,-3.2407,-3.2461,-3.2578,-3.2226,-3.2168,-3.2168,-3.2168,-3.2168,-3.2031,-3.166,-3.1894,-3.1894,-3.1445,-3.1094,-3.0898,-3.0898,-3.0898,-3.0898,-3.0898,-3.0898,-3.0898,-3.0898,-3.0898,-3.0898,-3.0898,-3.0898,-3.0898,-3.0898,-3.0898,-3.0898,-3.0898,-3.0898,-3.0898,-3.0859,-3.0488,-3.0312,-3.0312,-3.0312,-3.0312,-3.0351,-3.0742,-3.0898,-3.0898,-3.0898,-3.0898,-3.0898,-3.0898,-3.0898,-3.0898,-3.0898,-3.0898,-3.0898,-3.0898,-3.0898,-3.0898,-3.0898,-3.0898,-3.0898,-3.0898,-3.0898,-3.0898,-3.0898,-3.0898,-3.0898,-3.0898,-3.0898,-3.0898,-3.0898,-3.0898,-3.0898,-3.0898,-3.0898,-3.0898,-3.0898,-3.0898,-3.0898,-3.0898,-3.0898,-3.0898,-3.0898,-3.0898,-3.0898,-3.0898,-3.0898,-3.0898,-3.0898,-3.0898,-3.0898,-3.0898,-3.0898,-3.0898,-3.0898,-3.0898,-3.0898,-3.0898,-3.0898,-3.0898,-3.0898,-3.0898,-3.0898,-3.0898,-3.0898,-3.0898,-3.0898,-3.0898,-3.0898,-3.0898,-3.0898,-3.0898,-3.0898,-3.0898,-3.0898,-3.0898,-3.4914,-3.4503,-3.3796,-3.2411,-3.2207,-3.2226,-3.2187,-3.2168,-3.2168,-3.2168,-3.2168,-3.2148,-3.209,-3.1797,-3.1426,-3.1016,-3.0918,-3.0898,-3.0898,-3.0898,-3.0898,-3.0898,-3.0898,-3.0898,-3.0898,-3.0898,-3.0898,-3.0898,-3.0898,-3.0898,-3.0898,-3.0898,-3.0898,-3.0898,-3.0898,-3.0898,-3.0879,-3.082,-3.0801,-3.0801,-3.0801,-3.0801,-3.0801,-3.0859,-3.0898,-3.0898,-3.0898,-3.0898,-3.0898,-3.0898,-3.0898,-3.0898,-3.0898,-3.0898,-3.0898,-3.0898,-3.0898,-3.0898,-3.0898,-3.0898,-3.0898,-3.0898,-3.0898,-3.0898,-3.0898,-3.0898,-3.0898,-3.0898,-3.0898,-3.0898,-3.0898,-3.0898,-3.0898,-3.0898,-3.0898,-3.0898,-3.0898,-3.0898,-3.0898,-3.0898,-3.0898,-3.0898,-3.0898,-3.0898,-3.0898,-3.0898,-3.0898,-3.0898,-3.0898,-3.0898,-3.0898,-3.0898,-3.0898,-3.0898,-3.0898,-3.0898,-3.0898,-3.0898,-3.0898,-3.0898,-3.0898,-3.0898,-3.0898,-3.0898,-3.0898,-3.0898,-3.0898,-3.0898,-3.0898,-3.0898,-3.0898,-3.0898,-3.0898,-3.0898,-3.0898,-3.0898,-3.5845,-3.4987,-3.406,-3.2881,-3.2217,-3.1719,-3.1484,-3.1445,-3.1445,-3.1445,-3.1445,-3.1445,-3.1445,-3.1289,-3.1094,-3.0918,-3.0898,-3.0898,-3.0898,-3.1652,-3.2092,-3.2092,-3.2871,-3.3325,-3.3325,-3.253,-3.2092,-3.2092,-3.1325,-3.0898,-3.0898,-3.0898,-3.0898,-3.0898,-3.0898,-3.0898,-3.0898,-3.0898,-3.0898,-3.0898,-3.0898,-3.0898,-3.0898,-3.0898,-3.0898,-3.0898,-3.0898,-3.0898,-3.0898,-3.0898,-3.0898,-3.0898,-3.0898,-3.0898,-3.1112,-3.1883,-3.1556,-3.1112,-3.1883,-3.1716,-3.125,-3.125,-3.1426,-3.1601,-3.1601,-3.2275,-3.2585,-3.121,-3.1074,-3.125,-3.125,-3.1445,-3.1601,-3.1601,-3.1601,-3.1601,-3.1601,-3.1387,-3.1152,-3.0918,-3.0898,-3.0898,-3.0898,-3.0898,-3.0898,-3.0898,-3.0898,-3.0898,-3.0898,-3.0898,-3.0898,-3.0898,-3.0898,-3.0898,-3.0898,-3.0898,-3.0898,-3.0898,-3.0898,-3.0898,-3.0898,-3.0898,-3.0898,-3.0898,-3.0898,-3.0898,-3.0898,-3.0898,-3.0898,-3.0898,-3.0898,-3.0898,-3.0898,-3.0898,-3.0898,-3.0898]},{"header":{"parameterUnit":"m.s-1","parameterCategory":1,"la1":30.6,"la2":28.766,"lo1":-90.7593,"lo2":-88.6598,"dy":0.0162,"dx":0.0183,"nx":116,"ny":114,"refTime":"2023-06-16T06:00:00:Z","depth":0,"parameterNumber":3,"parameterNumberName":"V-component_of_WINDS"},"data":[0.0,0.0,0.0,0.0,0.0,0.0,0.0,0.0,0.0,0.0,0.0,0.0,0.0,0.0,0.0,0.0,0.0,0.0,0.0,0.0,0.0,0.0,0.0,0.0,0.0,0.0,0.0,0.0,0.0,0.0,0.0,0.0,0.0,0.0,0.0,0.0,0.0,0.0,0.0,0.0,0.0,0.0,0.0,0.0,0.0,0.0,0.0,0.0,0.0,0.0,0.0,0.0,0.0,0.0,0.0,0.0,0.0,0.0,0.0,0.0,0.0,0.0,0.0,0.0,0.0,0.0,0.0,0.0,0.0,0.0,0.0,0.0,0.0,0.0,0.0,0.0,0.0,0.0,0.0,0.0,0.0,0.0,0.0,0.0,0.0,0.0,0.0,0.0,0.0,0.0,0.0,0.0,0.0,0.0,0.0,0.0,0.0,0.0,0.0,0.0,0.0,0.0,0.0,0.0,0.0,0.0,0.0,0.0,0.0,0.0,0.0,0.0,0.0,0.0,0.0,0.0,0.0,0.0,0.0,0.0,0.0,0.0,0.0,0.0,0.0,0.0,0.0,0.0,0.0,0.0,0.0,0.0,0.0,0.0,0.0,0.0,0.0,0.0,0.0,0.0,0.0,0.0,0.0,0.0,0.0,0.0,0.0,0.0,0.0,0.0,0.0,0.0,0.0,0.0,0.0,0.0,0.0,0.0,0.0,0.0,0.0,0.0,0.0,0.0,0.0,0.0,0.0,0.0,0.0,0.0,0.0,0.0,0.0,0.0,0.0,0.0,0.0,0.0,0.0,0.0,0.0,0.0,0.0,0.0,0.0,0.0,0.0,0.0,0.0,0.0,0.0,0.0,0.0,0.0,0.0,0.0,0.0,0.0,0.0,0.0,0.0,0.0,0.0,0.0,0.0,0.0,0.0,0.0,0.0,0.0,0.0,0.0,0.0,0.0,0.0,0.0,0.0,0.0,0.0,0.0,0.0,0.0,0.0,0.0,0.0,0.0,0.0,0.0,0.0,0.0,0.0,0.0,0.0,0.0,0.0,0.0,0.0,0.0,0.0,0.0,0.0,0.0,0.0,0.0,0.0,0.0,0.0,0.0,0.0,0.0,0.0,0.0,0.0,0.0,0.0,0.0,0.0,0.0,0.0,0.0,0.0,0.0,0.0,0.0,0.0,0.0,0.0,0.0,0.0,0.0,0.0,0.0,0.0,0.0,0.0,0.0,0.0,0.0,0.0,0.0,0.0,0.0,0.0,0.0,0.0,0.0,0.0,0.0,0.0,0.0,0.0,0.0,0.0,0.0,0.0,0.0,0.0,0.0,0.0,0.0,0.0,0.0,0.0,0.0,0.0,0.0,0.0,0.0,0.0,0.0,0.0,0.0,0.0,0.0,0.0,0.0,0.0,0.0,0.0,0.0,0.0,0.0,0.0,0.0,0.0,0.0,0.0,0.0,0.0,0.0,0.0,0.0,0.0,0.0,0.0,0.0,0.0,0.0,0.0,0.0,0.0,0.0,0.0,0.0,0.0,0.0,0.0,0.0,0.0,0.0,0.0,0.0,0.0,0.0,0.0,0.0,0.0,0.0,0.0,0.0,0.0,0.0,0.0,0.0,0.0,0.0,0.0,0.0,0.0,0.0,0.0,0.0,0.0,0.0,0.0,0.0,0.0,0.0,0.0,0.0,0.0,0.0,0.0,0.0,0.0,0.0,0.0,0.0,0.0,0.0,0.0,0.0,0.0,0.0,0.0,0.0,0.0,0.0,0.0,0.0,0.0,0.0,0.0,0.0,0.0,0.0,0.0,0.0,0.0,0.0,0.0,0.0,0.0,0.0,0.0,0.0,0.0,0.0,0.0,0.0,0.0,0.0,0.0,0.0,0.0,0.0,0.0,0.0,0.0,0.0,0.0,0.0,0.0,0.0,0.0,0.0,0.0,0.0,0.0,0.0,0.0,0.0,0.0,0.0,0.0,0.0,0.0,0.0,0.0,0.0,0.0,0.0,0.0,0.0,0.0,0.0,0.0,0.0,0.0,0.0,0.0,0.0,0.0,0.0,0.0,0.0,0.0,0.0,0.0,0.0,0.0,0.0,0.0,0.0,0.0,0.0,0.0,0.0,0.0,0.0,0.0,0.0,0.0,0.0,0.0,0.0,0.0,0.0,0.0,0.0,0.0,0.0,0.0,0.0,0.0,0.0,0.0,0.0,0.0,0.0,0.0,0.0,0.0,0.0,0.0,0.0,0.0,0.0,0.0,0.0,0.0,0.0,0.0,0.0,0.0,0.0,0.0,0.0,0.0,0.0,0.0,0.0,0.0,0.0,0.0,0.0,0.0,0.0,0.0,0.0,0.0,0.0,0.0,0.0,0.0,0.0,0.0,0.0,0.0,0.0,0.0,0.0,0.0,0.0,0.0,0.0,0.0,0.0,0.0,0.0,0.0,0.0,0.0,0.0,0.0,0.0,0.0,0.0,0.0,0.0,0.0,0.0,0.0,0.0,0.0,0.0,0.0,0.0,0.0,0.0,0.0,0.0,0.0,0.0,0.0,0.0,0.0,0.0,0.0,0.0,0.0,0.0,0.0,0.0,0.0,0.0,0.0,0.0,0.0,0.0,0.0,0.0,0.0,0.0,0.0,0.0,0.0,0.0,0.0,0.0,0.0,0.0,0.0,0.0,0.0,0.0,0.0,0.0,0.0,0.0,0.0,0.0,0.0,0.0,0.0,0.0,0.0,0.0,0.0,0.0,0.0,0.0,0.0,0.0,0.0,0.0,0.0,0.0,0.0,0.0,0.0,0.0,0.0,0.0,0.0,0.0,0.0,0.0,0.0,0.0,0.0,0.0,0.0,0.0,0.0,0.0,0.0,0.0,0.0,0.0,0.0,0.0,0.0,0.0,0.0,0.0,0.0,0.0,0.0,0.0,0.0,0.0,0.0,0.0,0.0,0.0,0.0,0.0,0.0,0.0,0.0,0.0,0.0,0.0,0.0,0.0,0.0,0.0,0.0,0.0,0.0,0.0,0.0,0.0,0.0,0.0,0.0,0.0,0.0,0.0,0.0,0.0,0.0,0.0,0.0,0.0,0.0,0.0,0.0,0.0,0.0,0.0,0.0,0.0,0.0,0.0,0.0,0.0,0.0,0.0,0.0,0.0,0.0,0.0,0.0,0.0,0.0,0.0,0.0,0.0,0.0,0.0,0.0,0.0,0.0,0.0,0.0,0.0,0.0,0.0,0.0,0.0,0.0,0.0,0.0,0.0,0.0,0.0,0.0,0.0,0.0,0.0,0.0,0.0,0.0,0.0,0.0,0.0,0.0,0.0,0.0,0.0,0.0,0.0,0.0,0.0,0.0,0.0,0.0,0.0,0.0,0.0,0.0,0.0,0.0,0.0,0.0,0.0,0.0,0.0,0.0,0.0,0.0,0.0,0.0,0.0,0.0,0.0,0.0,0.0,0.0,0.0,0.0,0.0,0.0,0.0,0.0,0.0,0.0,0.0,0.0,0.0,0.0,0.0,0.0,0.0,0.0,0.0,0.0,0.0,0.0,0.0,0.0,0.0,0.0,0.0,0.0,0.0,0.0,0.0,0.0,0.0,0.0,0.0,0.0,0.0,0.0,0.0,0.0,0.0,0.0,0.0,0.0,0.0,0.0,0.0,0.0,0.0,0.0,0.0,0.0,0.0,0.0,0.0,0.0,0.0,0.0,0.0,0.0,0.0,0.0,0.0,0.0,0.0,0.0,0.0,0.0,0.0,0.0,0.0,0.0,0.0,0.0,0.0,0.0,0.0,0.0,0.0,0.0,0.0,0.0,0.0,0.0,0.0,0.0,0.0,0.0,0.0,0.0,0.0,0.0,0.0,0.0,0.0,0.0,0.0,0.0,0.0,0.0,0.0,0.0,0.0,0.0,0.0,0.0,0.0,0.0,0.0,0.0,0.0,0.0,0.0,0.0,0.0,0.0,0.0,0.0,0.0,0.0,0.0,0.0,0.0,0.0,0.0,0.0,0.0,0.0,0.0,0.0,0.0,0.0,0.0,0.0,0.0,0.0,0.0,0.0,0.0,0.0,0.0,0.0,0.0,0.0,0.0,0.0,0.0,0.0,0.0,0.0,0.0,0.0,0.0,0.0,0.0,0.0,0.0,0.0,0.0,0.0,0.0,0.0,0.0,0.0,0.0,0.0,0.0,0.0,0.0,0.0,0.0,0.0,0.0,0.0,0.0,0.0,0.0,0.0,0.0,0.0,0.0,0.0,0.0,0.0,0.0,0.0,0.0,0.0,0.0,0.0,0.0,0.0,0.0,0.0,0.0,0.0,0.0,0.0,0.0,0.0,0.0,0.0,0.0,0.0,0.0,0.0,0.0,0.0,0.0,0.0,0.0,0.0,0.0,0.0,0.0,0.0,0.0,0.0,0.0,0.0,0.0,0.0,0.0,0.0,0.0,0.0,0.0,0.0,0.0,0.0,0.0,0.0,0.0,0.0,0.0,0.0,0.0,0.0,0.0,0.0,0.0,0.0,0.0,0.0,0.0,0.0,0.0,0.0,0.0,0.0,0.0,0.0,0.0,0.0,0.0,0.0,0.0,0.0,0.0,0.0,0.0,0.0,0.0,0.0,0.0,0.0,0.0,0.0,0.0,0.0,0.0,0.0,0.0,0.0,0.0,0.0,0.0,0.0,0.0,0.0,0.0,0.0,0.0,0.0,0.0,0.0,0.0,0.0,0.0,0.0,0.0,0.0,0.0,0.0,0.0,0.0,0.0,0.0,0.0,0.0,0.0,0.0,0.0,0.0,0.0,0.0,0.0,0.0,0.0,0.0,0.0,0.0,0.0,0.0,0.0,0.0,0.0,0.0,0.0,0.0,0.0,0.0,0.0,0.0,0.0,0.0,0.0,0.0,0.0,0.0,0.0,0.0,0.0,0.0,0.0,0.0,0.0,0.0,0.0,0.0,0.0,0.0,0.0,0.0,0.0,0.0,0.0,0.0,0.0,0.0,0.0,0.0,0.0,0.0,0.0,0.0,0.0,0.0,0.0,0.0,0.0,0.0,0.0,0.0,0.0,0.0,0.0,0.0,0.0,0.0,0.0,0.0,0.0,0.0,0.0,0.0,0.0,0.0,0.0,0.0,0.0,0.0,0.0,0.0,0.0,0.0,0.0,0.0,0.0,0.0,0.0,0.0,0.0,0.0,0.0,0.0,0.0,0.0,0.0,0.0,0.0,0.0,0.0,0.0,0.0,0.0,0.0,0.0,0.0,0.0,0.0,0.0,0.0,0.0,0.0,0.0,0.0,0.0,0.0,0.0,0.0,0.0,0.0,0.0,0.0,0.0,0.0,0.0,0.0,0.0,0.0,0.0,0.0,0.0,0.0,0.0,0.0,0.0,0.0,0.0,0.0,0.0,0.0,0.0,0.0,0.0,0.0,0.0,0.0,0.0,0.0,0.0,0.0,0.0,0.0,0.0,0.0,0.0,0.0,0.0,0.0,0.0,0.0,0.0,0.0,0.0,0.0,0.0,0.0,0.0,0.0,0.0,0.0,0.0,0.0,0.0,0.0,0.0,0.0,0.0,0.0,0.0,0.0,0.0,0.0,0.0,0.0,0.0,0.0,0.0,0.0,0.0,0.0,0.0,0.0,0.0,0.0,0.0,0.0,0.0,0.0,0.0,0.0,0.0,0.0,0.0,0.0,0.0,0.0,0.0,0.0,0.0,0.0,0.0,0.0,0.0,0.0,0.0,0.0,0.0,0.0,0.0,0.0,0.0,0.0,0.0,0.0,0.0,0.0,0.0,0.0,0.0,0.0,0.0,0.0,0.0,0.0,0.0,0.0,0.0,0.0,0.0,0.0,0.0,0.0,0.0,0.0,0.0,0.0,0.0,0.0,0.0,0.0,0.0,0.0,0.0,0.0,0.0,0.0,0.0,0.0,0.0,0.0,0.0,0.0,0.0,0.0,0.0,0.0,0.0,0.0,0.0,0.0,0.0,0.0,0.0,0.0,0.0,0.0,0.0,0.0,0.0,0.0,0.0,0.0,0.0,0.0,0.0,0.0,0.0,0.0,0.0,0.0,0.0,0.0,0.0,0.0,0.0,0.0,0.0,0.0,-3.6063,-3.8047,0.0,0.0,0.0,0.0,0.0,0.0,0.0,0.0,0.0,0.0,0.0,0.0,0.0,0.0,0.0,0.0,0.0,0.0,0.0,0.0,0.0,0.0,0.0,0.0,0.0,0.0,0.0,0.0,0.0,0.0,0.0,0.0,0.0,0.0,0.0,0.0,0.0,0.0,0.0,0.0,0.0,0.0,0.0,0.0,0.0,0.0,0.0,0.0,0.0,0.0,0.0,0.0,0.0,0.0,0.0,0.0,0.0,0.0,0.0,0.0,0.0,0.0,0.0,0.0,0.0,0.0,0.0,0.0,0.0,0.0,0.0,0.0,0.0,0.0,0.0,0.0,0.0,0.0,0.0,0.0,0.0,0.0,0.0,0.0,0.0,0.0,0.0,0.0,0.0,0.0,0.0,0.0,0.0,0.0,0.0,0.0,0.0,0.0,0.0,0.0,0.0,0.0,0.0,0.0,0.0,0.0,0.0,0.0,0.0,0.0,0.0,0.0,0.0,0.0,-3.9638,-3.9757,0.0,0.0,0.0,0.0,0.0,0.0,0.0,0.0,0.0,0.0,0.0,0.0,0.0,0.0,0.0,0.0,0.0,0.0,0.0,0.0,0.0,0.0,0.0,0.0,0.0,0.0,0.0,0.0,0.0,0.0,0.0,0.0,0.0,0.0,0.0,0.0,0.0,0.0,0.0,0.0,0.0,0.0,0.0,0.0,0.0,0.0,0.0,0.0,0.0,0.0,0.0,0.0,0.0,0.0,0.0,0.0,0.0,0.0,0.0,0.0,0.0,0.0,0.0,0.0,0.0,0.0,0.0,0.0,0.0,0.0,0.0,0.0,0.0,0.0,0.0,0.0,0.0,0.0,0.0,0.0,0.0,0.0,0.0,0.0,0.0,0.0,0.0,0.0,0.0,0.0,0.0,0.0,0.0,0.0,0.0,0.0,0.0,0.0,0.0,0.0,0.0,0.0,0.0,0.0,0.0,0.0,0.0,0.0,-4.0758,-4.1609,-4.2979,-4.2959,-4.3374,-4.4028,-4.3959,-4.2026,-3.9245,-4.2718,0.0,0.0,0.0,0.0,0.0,0.0,0.0,0.0,0.0,0.0,0.0,0.0,0.0,0.0,0.0,0.0,0.0,0.0,0.0,0.0,0.0,0.0,0.0,0.0,0.0,0.0,0.0,0.0,0.0,0.0,0.0,0.0,0.0,0.0,0.0,0.0,0.0,0.0,0.0,0.0,0.0,-4.3251,0.0,0.0,0.0,0.0,0.0,0.0,0.0,0.0,0.0,0.0,0.0,0.0,0.0,0.0,0.0,0.0,0.0,0.0,0.0,0.0,0.0,0.0,0.0,0.0,0.0,0.0,0.0,0.0,0.0,0.0,0.0,0.0,0.0,0.0,0.0,0.0,0.0,0.0,0.0,0.0,0.0,0.0,0.0,0.0,-3.0355,-3.1243,0.0,0.0,0.0,0.0,0.0,0.0,0.0,0.0,0.0,0.0,0.0,0.0,0.0,-4.0637,-4.1515,-4.1131,-4.1576,-4.2722,-4.1663,-4.1567,-4.2369,-4.2395,-4.2787,-4.3638,-4.6453,0.0,-4.2789,-4.2176,0.0,0.0,0.0,0.0,0.0,0.0,0.0,0.0,0.0,0.0,0.0,0.0,0.0,0.0,0.0,0.0,0.0,0.0,0.0,0.0,0.0,0.0,0.0,0.0,0.0,0.0,0.0,0.0,0.0,0.0,0.0,0.0,0.0,0.0,0.0,0.0,0.0,0.0,0.0,0.0,0.0,0.0,-4.4675,-4.2522,-4.0164,-3.9329,0.0,0.0,0.0,0.0,0.0,0.0,0.0,0.0,0.0,0.0,0.0,0.0,0.0,0.0,0.0,0.0,0.0,0.0,0.0,0.0,0.0,0.0,0.0,0.0,0.0,0.0,0.0,0.0,0.0,0.0,0.0,0.0,0.0,0.0,0.0,0.0,0.0,0.0,0.0,-3.1925,-3.3193,-3.4,-3.508,-3.593,0.0,0.0,0.0,0.0,0.0,0.0,0.0,0.0,0.0,-4.2848,-4.2995,-4.3149,-4.3337,-4.3127,-4.3558,-4.4585,-4.4461,-4.4966,-4.6073,-4.6085,-4.6245,-4.6623,-4.8098,-4.768,-4.6,-4.6309,-4.541,-4.4016,0.0,0.0,0.0,0.0,-4.6743,-4.6928,0.0,0.0,0.0,0.0,0.0,0.0,0.0,0.0,0.0,0.0,0.0,0.0,0.0,0.0,0.0,-3.8647,0.0,0.0,0.0,0.0,0.0,0.0,0.0,0.0,0.0,0.0,0.0,0.0,0.0,0.0,0.0,0.0,0.0,0.0,0.0,0.0,-4.3105,-4.212,-4.0702,0.0,0.0,0.0,0.0,0.0,0.0,0.0,0.0,0.0,0.0,0.0,0.0,0.0,0.0,0.0,0.0,0.0,0.0,0.0,0.0,0.0,0.0,0.0,0.0,0.0,0.0,0.0,0.0,0.0,0.0,0.0,0.0,0.0,0.0,0.0,0.0,0.0,0.0,-3.3932,-3.5658,-3.6693,-3.7572,-3.8303,0.0,0.0,0.0,0.0,0.0,0.0,-4.2752,-4.4339,-4.5499,-4.6094,-4.5911,-4.5674,-4.5269,-4.5361,-4.5849,-4.6811,-4.7402,-4.8321,-4.9565,-4.9544,-4.9573,-4.9593,-4.9763,-4.9739,-4.9664,-4.996,-4.8485,-4.609,-4.7478,-4.7712,-4.7341,-4.8145,-4.8583,-4.8839,0.0,0.0,0.0,0.0,0.0,0.0,0.0,0.0,0.0,0.0,0.0,0.0,0.0,0.0,-3.8753,-4.0167,-4.0528,-4.0528,0.0,0.0,0.0,0.0,0.0,0.0,0.0,0.0,0.0,0.0,0.0,0.0,0.0,0.0,0.0,0.0,0.0,0.0,0.0,-4.4967,-4.3359,-4.175,0.0,0.0,0.0,0.0,0.0,0.0,0.0,0.0,0.0,0.0,0.0,0.0,0.0,0.0,0.0,0.0,0.0,0.0,0.0,0.0,0.0,0.0,0.0,0.0,0.0,0.0,0.0,0.0,0.0,0.0,0.0,0.0,0.0,0.0,0.0,0.0,0.0,0.0,0.0,-3.7841,-3.8936,0.0,0.0,0.0,0.0,-4.1882,-4.4171,-4.5908,-4.6666,-4.7985,-4.8729,-4.863,-4.8425,-4.836,-4.8487,-4.8537,-4.898,-4.9875,-4.9932,-5.0345,-5.109,-5.1119,-5.1116,-5.115,-5.1826,-5.295,-5.404,-5.1105,-4.9387,-4.8981,-5.2535,-5.3041,-5.1793,-5.2559,-5.1935,-5.0472,0.0,0.0,0.0,0.0,0.0,0.0,0.0,0.0,0.0,0.0,0.0,0.0,0.0,-4.0164,-4.1649,-4.2159,-4.3324,-4.3689,-4.2921,0.0,0.0,0.0,0.0,0.0,0.0,0.0,0.0,0.0,0.0,0.0,0.0,0.0,0.0,0.0,0.0,0.0,0.0,0.0,-4.6139,-4.3469,-4.2083,-4.0047,0.0,0.0,0.0,0.0,0.0,0.0,0.0,0.0,0.0,0.0,0.0,0.0,0.0,0.0,0.0,0.0,0.0,0.0,0.0,0.0,0.0,0.0,0.0,0.0,0.0,0.0,0.0,0.0,0.0,0.0,0.0,0.0,0.0,0.0,0.0,0.0,0.0,-4.1415,-4.2948,0.0,-4.5268,-4.5155,-4.5571,-4.6935,-4.8036,-4.9112,-5.0136,-5.1155,-5.1812,-5.1989,-5.1261,-5.0928,-5.1032,-5.0586,-5.07,-5.1549,-5.1553,-5.1928,-5.2673,-5.2706,-5.2706,-5.2739,-5.345,-5.4415,-5.5399,-5.5213,-5.4096,-5.2472,-5.331,-5.2637,-5.1242,-5.1573,-5.1279,-5.0802,0.0,0.0,0.0,0.0,0.0,0.0,0.0,0.0,0.0,0.0,0.0,-3.7821,-3.9585,-4.1866,-4.3505,-4.4053,-4.4967,-4.526,-4.4744,0.0,0.0,0.0,0.0,0.0,0.0,0.0,0.0,0.0,0.0,0.0,0.0,0.0,0.0,0.0,0.0,0.0,0.0,0.0,0.0,-4.6029,-4.4455,-4.2229,-3.9656,0.0,0.0,0.0,0.0,0.0,0.0,0.0,0.0,0.0,0.0,0.0,0.0,0.0,0.0,0.0,0.0,0.0,0.0,0.0,0.0,0.0,0.0,0.0,0.0,0.0,0.0,0.0,0.0,0.0,0.0,0.0,0.0,0.0,0.0,-4.0185,-4.3118,-4.5232,-4.6748,-4.8166,-4.9539,-4.9158,-4.9425,-5.0836,-5.1471,-5.2346,-5.3572,-5.404,-5.4311,-5.4437,-5.3281,-5.2647,-5.2641,-5.193,-5.1956,-5.2706,-5.2672,-5.3009,-5.3518,-5.3518,-5.3618,-5.3915,-5.4666,-5.5559,-5.6705,-5.8294,-5.7959,-5.6381,-5.5831,-5.4656,-5.3225,-5.3225,-5.2982,-5.2705,0.0,0.0,0.0,0.0,0.0,0.0,0.0,0.0,0.0,0.0,0.0,-3.8991,-4.0766,-4.2512,-4.4158,-4.5773,-4.5149,-4.4858,-4.524,-4.3939,0.0,0.0,0.0,0.0,0.0,0.0,0.0,0.0,0.0,0.0,0.0,0.0,0.0,0.0,0.0,0.0,0.0,0.0,0.0,0.0,-4.6176,-4.4163,-4.2814,0.0,0.0,0.0,0.0,0.0,0.0,0.0,0.0,0.0,0.0,0.0,0.0,0.0,0.0,0.0,0.0,0.0,0.0,0.0,0.0,0.0,0.0,0.0,0.0,0.0,0.0,0.0,0.0,0.0,0.0,0.0,0.0,0.0,-4.0144,-4.3191,-4.6449,-4.8974,-5.0256,-5.1202,-5.201,-5.2125,-5.251,-5.3356,-5.4498,-5.5683,-5.6907,-5.657,-5.6124,-5.5671,-5.4288,-5.3532,-5.341,-5.2711,-5.2768,-5.3518,-5.3551,-5.3551,-5.3518,-5.3551,-5.3946,-5.4641,-5.5466,-5.6694,-5.8211,-5.9853,-6.0441,-6.0456,-6.0419,-5.9465,-5.8116,-5.8079,-5.7291,-5.6257,0.0,0.0,0.0,0.0,0.0,0.0,0.0,0.0,0.0,0.0,-3.7713,-3.9862,-4.1674,-4.3355,-4.4782,-4.581,-4.5149,-4.4747,-4.4783,0.0,0.0,0.0,0.0,0.0,0.0,0.0,0.0,0.0,0.0,0.0,0.0,0.0,0.0,0.0,0.0,0.0,0.0,0.0,0.0,0.0,0.0,-4.7642,-4.409,0.0,0.0,0.0,0.0,0.0,0.0,0.0,0.0,0.0,0.0,0.0,0.0,0.0,0.0,0.0,0.0,0.0,0.0,0.0,0.0,0.0,0.0,0.0,0.0,0.0,0.0,0.0,0.0,0.0,0.0,0.0,-4.3687,-4.5069,-4.484,-4.7771,-5.0922,-5.358,-5.4682,-5.5588,-5.6472,-5.7088,-5.778,-5.8627,-5.8693,-5.8736,-5.8802,-5.7808,-5.65,-5.4946,-5.4504,-5.4018,-5.3477,-5.3245,-5.3314,-5.3484,-5.4067,-5.4039,-5.3551,-5.4606,-5.4939,-5.4703,-5.5984,-5.7157,-5.8211,-5.9763,-6.0768,-6.1263,-6.108,-6.0739,-6.0178,-5.9064,-5.7864,-5.6756,0.0,0.0,0.0,0.0,0.0,0.0,0.0,0.0,0.0,0.0,-3.8647,-4.0623,-4.2109,-4.3719,-4.4892,-4.5369,-4.4894,-4.4565,-4.4528,0.0,0.0,0.0,0.0,0.0,0.0,0.0,0.0,0.0,0.0,0.0,0.0,0.0,0.0,0.0,0.0,0.0,0.0,0.0,0.0,0.0,0.0,0.0,-4.749,-4.6759,-4.4819,-4.245,-4.2341,-4.2341,-4.2043,-4.002,0.0,0.0,0.0,0.0,0.0,0.0,0.0,0.0,0.0,0.0,0.0,0.0,0.0,0.0,0.0,0.0,0.0,0.0,0.0,0.0,0.0,0.0,0.0,0.0,-4.8592,-5.1398,-5.2444,-5.3059,-5.4348,-5.6973,-5.805,-5.905,-6.0281,-6.0819,-6.1209,-6.1543,-6.1103,-6.037,-5.9282,-5.8007,-5.6492,-5.4668,-5.4328,-5.3946,-5.3518,-5.3518,-5.3685,-5.3946,-5.4413,-5.4503,-5.4454,-5.5319,-5.5671,-5.5623,-5.7214,-5.7963,-5.8237,-6.0114,-6.0806,-6.0676,0.0,0.0,0.0,0.0,-5.9228,-5.8152,0.0,0.0,0.0,0.0,0.0,0.0,0.0,0.0,0.0,0.0,0.0,-4.1129,-4.1922,-4.3461,-4.4488,-4.4562,-4.4345,-4.4163,0.0,0.0,0.0,0.0,0.0,0.0,0.0,0.0,0.0,0.0,0.0,0.0,0.0,0.0,0.0,0.0,0.0,0.0,0.0,0.0,0.0,0.0,0.0,0.0,-5.1731,-5.0346,-4.8652,-4.707,-4.7037,-4.6433,-4.5399,-4.3944,0.0,0.0,0.0,0.0,0.0,0.0,0.0,0.0,0.0,0.0,0.0,0.0,0.0,0.0,0.0,0.0,0.0,0.0,0.0,0.0,0.0,0.0,0.0,0.0,-5.4058,-5.8731,-6.118,-5.8873,-5.7735,-5.9973,-6.0819,-6.182,-6.332,-6.3474,-6.3245,-6.2773,-6.2277,-6.1164,-5.9081,-5.7622,0.0,0.0,0.0,-5.3518,-5.3518,-5.3585,-5.4017,-5.4745,-5.4853,-5.523,-5.5865,-5.5883,-5.6304,-5.6984,-5.8569,-5.8819,-5.8327,-6.0639,-6.0871,-5.989,-6.1934,-6.2493,-6.2173,-6.1641,-6.0838,-5.9939,0.0,0.0,0.0,0.0,0.0,0.0,0.0,0.0,0.0,-3.6406,-3.894,-4.069,-4.0414,-4.1809,-4.302,-4.3681,-4.3063,0.0,0.0,0.0,0.0,0.0,0.0,0.0,0.0,0.0,0.0,0.0,0.0,0.0,0.0,0.0,0.0,0.0,0.0,0.0,0.0,0.0,0.0,0.0,0.0,0.0,-5.2889,-5.2595,-5.1417,-4.9915,-4.9255,-4.9701,-5.0144,-4.7199,-4.7019,-4.7463,-4.4564,0.0,0.0,0.0,0.0,0.0,0.0,0.0,0.0,0.0,0.0,0.0,0.0,0.0,0.0,0.0,0.0,0.0,0.0,0.0,0.0,-5.7755,-6.1169,-6.3935,-6.5628,-6.4939,-6.4355,-6.4641,-6.4205,-6.3974,-6.432,-6.4359,-6.4128,-6.3642,-6.3145,-6.1951,-5.99,-5.7963,-5.6212,-5.4668,-5.3881,-5.3518,-5.3518,-5.4058,-5.4769,-5.557,-5.6188,0.0,-5.6666,-5.7289,-5.7289,-5.6984,-5.8518,-5.9102,-5.9098,-6.086,-6.2029,-6.2717,-6.2248,-6.1655,-6.1153,-6.1759,-6.1401,-6.0517,0.0,0.0,0.0,0.0,0.0,0.0,0.0,0.0,0.0,0.0,-3.9243,-4.0411,-3.9845,-4.1165,-4.1969,-4.1565,0.0,0.0,0.0,0.0,0.0,0.0,0.0,0.0,0.0,0.0,0.0,0.0,0.0,0.0,0.0,0.0,0.0,0.0,0.0,0.0,0.0,0.0,0.0,0.0,0.0,0.0,-5.5611,-5.5611,-5.484,-5.3739,-5.3335,-5.306,-5.2594,-5.0732,-5.026,-5.012,-4.8421,-4.6727,-4.5072,0.0,0.0,0.0,0.0,0.0,0.0,0.0,0.0,0.0,0.0,0.0,0.0,0.0,0.0,-4.9143,0.0,0.0,-6.0229,-6.345,-6.6973,-6.9432,-6.9804,-6.9999,-6.9196,-6.6769,-6.5509,-6.5071,-6.5756,-6.5474,-6.501,-6.4482,-6.4017,-6.2626,-6.012,-5.843,-5.6634,-5.4668,-5.4256,-5.4059,-5.4059,-5.4804,-5.5752,-5.6956,-5.6921,-5.7309,-5.8047,-5.8007,-5.7993,-5.8105,-5.9285,-5.9795,-5.9869,-6.0676,-6.1532,-6.2295,-6.1544,-6.1216,-6.1217,-6.1889,-6.155,-6.0742,0.0,0.0,0.0,0.0,0.0,0.0,0.0,0.0,0.0,0.0,0.0,-3.9982,-3.9207,-4.052,-4.0995,0.0,0.0,0.0,0.0,0.0,0.0,0.0,0.0,0.0,0.0,0.0,0.0,0.0,0.0,0.0,0.0,0.0,0.0,0.0,0.0,0.0,0.0,0.0,0.0,0.0,0.0,0.0,-5.7765,-5.7583,-5.7324,-5.7005,-5.6675,-5.5318,-5.368,-5.3314,-5.2444,-5.1491,-5.1603,-5.0009,-4.7905,-4.7132,-4.5477,0.0,0.0,0.0,0.0,0.0,0.0,0.0,0.0,0.0,-4.715,-4.9717,-5.2579,-5.5523,-5.8333,-6.2656,-6.6453,-6.8552,-7.2006,-7.4152,-7.3219,-7.3565,-7.2406,-6.8388,-6.6774,-6.633,-6.7256,-6.659,-6.5843,-6.513,-6.4509,-6.2966,-6.0379,-5.8916,-5.7222,-5.5096,-5.4935,-5.4838,-5.4838,-5.569,-5.6902,-5.8295,-5.7834,-5.8203,-5.9428,-5.8621,-5.8584,-5.9281,-6.0236,-6.0713,-6.086,-6.0713,-6.1015,-6.1507,-6.0868,-6.1065,-6.1743,-6.1812,-6.1396,-6.0781,0.0,0.0,0.0,0.0,0.0,0.0,0.0,0.0,0.0,0.0,0.0,0.0,0.0,0.0,0.0,0.0,0.0,0.0,0.0,0.0,0.0,0.0,0.0,0.0,0.0,0.0,0.0,0.0,0.0,0.0,0.0,0.0,0.0,0.0,0.0,0.0,0.0,0.0,0.0,0.0,0.0,0.0,-5.6929,-5.6253,-5.6753,-5.7666,-5.6235,-5.4706,-5.3318,-5.323,-5.2647,-5.2143,-5.2757,-5.2316,-5.0998,-4.8089,0.0,-4.4358,-4.2129,-4.19,-4.2661,-4.4096,-4.5138,-4.7038,0.0,0.0,-5.6098,-5.875,-6.2704,-6.5769,-6.6153,-7.0475,-7.4255,-7.5042,-7.6301,-7.6632,-7.5048,-7.4287,-7.3143,-7.1082,-7.0095,-6.9196,-6.8345,-6.7475,-6.6458,-6.5168,-6.3941,-6.2597,-6.113,-5.9167,-5.7647,-5.6646,-5.5981,-5.562,-5.562,-5.7009,-5.8247,-5.9159,-5.9731,-6.0098,-6.0236,-5.9428,-5.9134,-5.9281,-6.0823,-6.1887,-6.2475,-6.1777,-6.2197,-6.3152,-6.1319,-6.1368,-6.2345,-6.1313,-6.0858,-6.0781,0.0,0.0,0.0,0.0,0.0,0.0,0.0,0.0,0.0,0.0,0.0,0.0,0.0,0.0,0.0,0.0,0.0,0.0,0.0,0.0,0.0,0.0,0.0,0.0,0.0,0.0,0.0,0.0,0.0,0.0,0.0,0.0,0.0,0.0,0.0,0.0,0.0,0.0,0.0,0.0,0.0,0.0,-5.6042,-5.4894,-5.4737,-5.5171,-5.5083,-5.4012,0.0,0.0,-5.2397,-5.2106,-5.1871,-5.1614,-5.0888,-4.8126,-4.6979,0.0,-4.4393,-4.4711,-4.6064,0.0,-4.9872,-5.2384,-5.698,-5.9341,-6.1478,-6.4564,-6.7859,-7.0656,-7.2118,-7.5014,-7.7254,0.0,-7.7988,-7.7487,-7.4977,-7.3666,-7.1756,-6.8625,-6.7984,-6.7921,-6.8356,-6.6744,-6.5306,-6.4474,-6.2708,-6.1334,-6.0552,-5.855,-5.7192,-5.6877,-5.6541,-5.6365,-5.6365,-5.7912,-5.9068,-5.9941,-6.0268,-6.0665,-6.108,-6.0272,-6.0162,-6.0676,-6.1814,-6.2511,-6.2768,-6.2438,-6.253,-6.2737,-6.1694,-6.1519,-6.1773,-6.1083,-6.0781,-6.0781,0.0,0.0,0.0,0.0,0.0,0.0,0.0,0.0,0.0,0.0,0.0,0.0,0.0,0.0,0.0,0.0,0.0,0.0,0.0,0.0,0.0,0.0,0.0,0.0,0.0,0.0,0.0,0.0,0.0,0.0,0.0,0.0,0.0,0.0,0.0,0.0,0.0,0.0,0.0,0.0,0.0,0.0,-5.4594,-5.3112,-5.2325,-5.2041,-5.299,-5.2272,0.0,0.0,-5.108,-5.0933,-5.0669,-5.0593,-5.0228,-4.8087,-4.7262,-4.6941,-4.6314,-4.7597,0.0,-5.2456,-5.4979,-5.7916,-6.2372,-6.4782,-6.6974,-6.9898,-7.2322,-7.4361,-7.5745,-7.7169,-7.81,-7.7937,-7.7708,-7.6617,-7.4055,-7.2387,-7.0022,-6.6209,-6.5528,-6.5651,-6.6566,-6.5168,-6.3885,-6.3128,-6.1239,-5.996,-5.9383,-5.7788,-5.6819,-5.6794,-5.6986,-5.7107,-5.7107,-5.8658,-5.9629,-6.0036,-6.0499,-6.0896,-6.1272,-6.0872,-6.1043,-6.163,-6.2438,-6.2805,-6.2805,-6.2965,-6.2891,-6.263,-6.2447,-6.2189,-6.1925,-6.1352,-6.1012,-6.0781,0.0,0.0,0.0,0.0,0.0,0.0,0.0,0.0,0.0,0.0,0.0,0.0,0.0,0.0,0.0,0.0,0.0,0.0,0.0,0.0,0.0,0.0,0.0,0.0,0.0,0.0,0.0,0.0,0.0,0.0,0.0,0.0,0.0,0.0,0.0,0.0,0.0,0.0,0.0,0.0,0.0,0.0,-5.223,-5.074,-4.9597,-4.8856,-4.9748,0.0,0.0,0.0,-4.8412,-4.8178,-4.9562,-4.9972,0.0,-4.8078,-4.6675,-4.5933,-4.7177,0.0,-5.2677,-5.6519,-5.9874,-6.3588,-6.865,-7.1567,-7.3668,-7.5399,-7.713,-7.7823,-7.6284,-7.6746,-7.7124,-7.6573,-7.5127,-7.3649,-7.2454,-7.068,-6.8323,-6.5291,-6.4026,-6.3045,-6.2284,-6.2816,-6.2598,-6.1005,-5.9627,-5.8542,-5.7789,-5.7175,-5.6767,-5.6794,-5.7498,-5.7848,-5.7848,-5.9426,-5.9899,-5.916,-6.0685,-6.1105,-6.0467,-6.1222,-6.1557,-6.163,-6.2438,-6.2805,-6.2855,-6.3363,-6.355,-6.3568,-6.371,-6.3733,-6.3566,-6.2465,-6.1512,-6.0781,0.0,0.0,0.0,0.0,0.0,0.0,0.0,0.0,0.0,0.0,0.0,0.0,0.0,0.0,0.0,0.0,0.0,0.0,0.0,0.0,0.0,0.0,0.0,0.0,0.0,0.0,0.0,0.0,0.0,0.0,0.0,0.0,0.0,0.0,0.0,0.0,0.0,0.0,0.0,0.0,0.0,0.0,-5.1097,-4.8049,-4.6551,-4.5775,0.0,0.0,0.0,0.0,0.0,0.0,-4.537,-4.6301,-4.7445,-4.6359,-4.6499,-4.7248,-4.8711,0.0,-5.7066,-6.077,-6.4079,-6.7597,-7.1852,-7.3001,-7.365,-7.5323,-7.4942,-7.3985,-7.2876,-7.2635,-7.2291,-7.1365,-7.1291,-7.0616,-6.8473,-6.7784,-6.5689,-6.0868,-6.0937,-6.0401,-5.7992,-5.9097,-5.9804,-5.9516,-5.7592,-5.6885,-5.7929,-5.7289,-5.7561,-5.916,-5.8872,-5.871,-5.871,-5.9242,-5.9633,-5.9899,-6.1465,-6.2149,-6.1945,-6.2223,-6.2344,-6.2401,-6.2695,-6.3014,-6.3317,-6.3543,-6.3641,-6.3754,-6.3791,-6.3341,-6.2631,-6.2257,-6.155,-6.0781,0.0,0.0,0.0,0.0,0.0,0.0,0.0,0.0,0.0,0.0,0.0,0.0,0.0,0.0,0.0,0.0,0.0,0.0,0.0,0.0,0.0,0.0,0.0,0.0,0.0,0.0,0.0,0.0,0.0,0.0,0.0,0.0,0.0,0.0,0.0,0.0,0.0,0.0,0.0,0.0,0.0,0.0,-4.8384,-4.5459,-4.4062,0.0,0.0,0.0,0.0,0.0,0.0,0.0,-4.2996,-4.4283,-4.6164,-4.6099,-4.7694,-4.9966,-5.2305,-5.662,-6.132,-6.4726,-6.7699,-7.0619,-7.3616,-7.3627,-7.3279,-7.4119,-7.2465,-7.046,-6.9091,-6.8358,-6.7601,-6.6635,-6.6773,-6.6544,-6.5125,-6.4316,-6.2548,-5.8877,-5.9098,-5.8731,-5.6638,-5.7258,-5.7749,-5.7715,-5.6288,-5.5974,-5.7227,-5.7289,-5.7985,-5.9464,-5.9219,-5.8971,-5.8676,-5.8948,-5.9477,-6.0219,-6.1897,-6.2524,-6.2295,-6.2944,-6.3036,-6.2805,-6.3014,-6.3308,-6.3593,-6.3978,-6.4177,-6.4222,-6.4144,-6.3614,-6.2974,-6.2627,-6.1973,-6.1204,0.0,0.0,0.0,0.0,0.0,0.0,0.0,0.0,0.0,0.0,0.0,0.0,0.0,0.0,0.0,0.0,0.0,0.0,0.0,0.0,0.0,0.0,0.0,0.0,0.0,0.0,0.0,0.0,0.0,0.0,0.0,0.0,0.0,0.0,0.0,0.0,0.0,0.0,0.0,0.0,0.0,0.0,-4.4453,-4.2929,0.0,0.0,0.0,0.0,0.0,0.0,0.0,0.0,0.0,-4.4191,-4.5886,-4.7265,-5.0226,-5.387,-5.7476,-6.1449,-6.5324,-6.8292,-7.0613,-7.2522,-7.4099,-7.3579,-7.2604,-7.1973,-6.974,-6.7238,0.0,0.0,-6.3145,-6.251,-6.1871,-6.1736,-6.261,-6.086,-5.9391,0.0,0.0,0.0,0.0,-5.7424,-5.6724,-5.6014,-5.5828,-5.5819,-5.5958,-5.7329,-5.8071,-5.8107,-5.8711,-5.8701,-5.7954,-5.866,-5.9404,-6.0156,-6.1913,-6.2379,-6.1761,-6.3421,-6.3736,-6.299,-6.3482,-6.3674,-6.3766,-6.4731,-6.513,-6.5085,-6.4807,-6.4628,-6.4474,-6.3666,-6.282,-6.1973,0.0,0.0,0.0,0.0,0.0,0.0,0.0,0.0,0.0,0.0,0.0,0.0,0.0,0.0,0.0,0.0,0.0,0.0,0.0,0.0,0.0,0.0,0.0,0.0,0.0,0.0,0.0,0.0,0.0,0.0,0.0,0.0,0.0,0.0,0.0,0.0,0.0,0.0,0.0,0.0,0.0,0.0,-4.3235,0.0,0.0,0.0,0.0,0.0,0.0,0.0,0.0,0.0,0.0,-4.6149,-4.7445,-4.9418,-5.289,-5.67,-5.99,-6.4191,-6.8235,-7.0183,-7.1103,-7.1637,-7.2042,-7.0169,-6.8037,-6.7269,-6.3966,-6.0818,0.0,0.0,0.0,-5.9334,-6.0358,0.0,-6.1789,-6.2438,0.0,-5.9501,0.0,-6.0199,-5.9024,-5.8769,-5.8844,-5.9257,-5.7597,-5.7087,-5.8325,-5.8771,-5.9186,-5.9774,-5.8839,-5.8496,-5.8875,-5.9502,-6.0251,-6.1114,-6.2717,-6.3902,-6.484,-6.5291,-6.5297,-6.4878,-6.5041,-6.4974,-6.4731,-6.4965,-6.5321,-6.569,-6.5603,-6.5051,-6.4306,-6.4282,-6.346,-6.2367,0.0,0.0,0.0,0.0,0.0,0.0,0.0,0.0,0.0,0.0,0.0,0.0,0.0,0.0,0.0,0.0,0.0,0.0,0.0,0.0,0.0,0.0,0.0,0.0,0.0,0.0,0.0,0.0,0.0,0.0,0.0,0.0,0.0,0.0,0.0,0.0,0.0,0.0,0.0,0.0,0.0,0.0,0.0,0.0,0.0,0.0,0.0,0.0,0.0,0.0,0.0,-4.407,-4.6872,-4.8901,-5.0749,-5.3681,0.0,-6.0545,-6.4288,-6.7577,-7.0367,-7.1945,-7.1578,-7.0587,-6.9945,-6.7022,-6.4107,-6.2741,-5.956,0.0,-5.5018,-5.465,0.0,0.0,0.0,0.0,-6.0394,-6.1374,-6.152,0.0,-6.1374,0.0,-6.0896,-6.1185,-6.1745,-6.2583,-6.0039,-5.8879,-5.9795,-6.0164,-6.0149,-5.9849,-5.8974,-5.8702,-5.9145,-6.0186,-6.1499,-6.2952,-6.4515,-6.5777,-6.6877,-6.6898,-6.6431,-6.5615,-6.5876,-6.5631,-6.513,-6.535,-6.5635,-6.5859,-6.5474,-6.4705,-6.3858,-6.4397,-6.3383,-6.1843,0.0,0.0,0.0,0.0,0.0,0.0,0.0,0.0,0.0,0.0,0.0,0.0,0.0,0.0,0.0,0.0,0.0,0.0,0.0,0.0,0.0,0.0,0.0,0.0,0.0,0.0,0.0,0.0,0.0,0.0,0.0,0.0,0.0,0.0,0.0,0.0,0.0,0.0,0.0,0.0,0.0,0.0,0.0,0.0,0.0,0.0,0.0,0.0,0.0,0.0,-4.581,-4.6104,-4.9334,-5.2247,-5.5128,-5.8777,-6.1728,-6.477,-6.91,-7.0991,-7.2055,-7.323,-7.1725,-6.9467,-6.7573,-6.3947,-6.0397,-5.8312,0.0,-5.3493,-5.1454,-5.2271,-5.3085,-5.2515,0.0,-5.6712,-5.9171,-5.9538,-6.0126,-6.1741,-6.2438,-6.2915,-6.3135,-6.3723,-6.442,-6.5264,-6.2666,-6.1045,-6.0818,-6.1379,-6.0935,-5.9195,-5.926,-5.9294,-5.9199,-6.0938,-6.2913,-6.5125,-6.6774,-6.7875,-6.8496,-6.8553,-6.7619,-6.5991,-6.6483,-6.6109,-6.5261,-6.569,-6.5897,-6.582,-6.5051,-6.4205,-6.3512,-6.432,-6.2974,-6.1012,0.0,0.0,0.0,0.0,0.0,0.0,0.0,0.0,0.0,0.0,-3.4067,-3.56,0.0,0.0,0.0,0.0,0.0,0.0,0.0,0.0,0.0,0.0,0.0,0.0,0.0,0.0,0.0,0.0,0.0,0.0,0.0,0.0,0.0,0.0,0.0,0.0,0.0,0.0,0.0,0.0,0.0,0.0,0.0,0.0,0.0,0.0,0.0,0.0,0.0,0.0,-4.8671,-5.0325,-5.3518,-5.672,-5.9732,-6.2438,-6.55,-6.8365,-7.0513,-7.2679,-7.4037,-7.2973,-7.0881,-6.8164,-6.4646,-6.0194,0.0,0.0,-5.1528,-4.9713,-4.9341,-4.9936,-5.1302,-5.3691,0.0,0.0,0.0,0.0,-6.1777,0.0,-6.3172,-6.3356,-6.4751,-6.4383,-6.442,-6.5264,-6.4799,-6.3875,-6.2501,-6.2543,-6.1554,-5.9299,-5.9854,-6.0083,-5.9865,-6.223,-6.4527,-6.678,-6.8509,-6.9964,-7.1067,-7.1065,-6.9938,-6.7899,-6.7993,-6.7203,-6.5781,-6.5872,-6.5897,-6.5859,-6.5743,-6.5013,-6.4114,-6.4474,-6.2974,-6.0935,0.0,0.0,0.0,0.0,0.0,0.0,0.0,-3.2647,-3.2925,-3.391,-3.4878,-3.5501,-3.5584,-3.5893,-3.6312,0.0,0.0,0.0,0.0,0.0,0.0,0.0,0.0,0.0,0.0,0.0,0.0,-3.2792,0.0,0.0,0.0,-3.3711,0.0,0.0,0.0,0.0,0.0,0.0,0.0,0.0,0.0,0.0,0.0,0.0,0.0,0.0,0.0,0.0,0.0,0.0,-4.9255,-5.1967,-5.5684,-5.8767,-6.1263,-6.2438,-6.5705,-6.9155,-7.0367,-7.2459,-7.4074,-7.3303,-7.0036,-6.6124,-6.2597,0.0,0.0,0.0,-4.9565,-4.8455,-4.7638,0.0,0.0,0.0,0.0,0.0,0.0,0.0,0.0,-6.3723,-6.409,-6.442,-6.5228,-6.5705,-6.5778,-6.5338,-6.5705,-6.5004,-6.2933,-6.2018,-6.1042,-5.9946,-6.05,-6.099,-6.1368,-6.373,-6.6049,-6.8375,-6.9587,-7.0829,-7.2107,-7.1543,-7.0507,-6.909,-6.909,-6.8129,-6.6513,-6.6513,-6.6282,-6.5897,-6.5897,-6.5282,-6.4397,-6.4551,-6.3281,-6.155,0.0,0.0,0.0,0.0,0.0,0.0,0.0,-3.3314,-3.3803,-3.5352,-3.5553,-3.537,-3.4818,-3.5308,-3.5976,0.0,0.0,0.0,0.0,0.0,0.0,0.0,0.0,0.0,0.0,0.0,0.0,-3.1579,-3.2119,0.0,0.0,0.0,0.0,0.0,-3.5025,-3.5566,0.0,0.0,0.0,0.0,0.0,0.0,0.0,0.0,0.0,0.0,0.0,0.0,0.0,0.0,-4.8407,-5.1151,-5.4935,-5.839,-6.1105,-6.1435,-6.4882,-6.888,-7.0257,-7.2239,-7.3817,-7.3303,-6.9082,-6.4141,-6.0739,-5.546,0.0,0.0,-4.8307,-4.7646,-4.6493,0.0,-5.0377,0.0,0.0,0.0,0.0,0.0,0.0,0.0,-6.4595,0.0,-6.5778,-6.6663,-6.6646,-6.5411,-6.5558,-6.4948,-6.3156,-6.1708,-6.0937,-6.0907,-6.1606,-6.2401,-6.3255,-6.549,-6.7736,-6.9803,-7.0581,-7.1491,-7.2461,-7.1621,-7.0667,-6.9706,-6.9547,-6.8636,-6.7215,-6.7022,-6.6507,-6.5838,-6.5767,-6.5217,-6.4411,-6.4257,-6.3309,-6.205,0.0,0.0,0.0,0.0,0.0,0.0,0.0,-3.3385,-3.3701,-3.4688,-3.5349,-3.5696,-3.5668,-3.5696,-3.5805,0.0,0.0,0.0,0.0,0.0,0.0,0.0,0.0,0.0,0.0,0.0,0.0,-3.15,-3.1568,0.0,0.0,0.0,0.0,0.0,0.0,-3.4449,-3.4669,0.0,0.0,0.0,0.0,0.0,0.0,0.0,0.0,0.0,0.0,0.0,0.0,0.0,0.0,-4.672,-4.9277,-5.4245,-5.9432,-6.0907,0.0,0.0,-7.1411,-7.3523,-7.4258,-7.2092,-6.7834,-6.3002,-5.8489,0.0,0.0,-4.7827,-4.6872,-4.614,-4.617,-4.75,-4.8823,0.0,0.0,-5.3036,0.0,0.0,0.0,0.0,0.0,0.0,-6.7266,-6.6167,-6.5363,-6.5322,-6.398,-6.3379,-6.3972,-6.3094,-6.2595,-6.2572,-6.3864,-6.4812,-6.5344,-6.7883,-6.9779,-7.1028,-7.2197,-7.2673,-7.2507,-7.2377,-7.1387,-6.9679,-6.9138,-6.8373,-6.7496,-6.6695,-6.6083,-6.5577,-6.5308,-6.4627,-6.3795,-6.3032,-6.2498,-6.195,0.0,0.0,0.0,0.0,0.0,0.0,-3.3875,-3.4158,-3.4653,-3.5957,-3.6453,-3.6629,-3.6591,-3.6207,-3.5962,-3.5998,0.0,0.0,0.0,0.0,0.0,0.0,0.0,0.0,0.0,0.0,-3.2242,-3.2342,-3.2342,0.0,0.0,0.0,0.0,0.0,0.0,-3.4554,-3.5083,-3.5595,0.0,0.0,0.0,0.0,0.0,0.0,0.0,0.0,0.0,0.0,0.0,0.0,0.0,0.0,-4.3484,-4.6368,0.0,0.0,-5.9273,-6.5367,-6.6225,-7.0164,-7.3343,-7.0568,-6.5727,-6.059,-5.6418,0.0,0.0,-4.6727,-4.6581,-4.6617,-4.6764,-4.7721,-4.8643,-4.9122,0.0,0.0,0.0,0.0,0.0,0.0,-6.1172,0.0,-6.5238,-6.5714,-6.5902,-6.6019,-6.4494,-6.3723,-6.409,-6.3282,-6.2805,-6.2805,-6.442,-6.5461,-6.58,-6.8416,-7.0049,-7.0635,-7.151,-7.1849,-7.1695,-7.158,-7.094,-6.9934,-6.9666,-6.8894,-6.777,-6.6936,-6.622,-6.5539,-6.4931,-6.4471,-6.4017,-6.269,-6.2449,-6.2465,0.0,0.0,0.0,0.0,0.0,-3.2615,-3.3981,-3.4512,-3.5256,-3.6635,-3.7099,-3.7241,-3.7164,-3.6746,-3.6358,-3.6109,-3.6357,0.0,0.0,0.0,0.0,0.0,0.0,0.0,0.0,0.0,-3.2847,-3.3325,-3.3325,-3.3325,0.0,0.0,-3.4129,-3.3401,0.0,0.0,0.0,0.0,0.0,0.0,0.0,0.0,0.0,0.0,0.0,0.0,0.0,0.0,0.0,0.0,0.0,0.0,0.0,0.0,0.0,0.0,-5.3935,-6.0632,-6.2084,-6.6431,-7.0102,-6.8559,-6.3545,-5.8161,0.0,0.0,0.0,-4.6213,-4.6432,-4.676,-4.7463,-4.8089,-4.8569,0.0,0.0,-4.8901,-5.1115,0.0,0.0,0.0,0.0,-6.0735,-6.3961,-6.5576,-6.6478,-6.6533,-6.5228,-6.4457,-6.4457,-6.387,-6.3429,-6.3209,-6.524,-6.6409,-6.6556,-6.9038,-7.0343,-7.0425,-7.0937,-7.1168,-7.1091,-7.0787,-7.0463,-7.0095,-6.9775,-6.9055,-6.8086,-6.6996,-6.612,-6.5432,-6.451,-6.4138,-6.395,-6.2296,-6.2335,-6.2823,0.0,0.0,0.0,0.0,0.0,0.0,-3.3389,-3.4376,-3.5261,-3.6003,-3.6819,-3.7314,-3.7314,-3.7279,-3.7035,-3.6435,-3.5581,0.0,0.0,0.0,0.0,0.0,0.0,0.0,0.0,0.0,-3.4431,-3.4387,-3.4387,-3.4387,-3.4387,-3.5153,-3.5126,-3.4471,0.0,0.0,0.0,0.0,0.0,0.0,0.0,0.0,0.0,0.0,0.0,0.0,0.0,0.0,0.0,0.0,0.0,0.0,0.0,0.0,0.0,0.0,-4.9064,-5.3797,-6.0646,-6.3092,-6.416,-6.5971,-6.1456,-5.5917,0.0,0.0,0.0,-4.6651,-4.6245,-4.621,-4.8125,-4.8343,-4.8381,-4.882,-4.9233,0.0,-5.1842,0.0,0.0,0.0,0.0,-5.9437,-6.4385,-6.5877,-6.6496,-6.6516,-6.5763,-6.5301,-6.5301,-6.5301,-6.4897,-6.409,-6.6662,-6.8069,-6.8069,-7.0133,-7.1091,-7.0898,-7.1091,-7.1091,-7.0898,-7.033,-7.0095,-7.0061,-6.8978,-6.8511,-6.8362,-6.6723,-6.5716,-6.5169,-6.4076,-6.3631,-6.3407,-6.1725,-6.1988,-6.2747,0.0,0.0,0.0,0.0,0.0,0.0,0.0,-3.3987,-3.4516,-3.5297,-3.615,-3.6684,-3.6611,-3.7182,-3.7183,-3.6399,-3.6114,0.0,0.0,0.0,0.0,0.0,0.0,0.0,0.0,0.0,-3.4162,-3.4614,-3.5177,-3.5457,-3.5346,-3.6194,-3.5881,-3.4651,-3.5326,-3.5611,0.0,0.0,0.0,0.0,0.0,0.0,-3.8174,0.0,0.0,0.0,0.0,0.0,0.0,0.0,0.0,0.0,0.0,0.0,0.0,0.0,0.0,0.0,-5.3878,-5.692,-5.8966,-5.8029,-5.492,-5.1449,-4.915,0.0,0.0,0.0,-4.5763,-4.6645,-4.7349,-4.7976,-4.8494,-4.8787,-4.8973,0.0,0.0,0.0,0.0,-5.4677,-5.906,-6.2753,-6.4816,-6.6464,-6.732,-6.7303,-6.6586,-6.6109,-6.6109,-6.6109,-6.5742,-6.4971,-6.6621,-6.756,-6.756,-6.9094,-6.9887,-6.9811,-6.9887,-6.9887,-6.9775,-6.9626,-6.9353,-6.8978,-6.866,-6.7974,-6.7045,-6.5975,-6.5138,-6.4347,-6.3407,-6.2693,-6.2066,-6.1034,-6.0876,-6.0981,0.0,0.0,0.0,0.0,0.0,0.0,0.0,-3.3701,-3.4157,-3.4655,-3.5437,-3.5936,-3.5901,-3.6364,-3.6613,-3.6399,-3.6114,0.0,0.0,0.0,0.0,0.0,0.0,0.0,-3.3882,-3.4412,-3.5012,-3.5678,-3.6247,-3.6421,-3.6383,-3.6879,-3.6597,-3.5753,-3.6003,-3.6252,0.0,0.0,0.0,0.0,0.0,0.0,-3.8072,0.0,0.0,0.0,0.0,0.0,0.0,0.0,0.0,0.0,0.0,0.0,0.0,0.0,-4.3028,0.0,0.0,-5.2072,-5.3885,-5.3425,-5.1241,0.0,0.0,0.0,0.0,0.0,0.0,0.0,0.0,0.0,-4.8569,-4.8822,0.0,0.0,0.0,0.0,0.0,-5.3722,-6.0086,-6.4396,-6.4535,-6.6464,-6.7687,-6.7687,-6.7247,-6.6953,-6.6953,-6.6953,-6.6733,-6.6219,-6.7209,-6.7729,-6.7729,-6.8758,-6.9313,-6.9313,-6.9313,-6.9313,-6.9313,-6.9106,-6.8653,-6.8064,-6.7826,-6.711,0.0,-6.5191,-6.453,-6.4016,-6.3135,-6.2511,-6.1924,-6.0823,-6.0272,-5.9894,0.0,0.0,0.0,0.0,0.0,0.0,0.0,-3.3479,-3.3975,-3.4008,-3.465,-3.508,-3.515,-3.5186,-3.5541,-3.6397,0.0,0.0,0.0,0.0,0.0,0.0,0.0,0.0,-3.6078,-3.6257,-3.6611,-3.7208,-3.7279,-3.7314,-3.7314,-3.7164,-3.7241,-3.7356,-3.6573,-3.6643,0.0,0.0,0.0,0.0,0.0,0.0,0.0,0.0,0.0,0.0,0.0,0.0,0.0,0.0,0.0,0.0,0.0,0.0,0.0,0.0,0.0,0.0,0.0,0.0,0.0,0.0,0.0,0.0,0.0,0.0,0.0,0.0,0.0,0.0,0.0,0.0,0.0,0.0,0.0,0.0,0.0,-5.1143,0.0,0.0,-6.1098,-6.4692,-6.3779,-6.615,-6.7687,-6.7687,-6.7687,-6.7687,-6.7687,-6.7687,-6.7687,-6.7687,-6.8124,-6.8426,-6.8464,-6.8897,-6.9114,-6.9114,-6.9039,-6.9001,-6.9001,-6.8473,-6.7868,-6.7114,-6.6625,-6.5962,-6.5154,-6.442,-6.4053,-6.3906,-6.3135,-6.2768,-6.2548,-6.097,-6.0041,-5.9443,0.0,0.0,0.0,0.0,0.0,0.0,0.0,0.0,0.0,0.0,-3.3766,-3.4228,-3.4365,-3.4832,-3.5189,0.0,0.0,0.0,0.0,0.0,0.0,0.0,0.0,0.0,-3.4479,-3.5722,-3.6399,-3.6358,-3.7071,-3.7317,-3.7164,-3.7203,-3.7241,-3.7167,-3.7104,-3.7288,0.0,0.0,0.0,0.0,0.0,0.0,0.0,0.0,0.0,0.0,-3.7792,-3.8187,0.0,0.0,0.0,0.0,0.0,0.0,0.0,0.0,-4.2364,-4.371,-4.4669,0.0,-4.402,-4.3942,-4.396,-4.3719,0.0,0.0,0.0,0.0,0.0,0.0,0.0,0.0,0.0,0.0,0.0,0.0,-4.9814,0.0,0.0,-5.7946,-6.2837,-6.5563,-6.4155,-6.6276,-6.7687,-6.7687,-6.7687,-6.7687,-6.7687,-6.7687,-6.7687,-6.7687,-6.7221,-6.7288,-6.7878,-6.7405,-6.7123,-6.7123,-6.6494,-6.6236,-6.6236,-6.6123,-6.5962,-6.5727,-6.561,-6.5118,-6.4347,-6.4163,-6.3723,-6.3099,-6.2879,-6.2438,-6.1777,-6.0786,-6.0041,-5.9443,0.0,0.0,0.0,0.0,0.0,0.0,0.0,0.0,0.0,0.0,0.0,0.0,0.0,0.0,0.0,0.0,0.0,0.0,0.0,0.0,0.0,0.0,0.0,-3.5151,-3.5046,-3.5936,-3.6506,-3.6716,-3.7534,-3.7848,-3.7655,-3.7655,-3.7831,-3.8148,-3.799,-3.7861,0.0,0.0,0.0,0.0,-3.7828,0.0,0.0,0.0,0.0,0.0,-3.7757,-3.8295,0.0,-3.937,-3.9978,-4.0692,0.0,0.0,0.0,0.0,-4.2904,-4.396,-4.3755,-4.3764,-4.37,-4.3144,-4.3192,-4.3237,0.0,0.0,0.0,0.0,0.0,0.0,0.0,0.0,0.0,0.0,-4.9435,0.0,0.0,0.0,-5.839,-5.9516,-6.3392,-6.5888,-6.5763,-6.6953,-6.7687,-6.7687,-6.7687,-6.7687,-6.7687,-6.7687,-6.7687,-6.7687,-6.6916,-6.6696,-6.7136,-6.6366,-6.5962,-6.5925,-6.5521,-6.5301,-6.5301,-6.5301,-6.5118,-6.4751,-6.4751,-6.4273,-6.3503,-6.3503,-6.3246,-6.2805,-6.2805,-6.2548,-6.2034,-6.1263,-6.0786,-6.0334,0.0,0.0,0.0,0.0,0.0,0.0,0.0,0.0,0.0,0.0,0.0,0.0,0.0,0.0,0.0,0.0,0.0,0.0,0.0,0.0,0.0,0.0,-3.5509,-3.5793,-3.6399,-3.6506,-3.6861,-3.7569,-3.8244,-3.8518,-3.8461,-3.8304,-3.8585,-3.92,-3.877,-3.8251,0.0,0.0,-3.7757,-3.7897,-3.7685,0.0,0.0,0.0,0.0,0.0,0.0,0.0,0.0,-3.9874,-4.0738,-4.1489,-4.2358,0.0,0.0,0.0,0.0,0.0,-4.3781,-4.4592,-4.5337,-4.4916,-4.4493,-4.418,0.0,0.0,0.0,0.0,0.0,0.0,0.0,0.0,0.0,0.0,0.0,0.0,-5.3946,-5.6813,-5.9245,-6.0591,-6.3663,-6.6088,-6.7226,-6.7594,-6.765,-6.7557,-6.7614,-6.7577,-6.7357,-6.7577,-6.7577,-6.732,-6.6659,-6.6256,-6.6109,-6.5448,-6.5118,-6.5118,-6.5007,-6.4934,-6.4934,-6.4934,-6.4567,-6.3906,-6.3906,-6.3466,-6.2805,-6.2805,-6.2805,-6.2805,-6.2805,-6.2805,-6.2695,-6.1887,-6.1667,-6.1557,0.0,0.0,0.0,0.0,0.0,0.0,0.0,0.0,0.0,0.0,0.0,0.0,0.0,0.0,0.0,0.0,0.0,0.0,0.0,0.0,0.0,-3.722,-3.711,-3.6825,-3.6328,-3.6858,-3.7529,-3.827,-3.8298,-3.8602,-3.9147,-3.9021,-3.8706,-3.8269,-3.8404,-3.8138,-3.7613,-3.7613,-3.7649,-3.7757,-3.754,0.0,0.0,0.0,0.0,0.0,0.0,0.0,0.0,-3.991,-4.0775,-4.1566,-4.2515,0.0,0.0,0.0,0.0,0.0,-4.4283,-4.5336,-4.5708,-4.4335,-4.4448,-4.4664,0.0,0.0,0.0,0.0,0.0,0.0,0.0,0.0,0.0,0.0,0.0,-5.4875,-5.8555,-6.0787,-6.2132,-6.2325,-6.5286,-6.6859,-6.5764,-6.6912,-6.7447,-6.6728,-6.7337,-6.71,-6.5742,-6.6953,-6.7063,-6.5705,-6.5558,-6.5154,-6.4457,-6.4347,-6.4273,-6.4273,-6.3539,-6.3209,-6.3209,-6.3209,-6.3135,-6.3025,-6.3025,-6.2915,-6.2805,-6.2805,-6.2805,-6.2805,-6.2805,-6.2805,-6.2695,-6.1887,-6.2034,-6.2401,0.0,0.0,0.0,0.0,0.0,0.0,0.0,0.0,0.0,0.0,0.0,0.0,0.0,0.0,0.0,0.0,0.0,0.0,0.0,0.0,-3.754,-3.7577,-3.7466,-3.7251,-3.6896,-3.764,-3.8093,-3.8214,-3.9054,-3.9483,-3.9617,-3.9652,-3.9076,-3.8082,-3.8289,-3.8099,-3.7577,-3.7577,-3.7685,-3.7757,0.0,0.0,0.0,0.0,0.0,0.0,0.0,0.0,0.0,0.0,-4.0341,-4.1417,-4.1893,0.0,0.0,0.0,0.0,0.0,-4.4449,-4.5344,-4.5968,-4.5816,-4.6032,-4.6277,-4.6434,0.0,0.0,0.0,0.0,0.0,0.0,0.0,-5.0337,-5.2382,0.0,-5.8055,-5.9969,-6.1312,-6.2511,-6.3379,-6.5176,-6.6455,-6.6544,-6.7263,-6.7357,-6.6565,-6.6859,-6.6549,-6.5375,-6.5999,-6.6072,-6.5338,-6.4897,-6.4457,-6.409,-6.3613,-6.3392,-6.3392,-6.2989,-6.2805,-6.2805,-6.2805,-6.2805,-6.2805,-6.2365,-6.2401,-6.2768,-6.2328,-6.2401,-6.2805,-6.2805,-6.2805,-6.2768,-6.2401,-6.2218,-6.1998,0.0,0.0,0.0,0.0,0.0,0.0,0.0,0.0,0.0,0.0,0.0,0.0,0.0,0.0,0.0,0.0,0.0,0.0,0.0,0.0,-3.7577,-3.7577,-3.7466,-3.7463,-3.7603,-3.8206,-3.8691,-3.8936,-4.0044,-4.0533,-4.0435,-4.0214,-3.9443,-3.8321,-3.836,-3.8026,-3.7503,-3.7503,-3.7577,-3.7721,0.0,0.0,0.0,0.0,0.0,0.0,0.0,0.0,0.0,0.0,0.0,0.0,0.0,0.0,0.0,-4.249,-4.2956,-4.3601,-4.4443,-4.5257,-4.6167,-4.7443,0.0,-4.7399,-4.8764,0.0,0.0,0.0,0.0,0.0,0.0,-5.0373,0.0,-5.6416,-5.8957,-6.0774,-6.1691,-6.2365,-6.3282,-6.4751,-6.5485,-6.6256,-6.7283,-6.7393,-6.7043,-6.6014,-6.6109,-6.5778,-6.4787,-6.5081,-6.5118,-6.4751,-6.431,-6.3906,-6.3503,-6.2842,-6.2511,-6.2511,-6.2732,-6.2622,-6.2254,-6.2438,-6.2438,-6.2218,-6.1594,-6.1667,-6.2218,-6.1777,-6.1961,-6.2548,-6.2732,-6.2805,-6.2805,-6.2805,-6.2291,-6.152,0.0,0.0,0.0,0.0,0.0,0.0,0.0,0.0,0.0,0.0,0.0,0.0,0.0,0.0,0.0,0.0,0.0,0.0,0.0,0.0,-3.7466,-3.7577,-3.7392,-3.7633,-3.8302,-3.8294,-3.9341,-4.1358,-4.1196,-4.1429,-4.2029,-4.07,-3.9765,-3.9182,-3.8647,-3.7909,-3.7129,-3.7241,-3.7241,-3.7129,-3.693,0.0,0.0,0.0,0.0,0.0,0.0,0.0,0.0,0.0,0.0,0.0,0.0,0.0,-4.1558,-4.2271,-4.244,-4.2757,-4.4342,-4.5387,-4.6398,-4.8163,-4.7363,0.0,-4.9561,-4.9574,0.0,-5.1827,0.0,0.0,0.0,-5.0753,-5.339,-5.7923,-6.0225,-6.2585,-6.5632,-6.6109,-6.6476,-6.732,-6.7467,-6.7247,-6.6639,-6.6565,-6.5956,-6.4375,-6.4985,-6.4677,-6.3099,-6.4457,-6.4604,-6.3025,-6.3723,-6.3356,-6.1777,-6.1704,-6.1704,-6.1704,-6.2438,-6.2034,-6.0603,-6.1337,-6.1263,-6.0566,-6.0529,-6.0529,-6.0639,-6.13,-6.163,-6.1741,-6.2511,-6.2805,-6.2805,-6.2805,-6.2291,-6.1594,0.0,0.0,0.0,0.0,0.0,0.0,0.0,0.0,0.0,0.0,0.0,0.0,0.0,0.0,0.0,0.0,0.0,0.0,0.0,-3.7071,-3.7142,-3.6682,-3.7069,-3.7382,-3.7588,-3.8536,-3.9575,-4.0682,-4.0989,-4.1279,-4.1475,-4.013,-3.9398,-3.9252,-3.8068,-3.7369,-3.7126,-3.758,-3.747,-3.7044,-3.7411,-3.7225,0.0,0.0,0.0,0.0,0.0,0.0,0.0,0.0,-3.9815,-4.0036,0.0,0.0,-4.2051,-4.2216,-4.2369,-4.2808,-4.43,-4.5036,-4.575,-4.6994,0.0,0.0,0.0,0.0,0.0,-5.366,-5.4205,0.0,0.0,0.0,-5.6593,-5.9322,-6.2132,-6.4677,-6.6916,-6.7247,-6.7173,-6.699,-6.6953,-6.6623,-6.5815,-6.5742,-6.5096,-6.3443,-6.3576,-6.3025,-6.141,-6.1924,-6.1961,-6.1337,-6.163,-6.1484,-6.086,-6.086,-6.0603,-6.0126,-6.0933,-6.1006,-6.0419,-6.0713,-6.0676,-6.0382,-5.9869,-5.9942,-6.0382,-6.0199,-6.0713,-6.1667,-6.2511,-6.2805,-6.2805,-6.2805,-6.2622,-6.2218,0.0,0.0,0.0,0.0,0.0,0.0,0.0,0.0,0.0,0.0,0.0,0.0,0.0,0.0,0.0,0.0,0.0,0.0,-3.6465,-3.6958,-3.6993,-3.65,-3.6958,-3.727,-3.7478,-3.8496,-3.9568,-4.0568,-4.1,-4.1047,-4.0804,-3.9417,-3.8853,-3.8942,-3.7853,-3.7396,-3.7431,-3.8164,-3.8158,-3.7615,-3.8098,-3.777,0.0,0.0,0.0,0.0,0.0,0.0,0.0,0.0,0.0,0.0,0.0,0.0,0.0,0.0,-4.2608,-4.3458,-4.4492,-4.5126,-4.5658,0.0,0.0,0.0,0.0,0.0,0.0,-5.5958,-5.6237,-5.5848,-5.5577,0.0,-5.806,-6.0652,-6.3452,-6.5852,-6.7467,-6.7467,-6.71,-6.6549,-6.6256,-6.5778,-6.5007,-6.4692,-6.3957,-6.2548,-6.2181,-6.1557,-6.0456,-6.0419,-6.0419,-6.0419,-6.0419,-6.0272,-6.0015,-6.0015,-5.9612,-5.8841,-5.9391,-5.9648,-5.9648,-5.9905,-5.9905,-5.9612,-5.9061,-5.9134,-5.9612,-5.9467,-6.0461,-6.2122,-6.2678,-6.2993,-6.3025,-6.2767,-6.2597,-6.2168,0.0,0.0,0.0,0.0,0.0,0.0,0.0,0.0,0.0,0.0,0.0,0.0,0.0,0.0,0.0,0.0,0.0,0.0,-3.7279,-3.7129,-3.7129,-3.7279,-3.7087,-3.7361,-3.8289,-3.8169,-3.9252,-4.1569,-4.1436,-4.1006,-4.0272,-3.8734,-3.8082,-3.8325,-3.8325,-3.8204,-3.807,-3.8888,-3.9076,-3.8807,-3.8938,-3.8451,-3.7698,0.0,0.0,0.0,0.0,0.0,0.0,0.0,0.0,0.0,0.0,0.0,0.0,0.0,-4.3144,-4.4693,-4.5106,-4.5689,0.0,0.0,0.0,0.0,0.0,0.0,0.0,-5.9005,-5.7664,-5.6255,-5.8397,-5.7042,-5.7098,-6.1646,-6.4046,-6.5852,-6.743,-6.699,-6.6476,-6.6476,-6.5757,-6.4949,-6.4127,-6.3272,-6.2475,-6.163,-6.086,-6.0382,-6.0382,-6.0382,-6.0382,-6.0382,-6.0382,-6.0015,-5.9208,-5.9208,-5.8804,-5.7997,-5.7997,-5.7997,-5.8033,-5.8841,-5.8767,-5.7997,-5.7997,-5.7997,-5.8079,-5.9356,-6.1122,-6.305,-6.3088,-6.3268,-6.3482,-6.2699,-6.2048,-6.1349,0.0,0.0,0.0,0.0,0.0,0.0,0.0,0.0,0.0,0.0,0.0,0.0,0.0,0.0,0.0,0.0,0.0,0.0,-3.5573,-3.5881,-3.5878,-3.5355,-3.5805,-3.6225,-3.647,-3.7405,-3.8559,-3.9826,-3.9783,-3.9678,-3.9433,-3.8537,-3.8327,-3.8818,-3.765,-3.7666,-3.8547,-3.807,-3.82,-3.8639,-3.8684,-3.8589,-3.846,0.0,0.0,0.0,0.0,0.0,0.0,0.0,0.0,0.0,0.0,0.0,0.0,-4.178,-4.2399,-4.3279,-4.3775,-4.4502,0.0,0.0,0.0,0.0,0.0,0.0,0.0,0.0,-5.8542,-5.7474,-5.7982,-5.8553,-5.9417,-6.0762,-6.2938,-6.4824,-6.5888,-6.5815,-6.5448,-6.4846,-6.4604,-6.392,-6.2487,-6.212,-6.1385,-6.0015,-5.9685,-5.9318,-5.8731,-5.8694,-5.8694,-5.8694,-5.8694,-5.8584,-5.8364,-5.8364,-5.8253,-5.7997,-5.7997,-5.7997,-5.7997,-5.8253,-5.8217,-5.7997,-5.7997,-5.7997,-5.8079,-5.9356,-6.0449,-6.143,-6.2251,-6.2267,-6.1831,-6.1837,-6.1056,-5.9828,0.0,0.0,0.0,0.0,0.0,0.0,0.0,0.0,0.0,0.0,0.0,0.0,0.0,0.0,0.0,0.0,0.0,0.0,0.0,-3.5489,-3.5444,-3.4917,-3.5409,-3.5832,-3.6147,-3.7021,-3.772,-3.8209,-3.8531,-3.8572,-3.8257,-3.8158,-3.8292,-3.8664,-3.8223,-3.8304,-3.8772,-3.8555,-3.8684,-3.9043,-3.9267,-3.9267,-3.9257,0.0,0.0,0.0,0.0,0.0,0.0,0.0,0.0,0.0,0.0,0.0,0.0,-4.2061,-4.2711,-4.3571,-4.396,0.0,0.0,0.0,0.0,0.0,0.0,0.0,0.0,0.0,-5.9944,-5.9087,-5.97,-5.9894,-6.0236,-6.119,-6.2915,-6.4383,-6.5191,-6.4751,-6.4163,-6.3635,-6.3025,-6.2218,-6.119,-6.0823,-6.0236,-5.9281,-5.8914,-5.851,-5.8033,-5.7997,-5.785,-5.7519,-5.7813,-5.785,-5.7519,-5.785,-5.7997,-5.7997,-5.7997,-5.7997,-5.7997,-5.7997,-5.7997,-5.7997,-5.7997,-5.8097,-5.8363,-5.9316,-6.0041,-6.0712,-6.1582,-6.1614,-6.1087,-6.0619,-5.9771,-5.8591,0.0,0.0,0.0,0.0,0.0,0.0,0.0,0.0,0.0,0.0,0.0,0.0,0.0,0.0,0.0,0.0,0.0,0.0,0.0,0.0,-3.5614,-3.5501,-3.5684,-3.6073,-3.6771,-3.6891,-3.6891,-3.6771,-3.7591,-3.7672,-3.7005,-3.7742,-3.8082,-3.8133,-3.9443,-3.9633,-3.8989,-3.98,-4.0026,-3.9939,-4.0272,-4.0263,-4.0179,-4.1297,0.0,0.0,0.0,0.0,0.0,0.0,0.0,0.0,0.0,0.0,0.0,-4.2671,-4.3607,-4.4814,0.0,0.0,0.0,0.0,0.0,0.0,0.0,-5.9615,-6.2281,-6.2457,0.0,-6.108,-6.2498,-6.1006,-6.0236,-6.2365,-6.3356,-6.409,-6.4787,-6.3539,-6.2585,-6.2585,-6.13,-6.0334,-6.0201,-5.9553,-5.9077,-5.9003,-5.8234,-5.784,-5.7886,-5.7813,-5.7446,-5.6712,-5.7483,-5.7483,-5.6712,-5.7556,-5.796,-5.7886,-5.796,-5.7997,-5.7997,-5.7997,-5.7997,-5.7997,-5.7997,-5.8282,-5.8716,-5.9139,-5.9807,-6.0629,-6.1147,-6.1196,-6.0795,-5.9292,-5.8373,-5.7586,0.0,0.0,0.0,0.0,0.0,0.0,0.0,0.0,0.0,0.0,0.0,0.0,0.0,0.0,0.0,0.0,0.0,0.0,0.0,0.0,-3.5456,-3.5416,-3.5972,-3.6429,-3.6568,-3.6568,-3.6643,-3.6725,-3.7066,-3.7145,-3.7005,-3.7742,-3.8362,-3.8874,-3.918,-3.9565,-3.987,-3.9503,-4.0114,-4.1288,-4.0785,-4.0891,-4.1376,-4.0997,-4.0715,0.0,0.0,0.0,0.0,0.0,0.0,0.0,0.0,-4.195,-4.2671,-4.2625,-4.3517,-4.4563,0.0,0.0,0.0,0.0,0.0,0.0,0.0,-5.9773,-6.0787,-6.0638,-6.1519,-6.2352,-6.2581,-6.2265,-6.1998,-6.1887,-6.1998,-6.1961,-6.152,-6.1153,-6.0933,-6.0933,-6.0603,-5.993,-5.8718,-5.8428,-5.8058,-5.7442,-5.6645,-5.6455,-5.6997,-5.6455,-5.6014,-5.5868,-5.6638,-5.6675,-5.5868,-5.7262,-5.7666,-5.7079,-5.7703,-5.7997,-5.7997,-5.7997,-5.7997,-5.7997,-5.7997,-5.8282,-5.8713,-5.8796,-5.9178,-5.9767,-6.0417,-6.007,-5.9148,-5.8519,-5.7388,-5.6049,0.0,0.0,0.0,0.0,0.0,0.0,0.0,0.0,0.0,0.0,0.0,0.0,0.0,0.0,0.0,0.0,0.0,0.0,0.0,0.0,-3.5376,-3.5296,-3.5987,-3.6444,-3.6485,-3.6561,-3.6643,-3.6684,-3.7155,-3.7276,-3.7005,-3.8164,-3.8859,-3.9238,-3.9887,-4.0281,-4.0289,-3.9518,-3.9912,-4.1016,-4.0369,-4.0468,-4.1086,-4.1094,-4.0805,-4.0516,-4.0736,0.0,0.0,0.0,0.0,0.0,0.0,0.0,-4.3139,-4.3139,-4.4237,-4.5401,0.0,0.0,0.0,0.0,0.0,0.0,0.0,-5.9538,-6.0261,-5.9713,-6.0689,-6.1618,-6.1569,-6.1618,-6.152,-6.108,-6.1043,-6.0896,-6.0456,-6.0089,-5.97,-5.932,-5.8992,-5.8223,-5.7036,-5.6597,-5.6224,-5.583,-5.5425,-5.5328,-5.5702,-5.566,-5.5427,-5.5023,-5.5794,-5.5831,-5.5023,-5.6235,-5.6638,-5.6235,-5.6638,-5.6859,-5.6859,-5.7629,-5.7997,-5.7997,-5.7997,-5.8142,-5.8375,-5.8591,-5.8713,-5.8791,-5.9384,-5.9107,-5.8238,-5.7273,-5.6415,-5.5552,0.0,0.0,0.0,0.0,0.0,0.0,0.0,0.0,0.0,0.0,0.0,0.0,0.0,0.0,0.0,0.0,0.0,0.0,0.0,0.0,0.0,-3.5346,-3.5931,-3.6318,-3.6478,-3.6602,-3.6684,-3.6684,-3.745,-3.7609,-3.7216,-3.8754,-3.9498,-3.9568,-4.0885,-4.1139,-4.0531,-4.0004,-4.0102,-4.0586,-4.0123,-4.0222,-4.0639,-4.1218,-4.0964,-4.0377,-4.0961,-4.1139,-4.114,-4.1093,0.0,0.0,0.0,0.0,-4.3698,-4.3745,-4.5012,-4.6351,0.0,0.0,0.0,0.0,0.0,0.0,0.0,-5.8914,-5.9648,-5.9098,-5.9758,-6.0419,-6.0419,-6.0309,-6.0199,-6.0199,-6.0089,-5.9942,-5.9795,-5.9113,-5.8312,-5.7614,-5.6809,-5.6009,-5.5213,-5.4543,-5.4288,-5.4398,-5.4255,-5.4301,-5.4544,-5.4939,-5.4876,-5.4216,-5.495,-5.4987,-5.4216,-5.5133,-5.5537,-5.539,-5.5537,-5.5574,-5.5647,-5.6969,-5.7666,-5.7776,-5.7776,-5.7886,-5.8042,-5.8418,-5.8332,-5.8042,-5.8418,-5.8332,-5.7821,-5.6206,-5.5653,-5.5495,0.0,0.0,0.0,0.0,0.0,0.0,0.0,0.0,0.0,0.0,0.0,0.0,0.0,0.0,0.0,0.0,0.0,0.0,-3.5312,0.0,0.0,-3.5925,-3.6114,-3.6225,-3.6268,-3.6437,-3.6602,-3.6684,-3.7415,-3.7853,-3.7988,-3.9441,-4.0262,-4.0468,-4.1349,-4.14,-4.0778,-4.1428,-4.1789,-4.186,-4.1795,-4.1747,-4.1697,-4.1004,-4.0602,-4.0403,-4.0323,-4.0732,-4.1335,-4.1012,-4.1509,0.0,0.0,0.0,-4.3745,-4.3979,-4.4741,-4.58,0.0,0.0,0.0,0.0,0.0,0.0,0.0,0.0,-5.7446,-5.8033,-5.9355,-6.0419,-6.0419,-5.9832,-5.9391,-5.9391,-5.8767,-5.807,-5.7373,-5.6696,-5.5966,-5.5143,-5.4437,-5.3697,-5.2922,-5.2745,-5.2892,-5.3509,-5.291,-5.3053,-5.4371,-5.3842,-5.3482,-5.3371,-5.4142,-5.4179,-5.3371,-5.484,-5.5244,-5.4583,-5.5244,-5.5574,-5.5611,-5.5794,-5.6308,-5.6969,-5.6969,-5.7373,-5.7997,-5.8088,-5.8088,-5.7997,-5.8051,-5.8088,-5.7784,-5.5776,-5.5384,-5.5495,0.0,0.0,0.0,0.0,0.0,0.0,0.0,0.0,0.0,0.0,0.0,0.0,0.0,0.0,0.0,-3.3609,-3.3835,-3.4479,-3.5732,-3.5934,-3.6062,-3.6191,-3.6191,-3.6268,-3.6395,-3.6444,-3.6561,-3.6684,-3.7868,0.0,0.0,-4.0832,-4.1578,-4.1449,-4.2644,-4.2881,-4.2299,-4.203,-4.1952,-4.1995,-4.1456,-4.123,-4.1145,-4.1165,-4.0788,-4.0298,-4.0572,-4.0828,-4.1175,-4.1497,-4.189,-4.2345,-4.2509,0.0,0.0,0.0,-4.5623,0.0,0.0,0.0,0.0,0.0,0.0,0.0,0.0,0.0,-5.6235,-5.6565,-5.7226,-5.7997,-5.8877,-5.8767,-5.84,-5.7923,-5.7556,-5.6905,-5.5702,-5.5317,-5.4712,-5.3525,-5.305,-5.2566,-5.1809,-5.1691,-5.1871,-5.2123,-5.2147,-5.2426,-5.3063,-5.2781,-5.2599,-5.2599,-5.217,-5.2134,-5.2599,-5.2899,-5.3251,-5.3739,-5.4106,-5.4252,-5.4252,-5.4252,-5.495,-5.6161,-5.6602,-5.7005,-5.7373,-5.7813,-5.7997,-5.7997,-5.7997,-5.7997,-5.7747,-5.5598,-5.4909,-5.4882,0.0,0.0,0.0,0.0,0.0,0.0,0.0,0.0,0.0,0.0,0.0,0.0,0.0,0.0,0.0,0.0,-3.3653,-3.4466,-3.5805,-3.5959,-3.6105,-3.6276,-3.6233,-3.6276,-3.652,-3.6561,-3.6602,-3.6725,0.0,0.0,-3.9482,-4.1974,-4.2943,0.0,-4.3837,-4.4139,-4.3665,-4.2589,-4.2184,-4.2192,-4.1251,-4.0954,-4.1113,-4.171,-4.1541,-4.107,-4.1534,-4.1648,-4.1717,-4.2272,-4.2714,-4.3019,-4.3545,-4.4305,0.0,0.0,0.0,-4.8586,0.0,0.0,0.0,0.0,0.0,0.0,0.0,0.0,-5.473,-5.495,-5.4987,-5.5427,-5.6822,-5.7262,-5.7189,-5.6602,-5.6356,-5.5796,-5.4448,-5.3778,-5.2998,-5.1628,-5.1198,-5.0798,-5.0345,-5.0513,-5.0793,-5.1094,-5.1708,-5.2159,-5.2381,-5.2025,-5.1788,-5.1788,-5.0459,-5.0267,-5.1499,-5.1321,-5.1923,-5.3225,-5.3225,-5.3225,-5.3225,-5.3225,-5.3849,-5.5023,-5.5831,-5.6308,-5.6565,-5.7373,-5.7703,-5.7703,-5.7923,-5.7886,-5.7454,-5.5365,-5.4469,-5.4105,0.0,0.0,0.0,0.0,0.0,0.0,0.0,0.0,0.0,0.0,0.0,0.0,-3.4856,-3.4822,-3.4555,-3.3917,-3.3882,-3.4226,-3.5015,-3.5651,-3.6062,-3.6225,-3.6276,0.0,-3.6485,-3.6643,-3.6725,-3.6771,0.0,0.0,-3.9392,-4.2537,-4.4036,-4.4011,-4.4343,-4.4476,-4.4405,-4.3412,-4.2997,-4.2873,-4.193,-4.199,-4.2693,-4.2728,-4.3057,-4.3476,-4.3402,-4.345,-4.3545,-4.3374,-4.4091,-4.4786,-4.399,-4.4448,-4.5411,0.0,0.0,0.0,0.0,0.0,0.0,0.0,0.0,0.0,0.0,0.0,-5.238,-5.3188,-5.3335,-5.3592,-5.4436,-5.5207,-5.5684,-5.5647,-5.5119,-5.4412,-5.3496,-5.16,-5.0028,-4.9188,-4.7888,-4.7306,-4.7859,-4.8557,-4.9556,-5.0843,-5.1633,-5.2381,-5.3103,-5.1827,-5.1085,-5.1085,-4.9686,-4.9246,-4.992,-5.1244,-5.2339,-5.3225,-5.3225,-5.3225,-5.3225,-5.3225,-5.3261,-5.3371,-5.4179,-5.495,-5.5721,-5.6528,-5.6859,-5.6932,-5.7703,-5.7519,-5.6685,-5.5186,-5.415,-5.3344,0.0,0.0,0.0,0.0,0.0,0.0,0.0,0.0,0.0,0.0,0.0,0.0,0.0,-3.4438,-3.4069,-3.4076,-3.449,-3.5029,-3.5702,-3.6011,-3.6225,-3.636,-3.6886,-3.6963,-3.652,-3.7095,-3.7422,0.0,0.0,-3.9448,-4.0059,-4.2335,-4.3648,-4.4142,-4.5315,-4.563,-4.5143,-4.4316,-4.3953,-4.3873,-4.2926,-4.2978,-4.3638,-4.3627,-4.3582,-4.3533,-4.3325,-4.3149,-4.3103,-4.3385,-4.4279,-4.5317,-4.5576,-4.6517,-4.7611,-4.7957,-4.923,-5.0388,0.0,0.0,0.0,0.0,0.0,0.0,-5.2798,-5.201,-5.1365,-5.2804,-5.1899,-5.1096,-5.194,-5.3995,-5.5427,-5.4913,-5.4188,-5.309,-5.1379,-5.0095,-4.8978,-4.8196,-4.7679,-4.7617,-4.8277,-4.9457,-5.0378,-5.0839,-5.1609,-5.1967,-5.1791,-5.0412,-4.9372,-4.8972,-4.7541,-4.737,-4.8425,-5.0314,-5.1353,-5.1683,-5.2197,-5.2417,-5.2454,-5.2968,-5.3225,-5.3225,-5.3518,-5.4106,-5.4876,-5.5684,-5.6345,-5.6822,-5.7116,-5.7105,-5.6695,-5.5169,-5.4434,-5.4055,0.0,0.0,0.0,0.0,0.0,0.0,0.0,0.0,0.0,-3.4919,0.0,0.0,0.0,0.0,-3.4548,-3.476,-3.5242,-3.5675,-3.6062,-3.6148,-3.6276,-3.6444,-3.729,-3.7505,-3.7067,-3.784,-3.8265,0.0,0.0,0.0,0.0,-4.2016,-4.3044,-4.3524,-4.4882,-4.5717,-4.596,-4.5214,-4.5081,-4.5178,-4.4263,-4.4501,-4.534,-4.489,-4.4682,-4.4613,-4.3873,-4.3562,-4.3518,-4.3786,-4.4911,-4.6283,-4.6671,-4.7926,-4.9301,-4.9366,-5.0133,-5.0887,-5.0838,0.0,0.0,0.0,0.0,-4.9965,-5.1692,-5.0598,-4.9596,-5.103,-5.0131,-4.926,-4.9848,-5.216,-5.3812,-5.3261,-5.2541,-5.1528,-5.0079,-4.8826,-4.7914,-4.7701,-4.7178,-4.7241,-4.8164,-4.9385,-5.0218,-5.0431,-5.0939,-5.1042,-5.0615,-4.8981,-4.7683,-4.6728,-4.6007,-4.6217,-4.7322,-4.9161,-5.0101,-5.0148,-5.1158,-5.1522,-5.1347,-5.2146,-5.2463,-5.2463,-5.2463,-5.3097,-5.4069,-5.495,-5.5668,-5.6171,-5.6583,-5.6708,-5.6546,-5.4853,-5.4211,-5.4146,0.0,0.0,0.0,0.0,0.0,0.0,0.0,0.0,-3.3288,-3.5001,0.0,0.0,0.0,0.0,0.0,-3.6019,-3.614,-3.6131,-3.5834,-3.6105,-3.6318,-3.6318,-3.7255,-3.7958,-3.8234,-3.8811,-3.9196,0.0,0.0,0.0,0.0,0.0,-4.231,-4.225,-4.3013,-4.4633,-4.6707,-4.5996,-4.6138,-4.6742,-4.5868,-4.6518,-4.782,-4.631,-4.6302,-4.6856,-4.5272,-4.4785,-4.4869,-4.4742,-4.6096,-4.7796,-4.7226,-4.858,-5.0332,-5.0332,-5.0966,-5.1758,0.0,0.0,0.0,0.0,0.0,0.0,-4.8728,-4.7788,-4.7041,-4.7806,-4.8114,-4.8269,-4.8233,-4.9554,-5.0655,-5.0692,-5.0162,-4.9694,-4.9649,-4.7772,-4.6719,-4.7462,-4.6236,-4.5792,-4.7234,-4.8107,-4.8871,-4.9515,-4.9683,-4.9731,-4.9731,-4.7724,-4.6025,-4.4643,-4.5196,-4.584,-4.6639,-4.7914,-4.8631,-4.8777,-5.0163,-5.051,-5.0004,-5.0732,-5.1086,-5.1086,-5.1086,-5.1874,-5.3219,-5.4289,-5.4702,-5.4855,-5.5952,-5.6436,-5.6177,-5.4266,-5.3486,-5.3455,0.0,0.0,0.0,0.0,0.0,-3.3766,-3.4772,-3.4651,-3.4981,0.0,0.0,0.0,-3.7693,-3.7841,-3.734,-3.5858,-3.6399,-3.66,-3.5966,-3.5844,-3.6215,-3.7146,-3.7958,-3.8425,-3.8504,-3.9399,-3.9782,-3.9738,-3.9901,-4.0273,-4.0782,-4.1244,-4.173,0.0,-4.3013,-4.4077,-4.5409,-4.5293,-4.6189,-4.756,-4.6184,-4.6346,-4.7186,-4.571,-4.5244,-4.5351,-4.5256,-4.4795,-4.4325,-4.4596,-4.6236,-4.8508,-5.0317,-5.0925,-5.1047,-5.1134,-5.1479,-5.1808,-5.1758,0.0,0.0,0.0,0.0,0.0,-4.8776,-4.8227,-4.7651,-4.7296,-4.7117,-4.6971,-4.6654,-4.6948,-4.7462,-4.8049,-4.8995,-4.9445,-4.8945,-4.7903,-4.6963,-4.6641,-4.6748,-4.6909,-4.7186,-4.8067,-4.8699,-4.8871,-4.8524,-4.808,-4.7553,-4.6044,-4.5035,-4.4643,-4.5196,-4.5321,-4.5025,-4.6341,-4.6778,-4.6283,-4.8377,-4.9301,-4.9189,-5.0484,-5.1086,-5.1086,-5.1086,-5.1292,-5.1679,-5.2014,-5.233,-5.273,-5.3851,-5.4323,-5.4336,-5.4313,-5.4244,-5.4286,0.0,0.0,0.0,0.0,0.0,-3.48,-3.5559,-3.5855,-3.6466,0.0,0.0,0.0,-3.8345,-3.8322,-3.7694,-3.6151,-3.6864,-3.6876,-3.569,-3.5972,-3.6446,-3.7237,-3.8057,-3.8915,-3.9662,-4.0294,-4.0815,-4.1383,-4.1071,-4.1267,-4.1919,-4.2016,-4.2223,-4.2541,0.0,0.0,-4.5326,-4.569,-4.6491,-4.7536,-4.7524,-4.7986,-4.8514,-4.6988,-4.6421,-4.6212,-4.5031,-4.4453,-4.4271,-4.4234,-4.5547,-4.7867,-5.2109,-5.2128,-5.0788,-5.1718,-5.1907,-5.1808,-5.1808,-5.1151,-5.0615,-5.1021,0.0,0.0,-4.9103,-4.8212,-4.7155,-4.6644,-4.6981,-4.7255,-4.667,-4.7674,-4.8387,-4.7879,-4.8665,-4.9161,-4.8556,-4.7591,-4.6765,-4.627,-4.6111,-4.6018,-4.5874,-4.6385,-4.6757,-4.6757,-4.6484,-4.6164,-4.5868,-4.5035,-4.4418,-4.4113,-4.4448,-4.4284,-4.3494,-4.4844,-4.5215,-4.455,-4.679,-4.791,-4.8031,-4.8901,-4.9493,-4.975,-4.9646,-4.9841,-5.0209,-5.0223,-5.0614,-5.1325,-5.2432,-5.2844,-5.2941,-5.3862,-5.4328,-5.4606,0.0,0.0,-3.4623,-3.4683,-3.5123,-3.5697,-3.6422,-3.7059,-3.7782,0.0,-3.8756,-3.8745,-3.8608,-3.8316,-3.7807,-3.6888,-3.7489,-3.7191,-3.5485,-3.6363,-3.6966,-3.716,-3.8003,-3.9342,-4.1221,-4.1302,-4.1997,-4.3458,-4.2797,-4.2687,-4.303,-4.3232,-4.3197,-4.303,0.0,0.0,0.0,-4.6604,-4.6911,-4.7109,-4.899,-4.9946,-5.0052,-4.8532,-4.8005,-4.7741,-4.4711,-4.4085,-4.4636,-4.4527,-4.5003,-4.6771,-5.2727,-5.2335,-5.0091,-5.1943,-5.2192,-5.1901,-5.2108,-5.1315,-5.0667,-5.15,-4.9756,0.0,-4.9273,-4.794,-4.635,-4.5891,-4.7252,-4.8275,-4.759,-4.9804,-5.115,-4.9117,-4.8769,-4.8529,-4.8038,-4.6803,-4.596,-4.5924,-4.4848,-4.4112,-4.4041,-4.4112,-4.4112,-4.4112,-4.4126,-4.4199,-4.4338,-4.4316,-4.4012,-4.3301,-4.3301,-4.2929,-4.2185,-4.3512,-4.3838,-4.3301,-4.5383,-4.646,-4.6684,-4.6752,-4.7158,-4.78,-4.7639,-4.8037,-4.8863,-4.8978,-4.9487,-5.0366,-5.139,-5.1822,-5.2031,-5.3044,-5.3878,-5.4482,0.0,-3.6568,-3.6451,-3.7698,-3.749,-3.7335,-3.8043,-3.8284,-3.8584,-3.925,-3.9713,-3.9944,-3.9895,-3.9747,-3.9277,-3.8288,-3.8355,-3.8102,-3.7278,-3.7102,-3.7534,-3.8608,-3.8812,-3.9739,-4.1488,-4.1864,-4.2375,-4.3212,-4.3207,-4.3256,-4.3296,-4.2996,-4.2945,-4.3216,0.0,0.0,0.0,-4.6811,-4.7596,-4.7413,-4.7665,-4.7291,-4.6448,-4.5002,-4.4492,-4.4528,-4.449,-4.4562,-4.5297,-4.9119,-4.8641,-4.7197,-5.1835,-5.1937,-5.0546,-5.1011,-5.1943,-5.2967,-5.3437,-5.2564,-5.1521,-5.1918,-5.0505,0.0,-4.7649,-4.7711,-4.7395,-4.525,-4.6444,-4.7806,-4.7266,-4.7922,-4.8714,-4.9387,-4.8139,-4.6748,-4.5848,-4.5078,-4.4334,-4.3734,-4.3976,-4.3925,-4.3289,-4.3383,-4.3485,-4.3485,-4.298,-4.2717,-4.2726,-4.2726,-4.2658,-4.2523,-4.2523,-4.2151,-4.1407,-4.2275,-4.2649,-4.2523,-4.4211,-4.5331,-4.594,-4.6515,-4.6887,-4.7056,-4.7631,-4.7936,-4.8199,-4.8748,-4.908,-4.9338,-5.0181,-5.0837,-5.1488,-5.2232,-5.3075,-5.3717,-3.6928,-3.6679,-3.674,-3.7923,-3.813,-3.8476,-3.956,-4.0043,-4.0375,-4.0611,-4.0534,-4.0337,-4.0238,-4.0087,-3.9581,-3.8622,-3.8838,-3.8622,-3.7568,-3.7636,-3.8154,-3.8986,-3.8971,-3.9747,-4.1544,-4.1926,-4.2575,-4.3597,-4.3935,-4.4108,-4.4285,-4.4199,-4.4148,-4.4216,-4.4868,0.0,0.0,-4.683,-4.7166,-4.7287,-4.7867,-4.7868,-4.7362,-4.5654,-4.5002,-4.4966,-4.4784,-4.4966,-4.5847,-4.9386,-4.9336,-4.8249,-5.1153,-5.2171,-5.2287,-5.2077,-5.2982,-5.4011,-5.3816,-5.3087,-5.2322,-5.2306,-5.1141,0.0,0.0,-4.8949,-4.8635,-4.6837,-4.8209,-4.9599,-4.9007,-5.008,-5.0876,-5.0307,-4.943,-4.8221,-4.6344,-4.4729,-4.3465,-4.268,-4.2666,-4.2396,-4.1616,-4.1656,-4.1866,-4.2243,-4.192,-4.1914,-4.2286,-4.2286,-4.2117,-4.1745,-4.1745,-4.1407,-4.0663,-4.1373,-4.1948,-4.2286,-4.347,-4.4587,-4.5703,-4.5703,-4.5906,-4.6278,-4.676,-4.7098,-4.7428,-4.8545,-4.9018,-4.9086,-4.9796,-5.0338,-5.0777,-5.1894,-5.257,-5.2976,-3.6405,-3.6294,-3.6535,-3.7688,-3.8284,-3.9226,-4.0884,-4.1643,-4.2009,-4.1812,-4.1116,-4.0591,-4.0458,-4.0426,-4.0137,-3.9396,-3.983,-3.9558,-3.8355,-3.8772,-3.926,-3.9598,-3.9463,-4.0223,-4.1938,-4.2274,-4.3012,-4.4284,-4.4681,-4.5009,-4.523,-4.5441,-4.5458,-4.5383,-4.5715,0.0,0.0,-4.7011,-4.6885,-4.7079,-4.795,-4.8662,-4.8947,-4.6762,-4.6335,-4.6848,-4.5589,-4.559,-4.647,-4.8616,-4.8852,-4.8659,-5.0688,-5.2318,-5.3468,-5.3432,-5.4207,-5.4909,-5.4247,-5.3625,-5.3206,-5.3107,-5.2173,-5.1293,0.0,0.0,0.0,-4.9127,-5.0345,-5.1363,-5.0958,-5.2666,-5.3449,-5.1492,-5.1002,-5.0164,-4.7903,-4.5309,-4.3476,-4.3078,-4.2688,-4.1982,-4.0832,-4.0324,-4.0324,-4.0933,-4.1001,-4.1238,-4.1813,-4.188,-4.1576,-4.1001,-4.1001,-4.0696,-4.0087,-4.0696,-4.1339,-4.2083,-4.2861,-4.391,-4.5263,-4.479,-4.4925,-4.55,-4.5959,-4.6364,-4.6921,-4.8376,-4.9018,-4.9052,-4.9661,-4.9965,-5.0236,-5.1589,-5.2198,-5.2435,-3.6908,-3.6498,-3.6713,-3.8975,-3.9053,-3.9534,-4.1717,-4.2133,-4.2058,-4.1679,-4.1359,-4.1291,-4.1753,-4.2108,-4.2433,-4.2714,-4.245,-4.2121,-4.1726,-4.1687,-4.1701,-4.1735,-4.1735,-4.2213,-4.3186,-4.3647,-4.4268,-4.5074,-4.5338,-4.5477,-4.5389,-4.5283,-4.5574,-4.6172,-4.7059,0.0,0.0,-4.7864,-4.7926,-4.691,-4.608,-4.669,-4.7756,-4.4894,-4.588,-4.8603,-4.7311,-4.6911,-4.7276,-4.945,-4.8397,-4.6868,-5.0577,-5.137,-5.145,-5.3689,-5.4745,-5.5294,-5.5672,-5.5139,-5.4447,-5.4758,-5.4597,-5.4194,-5.3682,0.0,-5.1225,-5.099,0.0,-5.076,-5.1295,0.0,0.0,-5.2605,-5.1127,-4.9782,-4.9351,-4.6736,-4.5177,-4.5959,-4.6544,-4.5874,-4.3267,-4.1238,-4.0121,-4.0189,-4.0189,-4.0257,-4.0324,-4.0324,-4.029,-4.0223,-4.0189,-4.0155,-4.0087,-4.0155,-4.0595,-4.1339,-4.2049,-4.2861,-4.3707,-4.4316,-4.4621,-4.479,-4.6143,-4.6752,-4.6921,-4.8376,-4.9018,-4.9018,-4.9086,-4.9526,-5.0202,-5.1014,-5.1758,-5.2435,-3.662,-3.6688,-3.7247,-3.8745,-3.9181,-3.9917,-4.1698,-4.1862,-4.19,-4.2346,-4.1852,-4.2124,-4.4049,-4.3802,-4.4078,-4.5544,-4.4435,-4.3542,-4.3305,-4.322,-4.2826,-4.1925,-4.289,-4.3132,-4.2689,-4.3886,-4.4448,-4.4453,-4.5077,-4.5283,-4.5211,-4.5623,-4.6,-4.633,-4.655,-4.6742,-4.6829,-4.6229,-4.6919,-4.8233,-4.7175,-4.817,-4.9828,-4.526,-4.4747,-4.6503,-4.6054,-4.6194,-4.6658,-4.7176,-4.7312,-4.7365,-4.7867,-5.0342,-5.3203,-5.3021,-5.4815,-5.6501,-5.4884,-5.4293,-5.3977,-5.3581,-5.3619,-5.3782,-5.4372,-5.3784,-5.3208,-5.3169,0.0,0.0,0.0,0.0,0.0,0.0,-5.233,-5.1695,-5.0759,-4.9493,-4.8158,-4.6723,-4.6421,-4.5547,-4.3608,-4.3753,-4.3491,-4.2275,-4.2068,-4.2068,-4.2174,-4.0849,-4.0087,-4.0087,-4.0087,-4.0087,-4.0087,-4.0087,-4.046,-4.1204,-4.1948,-4.2692,-4.3436,-4.4215,-4.4587,-4.4654,-4.5703,-4.638,-4.6887,-4.7936,-4.8612,-4.9018,-4.9018,-4.9187,-4.956,-5.0469,-5.1116,-5.1826,-3.6747,0.0,-3.7566,-3.8367,-3.8825,-3.9617,-4.1278,-4.1747,-4.2244,-4.3186,-4.2945,-4.3765,-4.6484,-4.6498,-4.7089,-4.8994,-4.7858,-4.6618,-4.5457,-4.5676,-4.4794,-4.251,-4.4285,-4.4585,-4.3054,-4.4543,-4.5255,-4.5132,-4.5603,-4.5877,-4.5917,-4.6426,-4.6666,-4.6781,-4.693,-4.7054,-4.7047,-4.571,-4.6254,-4.7939,-4.6944,-4.7735,-4.9172,-4.6012,-4.482,-4.4783,-4.4998,-4.5581,-4.6139,-4.5407,-4.6222,-4.7257,-4.6266,-4.924,-5.2927,-5.1847,-5.3775,-5.5671,-5.2957,-5.3058,-5.3516,-5.1826,-5.2775,-5.4176,-5.4228,-5.4616,-5.4899,-5.4899,-5.4376,0.0,0.0,0.0,-5.3861,-5.2986,0.0,-5.3047,-5.1549,-5.1115,-5.0192,-4.791,-4.6882,-4.6173,-4.5554,-4.6312,-4.6167,-4.4729,-4.4461,-4.4135,-4.3741,-4.1985,-4.073,-4.0087,-4.0087,-4.0087,-4.0087,-4.0087,-4.0358,-4.0899,-4.1644,-4.2388,-4.3132,-4.391,-4.4384,-4.4621,-4.5365,-4.6109,-4.6853,-4.7597,-4.8342,-4.9018,-4.9018,-4.9018,-4.912,-5.0062,-5.074,-5.1386,-3.7853,-3.7627,-3.7521,-3.8174,-3.7909,-3.8318,-4.056,-4.2181,-4.3338,-4.3993,-4.4924,-4.6444,-4.8768,-5.0835,-5.2426,-5.3422,-5.3698,-5.2416,-4.915,-4.9837,-4.8486,-4.4117,-4.6495,-4.7037,-4.5321,-4.6239,-4.7257,-4.8241,-4.7729,-4.7729,0.0,-4.7729,-4.7649,-4.8099,-4.932,-4.8641,-4.6602,-4.7547,-4.6729,-4.4783,-4.394,-4.3397,-4.3376,-4.6845,-4.6816,-4.4993,-4.5232,-4.5787,-4.6271,-4.5446,-4.5234,-4.56,-4.73,-4.7958,-4.8474,-5.0189,-5.1213,-5.1401,-4.9835,-5.1987,-5.3687,-5.0033,-5.3315,-5.664,-5.364,-5.4428,-5.5888,-5.5888,-5.514,-5.4568,-5.4715,-5.4642,-5.4229,-5.35,-5.34,0.0,0.0,-5.0684,-5.0323,-5.0526,-4.9544,-4.9447,-5.0837,-4.8388,-4.6811,-4.685,-4.6767,-4.5852,-4.381,-4.3478,-4.232,-4.0155,-4.0087,-4.0087,-4.0087,-4.0087,-4.0087,-4.0121,-4.0865,-4.161,-4.2354,-4.3098,-4.3876,-4.4621,-4.5365,-4.6109,-4.6853,-4.7597,-4.8342,-4.9018,-4.9018,-4.9018,-4.9086,-4.983,-5.0574,-5.1319,0.0,-3.9119,-3.8584,-3.8299,-3.8939,-3.9959,-4.1292,-4.1945,-4.3677,-4.7592,-4.887,-5.1383,-5.6458,-5.7457,-5.8284,-5.9578,-5.8587,-5.6586,-5.3581,-5.3315,-5.1838,-4.8654,-4.9506,-4.9837,-4.9309,-4.9186,-4.9444,-5.006,-4.9247,-4.8915,0.0,0.0,-4.9188,-4.9898,-4.9493,-4.8414,-4.69,-4.6365,-4.5868,-4.5543,-4.5258,-4.6717,-4.8722,-4.5294,-4.3558,-4.291,-4.3114,-4.3685,-4.4251,-4.4078,-4.4027,-4.4181,-4.5357,-4.6486,-4.7603,-4.8575,-5.0362,-5.1586,-4.9588,-5.0578,-5.1629,-4.9371,-5.1765,-5.4488,-5.3774,-5.5202,-5.6621,-5.6621,-5.5979,-5.5314,-5.4889,-5.4715,-5.4276,-5.3047,-5.2848,-5.242,0.0,-5.0024,-4.9614,-5.0214,-5.0815,-5.0807,-4.9848,-5.0638,-5.0469,-4.8617,-4.868,-4.7943,-4.5966,-4.4215,-4.2281,-4.0155,-4.0087,-4.0087,-4.0087,-4.0087,-4.0324,-4.0832,-4.1576,-4.232,-4.3064,-4.3842,-4.4316,-4.4587,-4.4857,-4.5669,-4.6819,-4.7056,-4.7902,-4.9018,-4.9018,-4.9018,-4.9052,-4.9289,-4.983,-5.0642,-4.0285,-4.0012,-3.9433,-3.8683,-3.9617,-4.0656,-4.1297,-4.3539,-4.6149,-4.9011,-5.2429,-5.6044,-5.9941,-6.1571,-6.273,-6.3635,-6.2786,-6.0432,-5.6308,-5.6528,-5.5014,-5.0982,-5.1777,-5.2008,-5.1187,-5.1017,-5.1094,-5.1399,-5.0891,-5.0776,0.0,0.0,0.0,-5.094,-5.0463,-4.9699,-4.8539,-4.684,-4.6274,-4.6604,-4.6584,-4.8295,-5.0277,-4.5396,-4.386,-4.4095,-4.299,-4.2877,-4.334,-4.3736,-4.3639,-4.3538,-4.435,-4.5343,-4.6282,-4.6641,-4.8443,-4.9965,-4.8274,-4.9367,-5.0483,-4.8225,-5.0483,-5.2943,-5.1598,-5.3171,-5.4801,-5.4801,-5.4562,-5.4389,-5.4495,-5.4622,-5.425,-5.2786,-5.2624,-5.2094,0.0,-4.9446,-4.9164,-4.997,-5.0947,-5.1146,-4.9898,-5.1555,-5.1894,-5.0028,-5.0281,-4.9371,-4.669,-4.5149,-4.3069,-4.0189,-4.0087,-4.0087,-4.0087,-4.0087,-4.046,-4.1204,-4.1677,-4.2422,-4.3436,-4.3944,-4.4316,-4.4587,-4.4857,-4.5669,-4.6819,-4.709,-4.7902,-4.9018,-4.9018,-4.9018,-4.9018,-4.9018,-4.9627,-5.0642,-4.0087,-4.0121,-4.0002,-3.954,-3.9948,-4.0489,-4.092,-4.6669,-5.0348,-4.873,-5.5579,-6.0322,-5.9526,-6.3546,-6.6062,-6.5579,-6.6256,-6.398,-5.7629,-5.9575,-5.8105,-5.1605,-5.3581,-5.3688,-5.1272,-5.1896,-5.2327,-5.2493,-5.2643,-5.3071,0.0,0.0,0.0,0.0,-5.2292,-5.2193,-5.1176,-4.9049,-4.798,-4.7652,-4.7439,-4.7607,-4.787,-4.6965,-4.75,-4.8264,-4.464,-4.3403,-4.3538,-4.4282,-4.4045,-4.3606,-4.435,-4.4621,-4.4621,-4.4621,-4.5669,-4.6684,-4.6007,-4.8409,-5.027,-4.6684,-4.9627,-5.22,-4.7692,-4.8908,-5.0992,-5.0992,-5.1295,-5.1991,-5.3636,-5.415,-5.4004,-5.2786,-5.2557,-5.1827,-4.989,-4.8952,-4.8815,-4.9813,-5.0164,-5.0561,-5.1082,-5.1183,-5.1153,-5.0924,-5.1497,-5.002,-4.6075,-4.6271,-4.4562,-4.0392,-4.0121,-4.0087,-4.0121,-4.0121,-4.0527,-4.1305,-4.1305,-4.2083,-4.347,-4.347,-4.3876,-4.4621,-4.5365,-4.6109,-4.6853,-4.7597,-4.8342,-4.9018,-4.9018,-4.9018,-4.9018,-4.9018,-4.9932,-5.1251,-4.0121,-4.0476,-4.1273,-4.2328,-4.1954,-4.2343,-4.4888,-4.73,-5.022,-5.4077,-5.8952,-6.2969,-6.5213,-6.9194,-7.0914,-6.9045,-6.9045,-6.7467,-6.3392,-6.3218,-6.1922,-5.8951,-5.7242,-5.6109,-5.5616,-5.464,-5.4121,-5.4151,-5.4192,-5.4262,-5.4262,0.0,0.0,0.0,0.0,-5.2789,-5.1665,-5.163,-4.985,-4.6828,-4.4009,-4.5157,-4.8204,-4.5375,-4.6225,-4.8379,-4.4101,-4.2929,-4.3436,-4.3639,-4.3978,-4.4316,-4.4519,-4.4959,-4.5432,-4.5432,-4.6481,-4.7597,-4.7394,-4.8443,-4.9221,-4.7733,-4.9593,-5.1352,-4.9565,-5.0955,-5.2572,-5.2572,-5.2134,-5.1929,-5.2794,-5.2624,-5.2354,-5.252,-5.1897,-5.0927,-4.9756,-4.908,-4.8942,-4.9746,-4.9565,-4.9656,-5.0304,-5.0784,-5.082,-5.0217,-5.1028,-5.046,-4.7939,-4.6837,-4.506,-4.2496,-4.0915,-4.0358,-4.0899,-4.0933,-4.1576,-4.2861,-4.2861,-4.3369,-4.4282,-4.4282,-4.4384,-4.4621,-4.5365,-4.6109,-4.6853,-4.7597,-4.8342,-4.9018,-4.9018,-4.9018,-4.9018,-4.9018,-4.9593,-5.0439,-4.11,-4.1644,-4.294,-4.4995,-4.5054,-4.5925,-4.9186,-5.0585,-5.2678,-5.6422,-6.1223,-6.4429,-6.476,-6.9353,-7.1585,-6.956,-6.9379,-6.7897,-6.4296,-6.4296,-6.3305,-6.063,-5.8465,-5.7132,-5.651,-5.4325,-5.366,-5.4527,-5.3888,-5.3991,-5.4727,0.0,0.0,0.0,0.0,-5.3988,-5.354,-5.197,-5.0377,-4.8552,-4.5048,-4.5784,0.0,-4.6656,-4.638,-4.6752,-4.4215,-4.3335,-4.347,-4.3809,-4.3978,-4.4147,-4.4485,-4.4857,-4.5331,-4.5974,-4.6549,-4.709,-4.7733,-4.8206,-4.8443,-4.8037,-4.9297,-5.0332,-4.8944,-4.978,-5.0759,-5.0477,-4.9883,-4.9722,-5.0694,-5.1227,-5.1758,-5.2491,-5.1495,-5.0592,-5.0289,-4.9787,-4.9653,-5.0284,-5.0075,-4.9974,-5.0349,-5.021,-4.9809,-4.9122,-5.036,-4.9792,-4.6681,-4.7435,-4.6649,-4.3934,-4.3051,-4.3308,-4.4621,-4.2997,-4.3098,-4.4891,-4.391,-4.3809,-4.4587,-4.4587,-4.4587,-4.4654,-4.5703,-4.6413,-4.6887,-4.7936,-4.8646,-4.9018,-4.9018,-4.9018,-4.9052,-4.9357,-4.9965,-5.0477,-4.3051,-4.3668,-4.5043,-4.7352,-4.8541,-5.0368,-5.3993,-5.5156,-5.622,-5.7726,-6.2994,-6.5435,-6.2258,-6.7306,-7.0345,-6.8823,-6.8575,-6.6913,-6.3241,-6.4266,-6.3447,-5.9708,-5.8658,-5.7363,-5.5671,-5.2729,-5.2131,-5.411,-5.2672,-5.3075,0.0,0.0,0.0,0.0,0.0,0.0,0.0,-5.1128,-4.9937,-5.0652,-4.7513,-4.7208,-4.8651,-4.847,-4.6819,-4.4587,-4.4587,-4.4147,-4.3673,-4.435,-4.4147,-4.3673,-4.435,-4.4654,-4.4993,-4.638,-4.6413,-4.6312,-4.7699,-4.8003,-4.7902,-4.8022,-4.886,-4.924,-4.7316,-4.7442,-4.7755,-4.6961,-4.6667,-4.6986,-4.8303,-5.0159,-5.1691,-5.2124,-5.1358,-5.076,-5.1128,-5.0593,-5.036,-5.096,-5.0858,0.0,-5.0627,-4.9767,-4.8894,-4.8397,-4.9792,-4.9053,-4.5243,-4.8259,-4.8612,-4.5399,-4.5546,-4.6724,-4.868,-4.5196,-4.4519,-4.6616,-4.4553,-4.391,-4.4587,-4.4587,-4.4621,-4.479,-4.6177,-4.6853,-4.7056,-4.8443,-4.9018,-4.9018,-4.9018,-4.9086,-4.9255,-4.9864,-5.0642,-5.1153,-4.6045,-4.6873,-4.7783,-4.8983,-5.0918,-5.4149,-5.9574,-5.8588,-5.8462,-6.2272,-6.5942,-6.788,-6.7023,-6.9871,-7.1195,-6.9566,-6.8823,-6.7621,-6.5605,-6.5746,-6.4721,-6.2202,-6.0083,-5.7985,-5.5827,-5.2803,-5.2097,-5.4018,-5.2639,-5.3344,-5.5984,-5.4858,0.0,0.0,0.0,0.0,-5.4117,-5.0748,-4.8745,-4.7588,-4.4393,-4.4067,-4.5422,-4.5422,-4.5026,-4.4587,-4.4587,-4.4485,-4.4384,-4.4519,-4.4485,-4.4384,-4.4553,-4.5026,-4.5669,-4.6549,-4.7158,-4.7733,-4.8578,-4.8376,-4.8022,-4.8529,-4.8377,-4.7983,-4.7631,-4.81,-4.8264,-4.7063,-4.6786,-4.6937,-4.7659,-4.9955,-5.1328,-5.0092,-5.1225,-5.2187,-5.2117,-5.0092,-4.9227,-5.1057,-5.0021,-4.9525,-5.0359,-5.0048,-4.9843,-5.0192,-5.0493,-5.0626,-5.0459,-5.0085,-4.9544,-4.8904,-4.622,-4.5591,-4.7158,-4.4688,-4.4248,-4.5872,-4.4857,-4.4451,-4.4587,-4.4587,-4.4925,-4.5568,-4.6413,-4.7158,-4.7767,-4.8646,-4.9018,-4.9018,-4.9018,-4.952,-5.0198,-5.0101,-5.0947,-5.1963,-4.9161,-4.9909,-5.089,-5.2013,-5.4222,-5.726,-6.1963,-6.2487,-6.3128,-6.5378,-6.6505,-6.6724,-6.5857,-6.8555,-6.9703,-6.7765,-6.7246,-6.6381,-6.4858,-6.4408,-6.3335,-6.1397,-5.9185,-5.7261,-5.5788,-5.1613,-5.136,-5.5147,-5.2168,-5.2736,-5.6604,-5.528,-5.4824,-5.4968,0.0,-5.4023,-5.3543,-4.9297,-4.7208,-4.6699,-4.3999,-4.3572,-4.4587,-4.4587,-4.4587,-4.4587,-4.4587,-4.4587,-4.4587,-4.4587,-4.4587,-4.4587,-4.4587,-4.4823,-4.5263,-4.6007,-4.6481,-4.6921,-4.7665,-4.7902,-4.798,-4.8161,-4.8557,-4.8765,-4.8384,-4.8868,-4.9126,-4.815,-4.7327,-4.6963,-4.7524,-4.8073,-4.8651,-4.9324,-5.0559,-5.1658,-5.2024,-5.0859,-5.0192,-5.0892,-5.0248,-4.9816,-4.9826,-5.0459,-5.0792,-5.0693,-5.0826,-5.0723,-5.0255,-5.0885,-5.0477,-4.8894,-4.8064,-4.8606,-5.0683,-4.6625,-4.6085,-4.8933,-4.5983,-4.4587,-4.4587,-4.4587,-4.4993,-4.5737,-4.6481,-4.7225,-4.797,-4.8714,-4.9018,-4.9018,-4.9018,-4.9757,-5.0866,-5.104,-5.162,-5.2232,-5.2459,-5.2836,-5.3583,-5.5416,-5.7216,-5.9451,-6.2606,-6.5039,-6.6942,-6.7935,-6.7257,-6.6203,-6.5053,-6.7286,-6.8064,-6.6102,-6.5764,-6.5019,-6.3396,-6.2719,-6.1637,-5.9945,-5.7915,-5.6461,-5.575,-5.0744,-5.0483,-5.5353,-5.1697,-5.2163,-5.6437,-5.5843,-5.5252,-5.4662,-5.3213,-5.2332,-5.1715,-4.7657,-4.5974,-4.5906,-4.4147,-4.3876,-4.4587,-4.4587,-4.4587,-4.4587,-4.4587,-4.4587,-4.4587,-4.4587,-4.4587,-4.4587,-4.4587,-4.4587,-4.4756,-4.5669,-4.594,-4.6143,-4.7022,-4.7683,-4.8055,-4.7941,-4.8841,-4.9542,-4.873,-4.918,-4.9528,-4.8727,-4.7597,-4.6862,-4.712,-4.675,-4.7127,-4.9323,-5.0459,-5.1389,-5.2427,-5.1525,-5.0724,-5.0589,-5.0119,-4.962,-4.916,-5.0827,-5.1564,-5.0793,-5.1023,-5.0447,-4.8933,-5.118,-5.1346,-4.868,-4.9961,-5.1657,-5.3651,-4.8624,-4.7747,-5.0856,-4.6625,-4.4756,-4.5026,-4.4891,-4.5297,-4.621,-4.6786,-4.7462,-4.8206,-4.8781,-4.9018,-4.9018,-4.899,-4.9961,-5.1439,-5.182,-5.223,-5.2503,-5.6165,-5.5348,-5.5209,-5.8084,-5.8761,-5.9633,-6.1807,-6.4262,-6.7066,-7.0507,-7.0284,-6.9722,-6.9586,-6.8639,-6.7658,-6.6779,-6.6102,-6.4783,-6.2618,-6.2415,-6.14,-5.9201,-5.7645,-5.6461,-5.575,-5.1251,-5.0042,-5.2371,-5.1798,-5.2535,-5.4589,-5.6325,-5.5458,-5.2638,-5.3145,-5.0811,-4.6447,-4.6616,-4.5534,-4.3707,-4.3504,-4.3876,-4.4587,-4.4587,-4.4587,-4.4587,-4.4587,-4.4587,-4.4587,-4.4587,-4.4587,-4.4587,-4.4587,-4.4587,-4.4857,-4.6278,-4.6684,-4.6989,-4.8409,-4.8812,-4.8834,-4.873,-4.8767,-4.871,-4.7993,-4.8384,-4.854,-4.7301,-4.6887,-4.6616,-4.5949,-4.7787,-4.9617,-5.0359,-5.1988,-5.3559,-5.4764,-5.1181,-4.8894,-5.0042,-4.82,-4.7358,-4.8453,-5.0692,-5.1765,-5.1024,-5.0991,-5.0382,-4.9024,-5.1116,-5.1894,-5.0947,-5.1494,-5.1697,-5.1457,-4.8798,-4.7383,-4.7293,-4.5466,-4.5297,-4.6549,-4.5906,-4.638,-4.7733,-4.78,-4.824,-4.8917,-4.8984,-4.9018,-4.9018,-4.9001,-5.0207,-5.1953,-5.1961,-5.2572,-5.3382,-5.8671,-5.9478,-6.0072,-6.0738,-6.2809,-6.4262,-6.4098,-6.6559,-6.8774,-6.9857,-6.9722,-6.935,-6.8876,-6.7861,-6.6779,-6.5595,-6.441,-6.3159,-6.1839,-6.0858,-5.9776,-5.8389,-5.6934,-5.5784,-5.5074,-5.1522,-5.0615,-5.2639,-5.2434,-5.2535,-5.2908,-5.4042,-5.3075,-5.0304,-4.9729,-4.8308,-4.6278,-4.5229,-4.4248,-4.347,-4.3944,-4.4316,-4.4587,-4.4587,-4.4587,-4.4654,-4.5094,-4.4959,-4.4654,-4.5094,-4.4959,-4.4587,-4.4587,-4.4891,-4.5365,-4.5974,-4.6786,-4.7597,-4.8206,-4.8651,-4.8939,-4.886,-4.886,-4.8803,-4.8432,-4.8667,-4.8771,-4.8233,-4.7767,-4.7225,-4.6481,-4.6524,-4.7282,-4.8988,-4.9258,-5.0325,-5.347,-5.039,-4.8362,-4.9791,-4.8232,-4.6891,-4.6356,-4.9558,-5.1023,-4.9587,-5.1061,-5.1722,-5.1176,-5.0764,-4.9949,-4.8727,-4.988,-4.9819,-4.8394,-4.8644,-4.8476,-4.7922,-4.6558,-4.6007,-4.6143,-4.6278,-4.6921,-4.7936,-4.8376,-4.8748,-4.9018,-4.9018,-4.9323,-4.9893,-4.9898,-5.1112,-5.2935,-5.2938,-5.3144,-5.3518,-6.1197,-6.2133,-6.2864,-6.3357,-6.5327,-6.6475,-6.5581,-6.7606,-6.8944,-6.8199,-6.8098,-6.803,-6.7895,-6.7049,-6.5899,-6.441,-6.3125,-6.1873,-6.0723,-5.9607,-5.8592,-5.7611,-5.6393,-5.5344,-5.46,-5.2063,-5.122,-5.2236,-5.2706,-5.2303,-5.1125,-5.2135,-5.126,-4.8646,-4.8037,-4.7158,-4.6041,-4.4688,-4.3978,-4.3809,-4.435,-4.4587,-4.4587,-4.4587,-4.4587,-4.4654,-4.5196,-4.5162,-4.4993,-4.5534,-4.55,-4.5196,-4.4959,-4.5263,-4.5805,-4.6244,-4.709,-4.797,-4.8173,-4.8761,-4.924,-4.8953,-4.9051,-4.9206,-4.8953,-4.8907,-4.9018,-4.9018,-4.8612,-4.8071,-4.753,-4.6413,-4.6262,-4.848,-4.7843,-4.8456,-5.2448,-4.9393,-4.7655,-4.9816,-4.793,-4.6005,-4.5082,-4.8133,-4.9587,-4.8274,-5.046,-5.1719,-5.1386,-5.0773,-4.9757,-4.8348,-5.0326,-5.0226,-4.7737,-4.9424,-4.959,-4.8158,-4.7233,-4.6752,-4.6684,-4.7192,-4.7733,-4.8274,-4.8781,-4.9018,-4.9018,-4.9018,-4.9526,-5.0401,-5.0803,-5.1885,-5.3175,-5.3413,-5.3516,-5.3518,-6.4106,-6.2662,-6.2165,-6.5766,-6.5228,-6.4555,-6.5262,-6.6205,-6.6576,-6.5831,-6.573,-6.6271,-6.7726,-6.6576,-6.5121,-6.3666,-6.2821,-6.1434,-5.9201,-5.9032,-5.8355,-5.69,-5.6122,-5.5344,-5.46,-5.3078,-5.1555,-5.0135,-5.2135,-5.173,-4.9086,-5.1285,-5.0744,-4.8003,-4.9424,-4.8037,-4.4654,-4.5365,-4.5263,-4.4553,-4.4587,-4.4587,-4.4587,-4.4587,-4.4587,-4.4587,-4.4587,-4.506,-4.5703,-4.5703,-4.6177,-4.665,-4.594,-4.5703,-4.6007,-4.7462,-4.7902,-4.8071,-4.8781,-4.9462,-4.9804,-4.9135,-4.9521,-4.9804,-4.9135,-4.8984,-4.9018,-4.9018,-4.8984,-4.8984,-4.8984,-4.8376,-4.8281,-4.9577,-4.9016,-4.9493,-5.258,-4.8365,-4.6495,-5.0317,-4.6766,-4.4329,-4.5002,-4.6518,-4.7403,-4.7387,-4.9125,-4.967,-4.8617,-5.1396,-5.257,-5.1456,-5.4349,-5.4194,-5.0627,-5.1582,-5.0258,-4.6819,-4.6819,-4.7564,-4.8951,-4.8984,-4.8984,-4.8984,-4.9018,-4.9018,-4.9018,-4.9018,-4.9424,-5.0202,-5.1481,-5.2126,-5.2401,-5.3213,-5.3518,-5.3518,-6.4377,-6.4363,-6.4735,-6.6424,-6.6762,-6.666,-6.6424,-6.6593,-6.6542,-6.5797,-6.5256,-6.5121,-6.5595,-6.4783,-6.4005,-6.3565,-6.1873,-6.052,-5.981,-5.8355,-5.707,-5.6122,-5.5344,-5.46,-5.3856,-5.2841,-5.1826,-5.0845,-5.291,-5.2674,-5.0281,-4.9092,-4.7767,-4.6447,-4.7428,-4.7192,-4.6075,-4.5805,-4.5568,-4.5297,-4.479,-4.4891,-4.5365,-4.5365,-4.5669,-4.6143,-4.6684,-4.6684,-4.6515,-4.7056,-4.7022,-4.6853,-4.7124,-4.7225,-4.7293,-4.7767,-4.8274,-4.8714,-4.8951,-4.9168,-4.9256,-4.9046,-4.9168,-4.9256,-4.9046,-4.9018,-4.9018,-4.9018,-4.9018,-4.9018,-4.9018,-4.8003,-4.768,-4.9318,-4.7463,-4.6837,-4.9786,-4.7828,-4.6347,-4.7141,-4.6706,-4.5395,-4.3105,-4.5123,-4.6701,-4.7005,-4.7536,-4.8112,-4.8798,-4.9299,-4.8726,-4.6971,-4.8925,-4.886,-4.654,-4.9557,-4.9655,-4.6819,-4.78,-4.8545,-4.9018,-4.9018,-4.9018,-4.9018,-4.9018,-4.9018,-4.9052,-4.9526,-5.0168,-5.0947,-5.1857,-5.2603,-5.3145,-5.3416,-5.3518,-5.3518,-6.4512,-6.4952,-6.5425,-6.5899,-6.6339,-6.6508,-6.6034,-6.5967,-6.573,-6.4986,-6.4241,-6.3666,-6.3396,-6.2685,-6.2347,-6.2651,-6.0858,-5.9573,-5.9268,-5.7712,-5.6461,-5.575,-5.5006,-5.4262,-5.3518,-5.301,-5.2367,-5.1623,-5.2336,-5.1831,-5.0146,-4.8416,-4.7225,-4.6583,-4.7293,-4.7462,-4.7192,-4.6718,-4.621,-4.5703,-4.55,-4.5534,-4.5737,-4.6007,-4.638,-4.6853,-4.7327,-4.7361,-4.7293,-4.7767,-4.78,-4.7699,-4.8173,-4.8342,-4.8342,-4.8342,-4.8646,-4.9018,-4.9018,-4.9018,-4.9018,-4.9018,-4.9018,-4.9018,-4.9018,-4.9018,-4.9018,-4.9018,-4.9018,-4.9018,-4.9018,-4.78,-4.7166,-4.8303,-4.6035,-4.5,-4.7533,-4.5972,-4.4892,-4.598,-4.5906,-4.4915,-4.2533,-4.4231,-4.5523,-4.5444,-4.6663,-4.7349,-4.7241,-4.7815,-4.7781,-4.6877,-4.8225,-4.8094,-4.6447,-4.9356,-4.9622,-4.7225,-4.8443,-4.9018,-4.9018,-4.9018,-4.9018,-4.9018,-4.9018,-4.9018,-4.9052,-4.9796,-5.0541,-5.1285,-5.2029,-5.2807,-5.3518,-5.3518,-5.3518,-5.3518,-6.4512,-6.4478,-6.4478,-6.458,-6.4546,-6.4546,-6.458,-6.4546,-6.4275,-6.3531,-6.2787,-6.2042,-6.1298,-6.052,-6.0317,-6.1061,-5.9844,-5.8727,-5.8017,-5.7205,-5.6427,-5.575,-5.4938,-5.4194,-5.3518,-5.3518,-5.3145,-5.2367,-5.0947,-4.9864,-4.9154,-4.912,-4.868,-4.8037,-4.8714,-4.8612,-4.8003,-4.7936,-4.7124,-4.5906,-4.6549,-4.6413,-4.594,-4.6616,-4.6921,-4.6955,-4.6955,-4.7394,-4.8003,-4.8003,-4.8443,-4.9018,-4.9018,-4.9018,-4.9018,-4.9018,-4.9018,-4.9018,-4.9018,-4.9018,-4.9018,-4.9018,-4.9018,-4.9018,-4.9018,-4.9018,-4.9018,-4.9018,-4.9018,-4.9018,-4.9018,-4.78,-4.6786,-4.6718,-4.4857,-4.4013,-4.5878,-4.3396,-4.2778,-4.6433,-4.4834,-4.3294,-4.3131,-4.3772,-4.4034,-4.3437,-4.6246,-4.701,-4.4875,-4.706,-4.8882,-4.9893,-5.0909,-5.0813,-4.9389,-5.0492,-5.0025,-4.8003,-4.868,-4.9018,-4.9018,-4.9018,-4.9018,-4.9018,-4.9018,-4.9052,-4.912,-4.9864,-5.0608,-5.1352,-5.2097,-5.2841,-5.3518,-5.3518,-5.3518,-5.3518,-6.3768,-6.3294,-6.326,-6.441,-6.414,-6.3971,-6.4512,-6.414,-6.3497,-6.2753,-6.2009,-6.1264,-6.0486,-5.9708,-5.9336,-5.9539,-5.9235,-5.893,-5.8761,-5.7002,-5.5886,-5.5716,-5.4465,-5.3687,-5.3518,-5.3518,-5.3416,-5.3213,-5.2266,-5.142,-5.0676,-5.0101,-4.9458,-4.8748,-4.8917,-4.8917,-4.8714,-4.8173,-4.7733,-4.7361,-4.6955,-4.7022,-4.7428,-4.7597,-4.8003,-4.8477,-4.8477,-4.8578,-4.8748,-4.8748,-4.8849,-4.9018,-4.9018,-4.9018,-4.9018,-4.9018,-4.9018,-4.9018,-4.9018,-4.9018,-4.9018,-4.9018,-4.9018,-4.9018,-4.9018,-4.9018,-4.9018,-4.9018,-4.9018,-4.9018,-4.9018,-4.78,-4.6616,-4.6041,-4.4519,-4.39,-4.5354,-4.4404,-4.4102,-4.5596,-4.5261,-4.4279,-4.2677,-4.3158,-4.4045,-4.5185,-4.4328,-4.5395,-4.9046,-4.6911,-4.5655,-4.5934,-4.7261,-4.8068,-4.8321,-4.8596,-4.8697,-4.8748,-4.8917,-4.9018,-4.9018,-4.9018,-4.9018,-4.9018,-4.9018,-4.9323,-4.9898,-5.0642,-5.1386,-5.2131,-5.2909,-5.3348,-5.3518,-5.3518,-5.3518,-5.3518,-6.299,-6.2651,-6.2651,-6.3429,-6.326,-6.3125,-6.3531,-6.326,-6.2719,-6.1975,-6.1231,-6.0452,-5.9674,-5.893,-5.849,-5.849,-5.849,-5.849,-5.849,-5.707,-5.6055,-5.5716,-5.46,-5.3856,-5.3518,-5.3518,-5.3518,-5.3518,-5.3078,-5.2469,-5.1691,-5.0947,-5.0202,-4.9492,-4.9154,-4.9018,-4.8984,-4.8578,-4.824,-4.7902,-4.7834,-4.7834,-4.797,-4.8274,-4.8646,-4.9018,-4.9018,-4.9018,-4.9018,-4.9018,-4.9018,-4.9018,-4.9018,-4.9018,-4.9018,-4.9018,-4.9018,-4.9018,-4.9018,-4.9018,-4.9018,-4.9018,-4.9018,-4.9018,-4.9018,-4.9018,-4.9018,-4.9018,-4.9018,-4.9018,-4.9018,-4.78,-4.6549,-4.5838,-4.5125,-4.4841,-4.5194,-4.4624,-4.4557,-4.5664,-4.5043,-4.4181,-4.3436,-4.4338,-4.488,-4.4766,-4.5037,-4.6001,-4.7888,-4.7376,-4.708,-4.7356,-4.7308,-4.7665,-4.8409,-4.8409,-4.8612,-4.9018,-4.9018,-4.9018,-4.9018,-4.9018,-4.9018,-4.9018,-4.9357,-4.9729,-5.0168,-5.1251,-5.1961,-5.2367,-5.3179,-5.3518,-5.3518,-5.3518,-5.3518,-5.3518,-6.2381,-6.2381,-6.2381,-6.2381,-6.2381,-6.2381,-6.2381,-6.2313,-6.1975,-6.1231,-6.0419,-5.9641,-5.893,-5.8287,-5.7881,-5.7881,-5.7881,-5.7881,-5.7881,-5.7103,-5.6359,-5.575,-5.4905,-5.4126,-5.3518,-5.3518,-5.3518,-5.3518,-5.3518,-5.3078,-5.23,-5.1657,-5.0913,-5.0067,-4.9458,-4.912,-4.9018,-4.9018,-4.8646,-4.8139,-4.8748,-4.8646,-4.8139,-4.8781,-4.9018,-4.9018,-4.9018,-4.9018,-4.9018,-4.9018,-4.9018,-4.9018,-4.9018,-4.9018,-4.9018,-4.9018,-4.9018,-4.9018,-4.9018,-4.9018,-4.9018,-4.9018,-4.9086,-4.9154,-4.9018,-4.9086,-4.912,-4.9018,-4.9018,-4.9018,-4.9018,-4.78,-4.665,-4.622,-4.6144,-4.5972,-4.5524,-4.473,-4.473,-4.6246,-4.4832,-4.4079,-4.4823,-4.6041,-4.6007,-4.4079,-4.6709,-4.7585,-4.5645,-4.8057,-4.9919,-5.0894,-4.9039,-4.8376,-4.8984,-4.9018,-4.9018,-4.9018,-4.9018,-4.9018,-4.9018,-4.912,-4.9187,-4.9221,-4.9932,-5.0338,-5.0507,-5.1792,-5.2367,-5.257,-5.3247,-5.3518,-5.3518,-5.3518,-5.3518,-5.3518,-6.2381,-6.2381,-6.2381,-6.2381,-6.2381,-6.2381,-6.2381,-6.1873,-6.1197,-6.0385,-5.9641,-5.8896,-5.8152,-5.7949,-5.7881,-5.7881,-5.7881,-5.7881,-5.7881,-5.663,-5.5852,-5.5716,-5.4397,-5.3619,-5.3518,-5.3518,-5.3518,-5.3518,-5.3518,-5.3078,-5.23,-5.2198,-5.1386,-5.0101,-4.9965,-4.9593,-4.9018,-4.9018,-4.8951,-4.8849,-4.8951,-4.8951,-4.8849,-4.8951,-4.9018,-4.9018,-4.9018,-4.9018,-4.9018,-4.9018,-4.9018,-4.9018,-4.9018,-4.9018,-4.9018,-4.9018,-4.9018,-4.9018,-4.9018,-4.9018,-4.9018,-4.9018,-4.9458,-4.9763,-4.9154,-4.9492,-4.9729,-4.912,-4.9018,-4.9018,-4.9018,-4.78,-4.7038,-4.7876,-4.6811,-4.6282,-4.7428,-4.6383,-4.5983,-4.7239,-4.6136,-4.5635,-4.638,-4.665,-4.665,-4.6278,-4.6786,-4.7855,-4.9555,-4.8702,-4.9476,-5.2366,-5.0113,-4.8883,-4.9018,-4.9018,-4.9018,-4.9018,-4.9018,-4.9018,-4.9018,-4.9627,-4.9932,-4.9965,-5.071,-5.1386,-5.1995,-5.2198,-5.2706,-5.3348,-5.345,-5.3518,-5.3518,-5.3518,-5.3518,-5.3518,-6.2381,-6.2381,-6.2245,-6.1873,-6.1806,-6.167,-6.1231,-6.0858,-6.0385,-5.9607,-5.9235,-5.8727,-5.7983,-5.7881,-5.7881,-5.7881,-5.7881,-5.7881,-5.7881,-5.69,-5.6122,-5.575,-5.4668,-5.3923,-5.3518,-5.3518,-5.3518,-5.3518,-5.3518,-5.3315,-5.2942,-5.2503,-5.1725,-5.0676,-5.027,-4.9695,-4.9018,-4.9018,-4.9018,-4.9018,-4.9018,-4.9018,-4.9018,-4.9018,-4.9018,-4.9018,-4.9018,-4.9018,-4.9018,-4.9018,-4.9018,-4.9018,-4.9018,-4.9018,-4.9018,-4.9018,-4.9018,-4.9086,-4.9492,-4.9593,-4.9695,-5.0101,-5.0439,-5.0608,-5.027,-5.0439,-5.0608,-5.027,-4.9864,-4.9593,-4.9593,-4.8037,-4.7275,-4.8721,-4.7659,-4.7188,-4.8895,-4.7669,-4.7132,-4.845,-4.7585,-4.7327,-4.8443,-4.8951,-4.8849,-4.8037,-4.8003,-4.8348,-4.914,-4.8726,-4.9333,-5.1294,-5.0582,-4.9796,-4.9018,-4.939,-4.939,-4.9018,-4.9018,-4.9221,-4.9593,-4.9932,-5.0304,-5.0744,-5.1488,-5.1995,-5.2334,-5.2773,-5.3179,-5.3518,-5.3518,-5.3518,-5.3518,-5.3518,-5.3518,-5.3518,-6.1907,-6.2009,-6.1907,-6.1163,-6.1028,-6.0825,-6.0182,-6.0114,-5.9844,-5.9099,-5.9032,-5.8727,-5.7983,-5.7881,-5.7881,-5.7881,-5.7881,-5.7881,-5.7881,-5.7205,-5.6461,-5.575,-5.4837,-5.4093,-5.3518,-5.3518,-5.3518,-5.3518,-5.3518,-5.3518,-5.3484,-5.2875,-5.2097,-5.1183,-5.0608,-4.9864,-4.9018,-4.9018,-4.9018,-4.9018,-4.9018,-4.9018,-4.9018,-4.9018,-4.9018,-4.9018,-4.9018,-4.9018,-4.9018,-4.9018,-4.9018,-4.9018,-4.9018,-4.912,-4.9255,-4.9255,-4.939,-4.9593,-4.9999,-5.0101,-5.027,-5.1014,-5.1352,-5.142,-5.1251,-5.1352,-5.142,-5.1251,-5.0744,-5.0338,-5.0367,-4.868,-4.7841,-4.9472,-4.8635,-4.8082,-4.9227,-4.8692,-4.8509,-4.905,-4.8866,-4.912,-5.0236,-5.0879,-5.0676,-4.9357,-4.9255,-4.9018,-4.8443,-4.8951,-4.9593,-5.0338,-5.0913,-5.0574,-4.9255,-4.983,-4.9729,-4.9018,-4.9018,-4.939,-5.0101,-5.027,-5.0777,-5.1522,-5.2266,-5.257,-5.2638,-5.3247,-5.3518,-5.3518,-5.3518,-5.3518,-5.3518,-5.3518,-5.3518,-5.3518,-6.0419,-6.0858,-6.1129,-6.0317,-6.0182,-6.0182,-6.0114,-6.0114,-5.9844,-5.9099,-5.9032,-5.8727,-5.7983,-5.7881,-5.7881,-5.7881,-5.7881,-5.7881,-5.7881,-5.7205,-5.6461,-5.575,-5.4363,-5.3551,-5.3518,-5.3518,-5.3518,-5.3518,-5.3518,-5.3518,-5.3518,-5.345,-5.2638,-5.1217,-5.115,-5.0338,-4.9018,-4.9018,-4.9018,-4.9018,-4.9018,-4.9018,-4.9018,-4.9018,-4.9018,-4.9018,-4.9018,-4.9018,-4.9018,-4.9018,-4.9018,-4.9018,-4.9018,-4.9458,-4.9999,-4.9999,-5.0507,-5.0913,-5.027,-5.0101,-5.027,-5.1014,-5.1725,-5.2063,-5.1386,-5.1725,-5.2029,-5.1352,-5.1183,-5.1116,-5.1108,-4.9859,-4.9229,-5.0307,-4.9708,-4.8685,-4.7646,-4.9573,-5.0362,-4.8247,-4.9734,-5.1014,-5.1116,-5.1183,-5.0879,-5.0067,-4.9999,-4.9999,-4.9932,-4.9965,-5.0371,-5.1116,-5.1183,-5.0845,-5.0033,-5.0067,-4.9729,-4.9018,-4.9018,-4.939,-5.0101,-5.0811,-5.1522,-5.2266,-5.3078,-5.3416,-5.3416,-5.3484,-5.3518,-5.3518,-5.3518,-5.3518,-5.3518,-5.3518,-5.3518,-5.3518,-6.0148,-6.0351,-6.0317,-5.9573,-5.9438,-5.9268,-5.8795,-5.8727,-5.8626,-5.8355,-5.8321,-5.822,-5.7915,-5.7881,-5.7881,-5.7881,-5.7881,-5.7712,-5.7239,-5.6968,-5.6258,-5.5074,-5.4059,-5.3518,-5.3518,-5.3518,-5.3518,-5.3518,-5.3518,-5.3518,-5.3518,-5.3518,-5.2672,-5.1217,-5.1217,-5.0405,-4.9018,-4.9018,-4.9018,-4.9018,-4.9018,-4.9018,-4.9018,-4.9018,-4.9018,-4.9018,-4.9018,-4.9289,-4.9661,-4.9661,-4.9661,-4.9763,-5.0236,-5.0236,-5.0168,-5.0642,-5.098,-5.1251,-5.142,-5.1454,-5.1657,-5.2435,-5.2841,-5.2976,-5.2706,-5.2841,-5.2976,-5.2706,-5.2198,-5.1891,-5.1891,-5.0683,-5.0349,-5.2334,-5.0634,-4.9486,-5.0559,-5.0652,-5.0265,-4.9357,-5.0811,-5.1725,-5.1251,-5.2097,-5.2131,-5.0879,-5.1217,-5.1251,-5.0811,-5.1217,-5.1826,-5.2604,-5.2638,-5.1826,-5.0101,-5.1014,-5.0845,-4.9695,-5.0168,-5.0744,-5.1454,-5.1758,-5.23,-5.3078,-5.3382,-5.3518,-5.3518,-5.3518,-5.3518,-5.3518,-5.3518,-5.3518,-5.3518,-5.3518,-5.3518,-5.3518,-5.9438,-5.9607,-5.9539,-5.8795,-5.866,-5.849,-5.7983,-5.8084,-5.8152,-5.7915,-5.8084,-5.8152,-5.7915,-5.7881,-5.7881,-5.7881,-5.7881,-5.7577,-5.6867,-5.6359,-5.5649,-5.4634,-5.389,-5.3518,-5.3518,-5.3518,-5.3518,-5.3518,-5.3518,-5.3518,-5.3518,-5.3518,-5.2807,-5.1555,-5.1319,-5.0507,-4.9323,-4.9086,-4.9018,-4.9018,-4.9018,-4.9018,-4.9018,-4.9255,-4.9357,-4.939,-4.9627,-5.0033,-5.0439,-5.0439,-5.0439,-5.0541,-5.1048,-5.1014,-5.0947,-5.1725,-5.1928,-5.2029,-5.2536,-5.2672,-5.2807,-5.3382,-5.3518,-5.3518,-5.3518,-5.3518,-5.3518,-5.3518,-5.3044,-5.2704,-5.2672,-5.1663,-5.1296,-5.2806,-5.1157,-5.0244,-5.1732,-5.1258,-5.0777,-5.0777,-5.1894,-5.2469,-5.1995,-5.2875,-5.2976,-5.1657,-5.2029,-5.2097,-5.1589,-5.2266,-5.2942,-5.3484,-5.3518,-5.2638,-5.0811,-5.1792,-5.1691,-5.0439,-5.098,-5.1589,-5.23,-5.23,-5.2739,-5.3518,-5.3518,-5.3518,-5.3518,-5.3518,-5.3518,-5.3518,-5.3518,-5.3518,-5.3518,-5.3518,-5.3518,-5.3518,-5.8017,-5.849,-5.8761,-5.8017,-5.7881,-5.7881,-5.7881,-5.8524,-5.8727,-5.7983,-5.8558,-5.8727,-5.7983,-5.7881,-5.7881,-5.7881,-5.7881,-5.7577,-5.6833,-5.5412,-5.4566,-5.4566,-5.389,-5.3518,-5.3518,-5.3518,-5.3518,-5.3518,-5.3518,-5.3518,-5.3518,-5.3518,-5.3078,-5.2266,-5.1555,-5.0811,-5.0033,-4.9323,-4.9018,-4.9018,-4.9018,-4.9018,-4.9086,-4.9796,-5.0101,-5.0202,-5.0947,-5.1217,-5.1217,-5.1217,-5.1217,-5.1217,-5.1217,-5.1725,-5.2469,-5.3281,-5.3518,-5.3518,-5.3518,-5.3518,-5.3518,-5.3518,-5.3518,-5.3518,-5.3518,-5.3518,-5.3518,-5.3518,-5.3518,-5.3518,-5.3518,-5.2809,-5.2067,-5.138,-5.1186,-5.0986,-5.0236,-5.1386,-5.23,-5.23,-5.301,-5.3518,-5.3484,-5.3518,-5.3179,-5.2367,-5.23,-5.23,-5.23,-5.3078,-5.3518,-5.3518,-5.3518,-5.3112,-5.2334,-5.23,-5.1961,-5.1217,-5.1251,-5.1623,-5.23,-5.23,-5.2739,-5.3518,-5.3518,-5.3518,-5.3518,-5.3518,-5.3518,-5.3518,-5.3518,-5.3518,-5.3518,-5.3518,-5.3518,-5.3518,-5.7915,-5.8084,-5.8152,-5.7915,-5.7881,-5.7881,-5.7881,-5.8084,-5.8152,-5.7915,-5.8084,-5.8152,-5.7915,-5.7881,-5.7679,-5.7171,-5.7137,-5.6596,-5.5344,-5.4363,-5.3822,-5.3822,-5.3619,-5.3518,-5.3518,-5.3518,-5.3518,-5.3518,-5.3518,-5.3518,-5.3518,-5.3518,-5.3078,-5.23,-5.2063,-5.1285,-5.0067,-4.9864,-4.9458,-4.9018,-4.9018,-4.9323,-4.9729,-4.9424,-4.9965,-5.0845,-5.0541,-5.1082,-5.1961,-5.1961,-5.1961,-5.1961,-5.1961,-5.2503,-5.3179,-5.345,-5.3518,-5.3518,-5.3518,-5.3518,-5.3518,-5.3518,-5.3518,-5.3518,-5.3518,-5.3518,-5.3518,-5.3518,-5.3518,-5.3518,-5.3518,-5.3281,-5.3078,-5.2807,-5.2841,-5.2707,-5.2536,-5.2875,-5.3145,-5.3145,-5.3348,-5.3281,-5.2706,-5.3179,-5.3179,-5.2367,-5.2841,-5.3145,-5.3145,-5.3382,-5.3518,-5.3518,-5.3518,-5.3382,-5.3145,-5.3145,-5.2739,-5.1995,-5.2536,-5.2942,-5.3145,-5.3145,-5.3281,-5.3518,-5.3518,-5.3518,-5.3518,-5.3518,-5.3518,-5.3518,-5.3518,-5.3518,-5.3518,-5.3518,-5.3518,-5.3518,-5.7881,-5.7881,-5.7881,-5.7881,-5.7881,-5.7881,-5.7881,-5.7881,-5.7881,-5.7881,-5.7881,-5.778,-5.7476,-5.7712,-5.7476,-5.6461,-5.6089,-5.5547,-5.4634,-5.3923,-5.3518,-5.3518,-5.3518,-5.3518,-5.3518,-5.3518,-5.3518,-5.3518,-5.3518,-5.3518,-5.3518,-5.3518,-5.3247,-5.2773,-5.2435,-5.1792,-5.0913,-5.0338,-4.983,-4.9424,-4.9424,-4.9695,-5.0101,-5.0236,-5.0879,-5.1623,-5.1488,-5.2029,-5.2773,-5.2773,-5.2773,-5.2773,-5.2773,-5.3112,-5.3518,-5.3518,-5.3518,-5.3518,-5.3518,-5.3518,-5.3518,-5.3518,-5.3518,-5.3518,-5.3518,-5.3518,-5.3518,-5.3518,-5.3518,-5.3518,-5.3518,-5.3518,-5.3518,-5.3518,-5.3518,-5.3518,-5.3518,-5.3518,-5.3518,-5.3518,-5.3518,-5.3315,-5.2807,-5.3213,-5.3315,-5.2807,-5.3247,-5.3518,-5.3518,-5.3518,-5.3518,-5.3518,-5.3518,-5.3518,-5.3518,-5.3518,-5.3281,-5.2773,-5.3281,-5.3518,-5.3518,-5.3518,-5.3518,-5.3518,-5.3518,-5.3518,-5.3518,-5.3518,-5.3518,-5.3518,-5.3518,-5.3518,-5.3518,-5.3518,-5.3518,-5.3518,-5.7881,-5.7881,-5.7881,-5.7881,-5.7881,-5.7881,-5.7881,-5.7881,-5.7881,-5.7881,-5.7881,-5.7645,-5.6968,-5.7442,-5.7239,-5.5852,-5.4972,-5.4499,-5.4499,-5.3856,-5.3518,-5.3518,-5.3518,-5.3518,-5.3518,-5.3518,-5.3518,-5.3518,-5.3518,-5.3518,-5.3518,-5.3518,-5.3518,-5.3484,-5.2739,-5.2367,-5.2198,-5.0845,-5.0236,-5.0202,-5.0202,-5.0236,-5.0439,-5.1725,-5.23,-5.2503,-5.3179,-5.345,-5.3518,-5.3518,-5.3518,-5.3518,-5.3518,-5.3518,-5.3518,-5.3518,-5.3518,-5.3518,-5.3518,-5.3518,-5.3518,-5.3518,-5.3518,-5.3518,-5.3518,-5.3518,-5.3518,-5.3518,-5.3518,-5.3518,-5.3518,-5.3518,-5.3518,-5.3518,-5.3518,-5.3518,-5.3518,-5.3518,-5.3518,-5.3518,-5.3518,-5.3518,-5.3518,-5.3518,-5.3518,-5.3518,-5.3518,-5.3518,-5.3518,-5.3518,-5.3518,-5.3518,-5.3518,-5.3518,-5.3518,-5.3518,-5.3518,-5.3518,-5.3518,-5.3518,-5.3518,-5.3518,-5.3518,-5.3518,-5.3518,-5.3518,-5.3518,-5.3518,-5.3518,-5.3518,-5.3518,-5.3518,-5.3518,-5.3518,-5.3518,-5.3518,-5.7881,-5.7881,-5.7881,-5.7881,-5.7881,-5.7881,-5.7881,-5.7881,-5.7881,-5.7881,-5.7881,-5.7814,-5.7679,-5.7273,-5.6697,-5.5784,-5.4499,-5.3754,-5.3754,-5.3585,-5.3518,-5.3518,-5.3518,-5.3518,-5.3518,-5.3518,-5.3518,-5.3518,-5.3518,-5.3518,-5.3518,-5.3518,-5.3518,-5.3484,-5.3315,-5.2875,-5.2266,-5.1961,-5.1488,-5.098,-5.098,-5.1319,-5.1792,-5.1555,-5.2198,-5.3179,-5.2739,-5.2976,-5.3518,-5.3518,-5.3518,-5.3518,-5.3518,-5.3518,-5.3518,-5.3518,-5.3518,-5.3518,-5.3518,-5.3518,-5.3518,-5.3518,-5.3518,-5.3518,-5.3518,-5.3518,-5.3518,-5.3518,-5.3518,-5.3518,-5.3518,-5.3518,-5.3518,-5.3518,-5.3518,-5.3518,-5.3518,-5.3518,-5.3518,-5.3518,-5.3518,-5.3518,-5.3518,-5.3518,-5.3518,-5.3518,-5.3518,-5.3518,-5.3518,-5.3518,-5.3518,-5.3518,-5.3518,-5.3518,-5.3518,-5.3518,-5.3518,-5.3518,-5.3518,-5.3518,-5.3518,-5.3518,-5.3518,-5.3518,-5.3518,-5.3518,-5.3518,-5.3518,-5.3518,-5.3518,-5.3518,-5.3518,-5.3518,-5.3518,-5.3518,-5.3518,-5.7335,-5.7645,-5.7679,-5.6968,-5.7137,-5.7273,-5.69,-5.6867,-5.6867,-5.6867,-5.6867,-5.6731,-5.6359,-5.6292,-5.5987,-5.5243,-5.416,-5.3518,-5.3518,-5.3518,-5.3518,-5.3518,-5.3518,-5.3518,-5.3518,-5.3518,-5.3518,-5.3518,-5.3518,-5.3518,-5.3518,-5.3518,-5.3518,-5.3518,-5.3518,-5.3281,-5.2841,-5.2469,-5.2097,-5.1725,-5.1725,-5.1961,-5.23,-5.23,-5.2807,-5.345,-5.301,-5.3145,-5.3518,-5.3518,-5.3518,-5.3518,-5.3518,-5.3518,-5.3518,-5.3518,-5.3518,-5.3518,-5.3518,-5.3518,-5.3518,-5.3518,-5.3518,-5.3518,-5.3518,-5.3518,-5.3518,-5.3518,-5.3518,-5.3518,-5.3518,-5.3518,-5.3518,-5.3518,-5.3518,-5.3518,-5.3518,-5.3518,-5.3518,-5.3518,-5.3518,-5.3518,-5.3518,-5.3518,-5.3518,-5.3518,-5.3518,-5.3518,-5.3518,-5.3518,-5.3518,-5.3518,-5.3518,-5.3518,-5.3518,-5.3518,-5.3518,-5.3518,-5.3518,-5.3518,-5.3518,-5.3518,-5.3518,-5.3518,-5.3518,-5.3518,-5.3518,-5.3518,-5.3518,-5.3518,-5.3518,-5.3518,-5.3518,-5.3518,-5.3518,-5.3518,-5.6432,-5.692,-5.6886,-5.5849,-5.6224,-5.6427,-5.5818,-5.5716,-5.5716,-5.5716,-5.5716,-5.548,-5.4837,-5.5243,-5.5243,-5.4465,-5.3856,-5.3518,-5.3518,-5.3518,-5.3518,-5.3518,-5.3518,-5.3518,-5.3518,-5.3518,-5.3518,-5.3518,-5.3518,-5.3518,-5.3518,-5.3518,-5.3518,-5.3518,-5.3518,-5.3518,-5.345,-5.2807,-5.2503,-5.2503,-5.2503,-5.2503,-5.257,-5.3247,-5.3518,-5.3518,-5.3518,-5.3518,-5.3518,-5.3518,-5.3518,-5.3518,-5.3518,-5.3518,-5.3518,-5.3518,-5.3518,-5.3518,-5.3518,-5.3518,-5.3518,-5.3518,-5.3518,-5.3518,-5.3518,-5.3518,-5.3518,-5.3518,-5.3518,-5.3518,-5.3518,-5.3518,-5.3518,-5.3518,-5.3518,-5.3518,-5.3518,-5.3518,-5.3518,-5.3518,-5.3518,-5.3518,-5.3518,-5.3518,-5.3518,-5.3518,-5.3518,-5.3518,-5.3518,-5.3518,-5.3518,-5.3518,-5.3518,-5.3518,-5.3518,-5.3518,-5.3518,-5.3518,-5.3518,-5.3518,-5.3518,-5.3518,-5.3518,-5.3518,-5.3518,-5.3518,-5.3518,-5.3518,-5.3518,-5.3518,-5.3518,-5.3518,-5.3518,-5.3518,-5.3518,-5.3518,-5.5336,-5.4948,-5.4882,-5.5576,-5.5784,-5.5818,-5.575,-5.5716,-5.5716,-5.5716,-5.5716,-5.5683,-5.5581,-5.5074,-5.4431,-5.3721,-5.3551,-5.3518,-5.3518,-5.3518,-5.3518,-5.3518,-5.3518,-5.3518,-5.3518,-5.3518,-5.3518,-5.3518,-5.3518,-5.3518,-5.3518,-5.3518,-5.3518,-5.3518,-5.3518,-5.3518,-5.3484,-5.3382,-5.3348,-5.3348,-5.3348,-5.3348,-5.3348,-5.345,-5.3518,-5.3518,-5.3518,-5.3518,-5.3518,-5.3518,-5.3518,-5.3518,-5.3518,-5.3518,-5.3518,-5.3518,-5.3518,-5.3518,-5.3518,-5.3518,-5.3518,-5.3518,-5.3518,-5.3518,-5.3518,-5.3518,-5.3518,-5.3518,-5.3518,-5.3518,-5.3518,-5.3518,-5.3518,-5.3518,-5.3518,-5.3518,-5.3518,-5.3518,-5.3518,-5.3518,-5.3518,-5.3518,-5.3518,-5.3518,-5.3518,-5.3518,-5.3518,-5.3518,-5.3518,-5.3518,-5.3518,-5.3518,-5.3518,-5.3518,-5.3518,-5.3518,-5.3518,-5.3518,-5.3518,-5.3518,-5.3518,-5.3518,-5.3518,-5.3518,-5.3518,-5.3518,-5.3518,-5.3518,-5.3518,-5.3518,-5.3518,-5.3518,-5.3518,-5.3518,-5.3518,-5.3518,-5.3142,-5.3618,-5.3981,-5.3656,-5.4421,-5.4938,-5.4532,-5.4465,-5.4465,-5.4465,-5.4465,-5.4465,-5.4465,-5.4194,-5.3856,-5.3551,-5.3518,-5.3518,-5.3518,-5.2939,-5.2627,-5.2627,-5.2098,-5.1809,-5.1809,-5.2312,-5.2627,-5.2627,-5.3179,-5.3518,-5.3518,-5.3518,-5.3518,-5.3518,-5.3518,-5.3518,-5.3518,-5.3518,-5.3518,-5.3518,-5.3518,-5.3518,-5.3518,-5.3518,-5.3518,-5.3518,-5.3518,-5.3518,-5.3518,-5.3518,-5.3518,-5.3518,-5.3518,-5.3518,-5.3348,-5.28,-5.3041,-5.3348,-5.28,-5.331,-5.4126,-5.4126,-5.4431,-5.4735,-5.4735,-5.425,-5.3699,-5.3517,-5.3822,-5.4126,-5.4126,-5.4465,-5.4735,-5.4735,-5.4735,-5.4735,-5.4735,-5.4363,-5.3957,-5.3551,-5.3518,-5.3518,-5.3518,-5.3518,-5.3518,-5.3518,-5.3518,-5.3518,-5.3518,-5.3518,-5.3518,-5.3518,-5.3518,-5.3518,-5.3518,-5.3518,-5.3518,-5.3518,-5.3518,-5.3518,-5.3518,-5.3518,-5.3518,-5.3518,-5.3518,-5.3518,-5.3518,-5.3518,-5.3518,-5.3518,-5.3518,-5.3518,-5.3518,-5.3518,-5.3518,-5.3518]}]]